<?xml version="1.0" encoding="UTF-8" standalone="no" ?>
<gpx xmlns="http://www.topografix.com/GPX/1/1" xmlns:xsi="http://www.w3.org/2001/XMLSchema-instance" xsi:schemaLocation="http://www.topografix.com/GPX/1/1 http://www.topografix.com/GPX/1/1/gpx.xsd" version="1.1" creator="VisuGPX - https://www.visugpx.com">
  <metadata>
    <name>auxonne</name>
    <desc><![CDATA[Petite sortie pluvieuse]]></desc>
  </metadata>
  <trk>
    <name><![CDATA[biarne]]></name>
    <trkseg>
      <trkpt lat="47.07892" lon="5.51325">
        <ele>236.621704</ele>
        <time>2011-05-27T12:39:58Z</time>
      </trkpt>
      <trkpt lat="47.0789" lon="5.51324">
        <ele>237.102295</ele>
        <time>2011-05-27T12:39:59Z</time>
      </trkpt>
      <trkpt lat="47.07876" lon="5.51318">
        <ele>237.582886</ele>
        <time>2011-05-27T12:40:05Z</time>
      </trkpt>
      <trkpt lat="47.07853" lon="5.51306">
        <ele>238.544312</ele>
        <time>2011-05-27T12:40:11Z</time>
      </trkpt>
      <trkpt lat="47.07821" lon="5.51288">
        <ele>239.986206</ele>
        <time>2011-05-27T12:40:19Z</time>
      </trkpt>
      <trkpt lat="47.07783" lon="5.51265">
        <ele>244.312256</ele>
        <time>2011-05-27T12:40:28Z</time>
      </trkpt>
      <trkpt lat="47.0777" lon="5.51257">
        <ele>245.75415</ele>
        <time>2011-05-27T12:40:31Z</time>
      </trkpt>
      <trkpt lat="47.07757" lon="5.51247">
        <ele>244.792847</ele>
        <time>2011-05-27T12:40:35Z</time>
      </trkpt>
      <trkpt lat="47.07748" lon="5.51229">
        <ele>244.312256</ele>
        <time>2011-05-27T12:40:39Z</time>
      </trkpt>
      <trkpt lat="47.07748" lon="5.51222">
        <ele>244.312256</ele>
        <time>2011-05-27T12:40:40Z</time>
      </trkpt>
      <trkpt lat="47.07748" lon="5.51166">
        <ele>243.35083</ele>
        <time>2011-05-27T12:40:47Z</time>
      </trkpt>
      <trkpt lat="47.07745" lon="5.51105">
        <ele>241.428223</ele>
        <time>2011-05-27T12:40:54Z</time>
      </trkpt>
      <trkpt lat="47.07734" lon="5.51041">
        <ele>239.505493</ele>
        <time>2011-05-27T12:41:01Z</time>
      </trkpt>
      <trkpt lat="47.07733" lon="5.51022">
        <ele>239.024902</ele>
        <time>2011-05-27T12:41:03Z</time>
      </trkpt>
      <trkpt lat="47.07741" lon="5.50978">
        <ele>239.024902</ele>
        <time>2011-05-27T12:41:08Z</time>
      </trkpt>
      <trkpt lat="47.07749" lon="5.50965">
        <ele>239.986206</ele>
        <time>2011-05-27T12:41:10Z</time>
      </trkpt>
      <trkpt lat="47.07757" lon="5.50952">
        <ele>240.947632</ele>
        <time>2011-05-27T12:41:12Z</time>
      </trkpt>
      <trkpt lat="47.07789" lon="5.50916">
        <ele>243.35083</ele>
        <time>2011-05-27T12:41:19Z</time>
      </trkpt>
      <trkpt lat="47.07807" lon="5.50897">
        <ele>244.792847</ele>
        <time>2011-05-27T12:41:23Z</time>
      </trkpt>
      <trkpt lat="47.07816" lon="5.50868">
        <ele>245.75415</ele>
        <time>2011-05-27T12:41:27Z</time>
      </trkpt>
      <trkpt lat="47.07811" lon="5.50856">
        <ele>246.234863</ele>
        <time>2011-05-27T12:41:29Z</time>
      </trkpt>
      <trkpt lat="47.07785" lon="5.50802">
        <ele>248.157593</ele>
        <time>2011-05-27T12:41:37Z</time>
      </trkpt>
      <trkpt lat="47.07755" lon="5.5074">
        <ele>247.676758</ele>
        <time>2011-05-27T12:41:45Z</time>
      </trkpt>
      <trkpt lat="47.07723" lon="5.50671">
        <ele>246.715454</ele>
        <time>2011-05-27T12:41:53Z</time>
      </trkpt>
      <trkpt lat="47.07688" lon="5.50592">
        <ele>245.273438</ele>
        <time>2011-05-27T12:42:02Z</time>
      </trkpt>
      <trkpt lat="47.07658" lon="5.50525">
        <ele>244.312256</ele>
        <time>2011-05-27T12:42:10Z</time>
      </trkpt>
      <trkpt lat="47.07636" lon="5.50464">
        <ele>242.389648</ele>
        <time>2011-05-27T12:42:17Z</time>
      </trkpt>
      <trkpt lat="47.07616" lon="5.504">
        <ele>241.428223</ele>
        <time>2011-05-27T12:42:24Z</time>
      </trkpt>
      <trkpt lat="47.07594" lon="5.50335">
        <ele>241.908936</ele>
        <time>2011-05-27T12:42:31Z</time>
      </trkpt>
      <trkpt lat="47.07574" lon="5.50273">
        <ele>240.947632</ele>
        <time>2011-05-27T12:42:37Z</time>
      </trkpt>
      <trkpt lat="47.07553" lon="5.50205">
        <ele>240.947632</ele>
        <time>2011-05-27T12:42:44Z</time>
      </trkpt>
      <trkpt lat="47.07549" lon="5.50186">
        <ele>239.024902</ele>
        <time>2011-05-27T12:42:49Z</time>
      </trkpt>
      <trkpt lat="47.07543" lon="5.5016">
        <ele>238.063599</ele>
        <time>2011-05-27T12:42:53Z</time>
      </trkpt>
      <trkpt lat="47.07537" lon="5.50102">
        <ele>235.660278</ele>
        <time>2011-05-27T12:42:59Z</time>
      </trkpt>
      <trkpt lat="47.07535" lon="5.50035">
        <ele>233.25708</ele>
        <time>2011-05-27T12:43:04Z</time>
      </trkpt>
      <trkpt lat="47.07542" lon="5.49954">
        <ele>228.931152</ele>
        <time>2011-05-27T12:43:10Z</time>
      </trkpt>
      <trkpt lat="47.07548" lon="5.49894">
        <ele>227.008545</ele>
        <time>2011-05-27T12:43:15Z</time>
      </trkpt>
      <trkpt lat="47.07561" lon="5.49866">
        <ele>223.643799</ele>
        <time>2011-05-27T12:43:19Z</time>
      </trkpt>
      <trkpt lat="47.07561" lon="5.49844">
        <ele>221.721191</ele>
        <time>2011-05-27T12:43:22Z</time>
      </trkpt>
      <trkpt lat="47.07554" lon="5.49783">
        <ele>221.240601</ele>
        <time>2011-05-27T12:43:28Z</time>
      </trkpt>
      <trkpt lat="47.07557" lon="5.49763">
        <ele>220.279175</ele>
        <time>2011-05-27T12:43:30Z</time>
      </trkpt>
      <trkpt lat="47.07574" lon="5.49691">
        <ele>219.798584</ele>
        <time>2011-05-27T12:43:38Z</time>
      </trkpt>
      <trkpt lat="47.07593" lon="5.49621">
        <ele>218.83728</ele>
        <time>2011-05-27T12:43:45Z</time>
      </trkpt>
      <trkpt lat="47.07604" lon="5.49582">
        <ele>215.953247</ele>
        <time>2011-05-27T12:43:50Z</time>
      </trkpt>
      <trkpt lat="47.07605" lon="5.49574">
        <ele>216.914673</ele>
        <time>2011-05-27T12:43:55Z</time>
      </trkpt>
      <trkpt lat="47.07606" lon="5.49572">
        <ele>216.914673</ele>
        <time>2011-05-27T12:43:57Z</time>
      </trkpt>
      <trkpt lat="47.07602" lon="5.49559">
        <ele>219.317993</ele>
        <time>2011-05-27T12:44:02Z</time>
      </trkpt>
      <trkpt lat="47.07599" lon="5.49557">
        <ele>219.798584</ele>
        <time>2011-05-27T12:44:03Z</time>
      </trkpt>
      <trkpt lat="47.07575" lon="5.49533">
        <ele>222.682495</ele>
        <time>2011-05-27T12:44:10Z</time>
      </trkpt>
      <trkpt lat="47.07538" lon="5.49501">
        <ele>223.643799</ele>
        <time>2011-05-27T12:44:17Z</time>
      </trkpt>
      <trkpt lat="47.07502" lon="5.49475">
        <ele>223.163208</ele>
        <time>2011-05-27T12:44:23Z</time>
      </trkpt>
      <trkpt lat="47.07468" lon="5.49455">
        <ele>222.201782</ele>
        <time>2011-05-27T12:44:28Z</time>
      </trkpt>
      <trkpt lat="47.07456" lon="5.49435">
        <ele>222.201782</ele>
        <time>2011-05-27T12:44:32Z</time>
      </trkpt>
      <trkpt lat="47.07458" lon="5.49405">
        <ele>220.759888</ele>
        <time>2011-05-27T12:44:36Z</time>
      </trkpt>
      <trkpt lat="47.07461" lon="5.49397">
        <ele>220.279175</ele>
        <time>2011-05-27T12:44:37Z</time>
      </trkpt>
      <trkpt lat="47.07492" lon="5.4934">
        <ele>219.798584</ele>
        <time>2011-05-27T12:44:44Z</time>
      </trkpt>
      <trkpt lat="47.07518" lon="5.49288">
        <ele>218.356567</ele>
        <time>2011-05-27T12:44:50Z</time>
      </trkpt>
      <trkpt lat="47.07524" lon="5.49272">
        <ele>218.356567</ele>
        <time>2011-05-27T12:44:52Z</time>
      </trkpt>
      <trkpt lat="47.07528" lon="5.4925">
        <ele>216.914673</ele>
        <time>2011-05-27T12:44:56Z</time>
      </trkpt>
      <trkpt lat="47.07529" lon="5.49248">
        <ele>216.914673</ele>
        <time>2011-05-27T12:44:59Z</time>
      </trkpt>
      <trkpt lat="47.07532" lon="5.4924">
        <ele>216.43396</ele>
        <time>2011-05-27T12:45:03Z</time>
      </trkpt>
      <trkpt lat="47.07543" lon="5.49219">
        <ele>215.953247</ele>
        <time>2011-05-27T12:45:09Z</time>
      </trkpt>
      <trkpt lat="47.07562" lon="5.4918">
        <ele>210.666016</ele>
        <time>2011-05-27T12:45:17Z</time>
      </trkpt>
      <trkpt lat="47.0758" lon="5.49146">
        <ele>210.666016</ele>
        <time>2011-05-27T12:45:24Z</time>
      </trkpt>
      <trkpt lat="47.07592" lon="5.49124">
        <ele>211.146729</ele>
        <time>2011-05-27T12:45:29Z</time>
      </trkpt>
      <trkpt lat="47.076" lon="5.4911">
        <ele>211.627441</ele>
        <time>2011-05-27T12:45:34Z</time>
      </trkpt>
      <trkpt lat="47.076" lon="5.49108">
        <ele>211.146729</ele>
        <time>2011-05-27T12:45:35Z</time>
      </trkpt>
      <trkpt lat="47.07594" lon="5.49097">
        <ele>209.704834</ele>
        <time>2011-05-27T12:45:40Z</time>
      </trkpt>
      <trkpt lat="47.07583" lon="5.49108">
        <ele>207.301392</ele>
        <time>2011-05-27T12:45:44Z</time>
      </trkpt>
      <trkpt lat="47.07565" lon="5.49113">
        <ele>206.340088</ele>
        <time>2011-05-27T12:45:48Z</time>
      </trkpt>
      <trkpt lat="47.07545" lon="5.49105">
        <ele>204.898071</ele>
        <time>2011-05-27T12:45:52Z</time>
      </trkpt>
      <trkpt lat="47.07537" lon="5.49098">
        <ele>203.93689</ele>
        <time>2011-05-27T12:45:54Z</time>
      </trkpt>
      <trkpt lat="47.07525" lon="5.49095">
        <ele>202.975464</ele>
        <time>2011-05-27T12:45:59Z</time>
      </trkpt>
      <trkpt lat="47.07525" lon="5.49092">
        <ele>203.456177</ele>
        <time>2011-05-27T12:46:04Z</time>
      </trkpt>
      <trkpt lat="47.0752" lon="5.49077">
        <ele>201.052856</ele>
        <time>2011-05-27T12:46:10Z</time>
      </trkpt>
      <trkpt lat="47.07517" lon="5.49068">
        <ele>200.091675</ele>
        <time>2011-05-27T12:46:15Z</time>
      </trkpt>
      <trkpt lat="47.07517" lon="5.49066">
        <ele>202.014282</ele>
        <time>2011-05-27T12:46:21Z</time>
      </trkpt>
      <trkpt lat="47.07518" lon="5.49065">
        <ele>197.688232</ele>
        <time>2011-05-27T12:46:32Z</time>
      </trkpt>
      <trkpt lat="47.07518" lon="5.49066">
        <ele>198.649536</ele>
        <time>2011-05-27T12:46:41Z</time>
      </trkpt>
      <trkpt lat="47.07518" lon="5.49066">
        <ele>201.052856</ele>
        <time>2011-05-27T12:46:55Z</time>
      </trkpt>
      <trkpt lat="47.07515" lon="5.49066">
        <ele>199.61084</ele>
        <time>2011-05-27T12:47:05Z</time>
      </trkpt>
      <trkpt lat="47.07513" lon="5.49066">
        <ele>198.649536</ele>
        <time>2011-05-27T12:47:24Z</time>
      </trkpt>
      <trkpt lat="47.07511" lon="5.49067">
        <ele>199.61084</ele>
        <time>2011-05-27T12:47:47Z</time>
      </trkpt>
      <trkpt lat="47.07511" lon="5.49066">
        <ele>200.572266</ele>
        <time>2011-05-27T12:47:50Z</time>
      </trkpt>
      <trkpt lat="47.0751" lon="5.49065">
        <ele>202.014282</ele>
        <time>2011-05-27T12:47:59Z</time>
      </trkpt>
      <trkpt lat="47.07509" lon="5.49064">
        <ele>203.456177</ele>
        <time>2011-05-27T12:48:17Z</time>
      </trkpt>
      <trkpt lat="47.07511" lon="5.49064">
        <ele>202.975464</ele>
        <time>2011-05-27T12:48:23Z</time>
      </trkpt>
      <trkpt lat="47.07512" lon="5.49065">
        <ele>202.975464</ele>
        <time>2011-05-27T12:48:31Z</time>
      </trkpt>
      <trkpt lat="47.07513" lon="5.49067">
        <ele>201.533569</ele>
        <time>2011-05-27T12:48:39Z</time>
      </trkpt>
      <trkpt lat="47.07513" lon="5.4907">
        <ele>199.130127</ele>
        <time>2011-05-27T12:48:49Z</time>
      </trkpt>
      <trkpt lat="47.07513" lon="5.49072">
        <ele>195.284912</ele>
        <time>2011-05-27T12:49:01Z</time>
      </trkpt>
      <trkpt lat="47.07512" lon="5.49073">
        <ele>190.958984</ele>
        <time>2011-05-27T12:49:13Z</time>
      </trkpt>
      <trkpt lat="47.07511" lon="5.49076">
        <ele>183.749023</ele>
        <time>2011-05-27T12:49:32Z</time>
      </trkpt>
      <trkpt lat="47.07511" lon="5.49075">
        <ele>185.671753</ele>
        <time>2011-05-27T12:49:47Z</time>
      </trkpt>
      <trkpt lat="47.07513" lon="5.49076">
        <ele>186.633179</ele>
        <time>2011-05-27T12:50:01Z</time>
      </trkpt>
      <trkpt lat="47.07512" lon="5.49075">
        <ele>187.59436</ele>
        <time>2011-05-27T12:50:21Z</time>
      </trkpt>
      <trkpt lat="47.07514" lon="5.49072">
        <ele>198.649536</ele>
        <time>2011-05-27T12:50:52Z</time>
      </trkpt>
      <trkpt lat="47.07512" lon="5.49073">
        <ele>194.804321</ele>
        <time>2011-05-27T12:51:02Z</time>
      </trkpt>
      <trkpt lat="47.07514" lon="5.49075">
        <ele>189.997681</ele>
        <time>2011-05-27T12:51:14Z</time>
      </trkpt>
      <trkpt lat="47.0751" lon="5.49073">
        <ele>188.075073</ele>
        <time>2011-05-27T12:51:31Z</time>
      </trkpt>
      <trkpt lat="47.07513" lon="5.49075">
        <ele>189.516968</ele>
        <time>2011-05-27T12:51:50Z</time>
      </trkpt>
      <trkpt lat="47.07513" lon="5.49073">
        <ele>194.32373</ele>
        <time>2011-05-27T12:52:11Z</time>
      </trkpt>
      <trkpt lat="47.07514" lon="5.49074">
        <ele>194.32373</ele>
        <time>2011-05-27T12:52:32Z</time>
      </trkpt>
      <trkpt lat="47.07512" lon="5.49074">
        <ele>193.362305</ele>
        <time>2011-05-27T12:53:26Z</time>
      </trkpt>
      <trkpt lat="47.07513" lon="5.49073">
        <ele>194.804321</ele>
        <time>2011-05-27T12:53:43Z</time>
      </trkpt>
      <trkpt lat="47.07512" lon="5.49074">
        <ele>192.881714</ele>
        <time>2011-05-27T12:53:55Z</time>
      </trkpt>
      <trkpt lat="47.07513" lon="5.49071">
        <ele>195.284912</ele>
        <time>2011-05-27T12:54:08Z</time>
      </trkpt>
      <trkpt lat="47.07511" lon="5.49069">
        <ele>195.765625</ele>
        <time>2011-05-27T12:54:15Z</time>
      </trkpt>
      <trkpt lat="47.0751" lon="5.49068">
        <ele>195.765625</ele>
        <time>2011-05-27T12:54:23Z</time>
      </trkpt>
      <trkpt lat="47.07511" lon="5.49063">
        <ele>197.688232</ele>
        <time>2011-05-27T12:54:36Z</time>
      </trkpt>
      <trkpt lat="47.07511" lon="5.49066">
        <ele>191.439575</ele>
        <time>2011-05-27T12:54:56Z</time>
      </trkpt>
      <trkpt lat="47.07512" lon="5.49065">
        <ele>192.881714</ele>
        <time>2011-05-27T12:55:04Z</time>
      </trkpt>
      <trkpt lat="47.07516" lon="5.49055">
        <ele>200.572266</ele>
        <time>2011-05-27T12:55:43Z</time>
      </trkpt>
      <trkpt lat="47.07516" lon="5.49057">
        <ele>200.091675</ele>
        <time>2011-05-27T12:56:07Z</time>
      </trkpt>
      <trkpt lat="47.07516" lon="5.49058">
        <ele>202.014282</ele>
        <time>2011-05-27T12:56:36Z</time>
      </trkpt>
      <trkpt lat="47.07515" lon="5.4906">
        <ele>200.572266</ele>
        <time>2011-05-27T12:57:01Z</time>
      </trkpt>
      <trkpt lat="47.07516" lon="5.49062">
        <ele>201.052856</ele>
        <time>2011-05-27T12:57:03Z</time>
      </trkpt>
      <trkpt lat="47.07518" lon="5.49068">
        <ele>199.130127</ele>
        <time>2011-05-27T12:57:09Z</time>
      </trkpt>
      <trkpt lat="47.07518" lon="5.49071">
        <ele>200.572266</ele>
        <time>2011-05-27T12:57:12Z</time>
      </trkpt>
      <trkpt lat="47.07526" lon="5.49085">
        <ele>198.649536</ele>
        <time>2011-05-27T12:57:18Z</time>
      </trkpt>
      <trkpt lat="47.0754" lon="5.49104">
        <ele>198.649536</ele>
        <time>2011-05-27T12:57:23Z</time>
      </trkpt>
      <trkpt lat="47.07558" lon="5.49112">
        <ele>197.20752</ele>
        <time>2011-05-27T12:57:28Z</time>
      </trkpt>
      <trkpt lat="47.07577" lon="5.49109">
        <ele>198.649536</ele>
        <time>2011-05-27T12:57:33Z</time>
      </trkpt>
      <trkpt lat="47.07595" lon="5.49091">
        <ele>200.572266</ele>
        <time>2011-05-27T12:57:38Z</time>
      </trkpt>
      <trkpt lat="47.07618" lon="5.49056">
        <ele>203.93689</ele>
        <time>2011-05-27T12:57:46Z</time>
      </trkpt>
      <trkpt lat="47.0765" lon="5.49015">
        <ele>205.378784</ele>
        <time>2011-05-27T12:57:54Z</time>
      </trkpt>
      <trkpt lat="47.07672" lon="5.48992">
        <ele>205.378784</ele>
        <time>2011-05-27T12:57:59Z</time>
      </trkpt>
      <trkpt lat="47.07685" lon="5.4897">
        <ele>207.782104</ele>
        <time>2011-05-27T12:58:03Z</time>
      </trkpt>
      <trkpt lat="47.07695" lon="5.48929">
        <ele>206.820679</ele>
        <time>2011-05-27T12:58:09Z</time>
      </trkpt>
      <trkpt lat="47.07696" lon="5.48922">
        <ele>206.820679</ele>
        <time>2011-05-27T12:58:10Z</time>
      </trkpt>
      <trkpt lat="47.07714" lon="5.489">
        <ele>205.378784</ele>
        <time>2011-05-27T12:58:15Z</time>
      </trkpt>
      <trkpt lat="47.0773" lon="5.48901">
        <ele>203.456177</ele>
        <time>2011-05-27T12:58:19Z</time>
      </trkpt>
      <trkpt lat="47.07741" lon="5.48917">
        <ele>203.456177</ele>
        <time>2011-05-27T12:58:23Z</time>
      </trkpt>
      <trkpt lat="47.07741" lon="5.48937">
        <ele>202.494873</ele>
        <time>2011-05-27T12:58:27Z</time>
      </trkpt>
      <trkpt lat="47.07728" lon="5.48955">
        <ele>202.014282</ele>
        <time>2011-05-27T12:58:31Z</time>
      </trkpt>
      <trkpt lat="47.07684" lon="5.48998">
        <ele>204.41748</ele>
        <time>2011-05-27T12:58:41Z</time>
      </trkpt>
      <trkpt lat="47.07643" lon="5.49049">
        <ele>205.378784</ele>
        <time>2011-05-27T12:58:50Z</time>
      </trkpt>
      <trkpt lat="47.07611" lon="5.49098">
        <ele>205.378784</ele>
        <time>2011-05-27T12:58:58Z</time>
      </trkpt>
      <trkpt lat="47.07583" lon="5.4915">
        <ele>206.340088</ele>
        <time>2011-05-27T12:59:06Z</time>
      </trkpt>
      <trkpt lat="47.07553" lon="5.49211">
        <ele>208.262817</ele>
        <time>2011-05-27T12:59:15Z</time>
      </trkpt>
      <trkpt lat="47.07522" lon="5.49272">
        <ele>209.224121</ele>
        <time>2011-05-27T12:59:24Z</time>
      </trkpt>
      <trkpt lat="47.07501" lon="5.49313">
        <ele>210.185425</ele>
        <time>2011-05-27T12:59:31Z</time>
      </trkpt>
      <trkpt lat="47.07474" lon="5.49367">
        <ele>209.704834</ele>
        <time>2011-05-27T12:59:40Z</time>
      </trkpt>
      <trkpt lat="47.07461" lon="5.49393">
        <ele>209.224121</ele>
        <time>2011-05-27T12:59:46Z</time>
      </trkpt>
      <trkpt lat="47.07443" lon="5.49404">
        <ele>209.704834</ele>
        <time>2011-05-27T12:59:51Z</time>
      </trkpt>
      <trkpt lat="47.0743" lon="5.49405">
        <ele>210.666016</ele>
        <time>2011-05-27T12:59:54Z</time>
      </trkpt>
      <trkpt lat="47.07408" lon="5.49389">
        <ele>212.588623</ele>
        <time>2011-05-27T13:00:00Z</time>
      </trkpt>
      <trkpt lat="47.07389" lon="5.49369">
        <ele>213.550049</ele>
        <time>2011-05-27T13:00:07Z</time>
      </trkpt>
      <trkpt lat="47.07371" lon="5.49351">
        <ele>216.914673</ele>
        <time>2011-05-27T13:00:15Z</time>
      </trkpt>
      <trkpt lat="47.07355" lon="5.49336">
        <ele>221.240601</ele>
        <time>2011-05-27T13:00:20Z</time>
      </trkpt>
      <trkpt lat="47.07333" lon="5.4931">
        <ele>223.163208</ele>
        <time>2011-05-27T13:00:26Z</time>
      </trkpt>
      <trkpt lat="47.07304" lon="5.49267">
        <ele>224.124512</ele>
        <time>2011-05-27T13:00:34Z</time>
      </trkpt>
      <trkpt lat="47.07277" lon="5.49232">
        <ele>223.643799</ele>
        <time>2011-05-27T13:00:41Z</time>
      </trkpt>
      <trkpt lat="47.07244" lon="5.49187">
        <ele>223.643799</ele>
        <time>2011-05-27T13:00:49Z</time>
      </trkpt>
      <trkpt lat="47.0724" lon="5.49181">
        <ele>223.643799</ele>
        <time>2011-05-27T13:00:50Z</time>
      </trkpt>
      <trkpt lat="47.07225" lon="5.49143">
        <ele>220.279175</ele>
        <time>2011-05-27T13:00:55Z</time>
      </trkpt>
      <trkpt lat="47.07216" lon="5.49117">
        <ele>219.317993</ele>
        <time>2011-05-27T13:00:58Z</time>
      </trkpt>
      <trkpt lat="47.0719" lon="5.49046">
        <ele>217.875977</ele>
        <time>2011-05-27T13:01:06Z</time>
      </trkpt>
      <trkpt lat="47.07168" lon="5.48999">
        <ele>217.395386</ele>
        <time>2011-05-27T13:01:11Z</time>
      </trkpt>
      <trkpt lat="47.07137" lon="5.48946">
        <ele>217.395386</ele>
        <time>2011-05-27T13:01:17Z</time>
      </trkpt>
      <trkpt lat="47.07108" lon="5.48884">
        <ele>216.914673</ele>
        <time>2011-05-27T13:01:24Z</time>
      </trkpt>
      <trkpt lat="47.07077" lon="5.48826">
        <ele>217.875977</ele>
        <time>2011-05-27T13:01:31Z</time>
      </trkpt>
      <trkpt lat="47.07046" lon="5.48792">
        <ele>218.356567</ele>
        <time>2011-05-27T13:01:37Z</time>
      </trkpt>
      <trkpt lat="47.0701" lon="5.48755">
        <ele>219.317993</ele>
        <time>2011-05-27T13:01:44Z</time>
      </trkpt>
      <trkpt lat="47.06996" lon="5.48738">
        <ele>219.317993</ele>
        <time>2011-05-27T13:01:47Z</time>
      </trkpt>
      <trkpt lat="47.06976" lon="5.48707">
        <ele>216.914673</ele>
        <time>2011-05-27T13:01:52Z</time>
      </trkpt>
      <trkpt lat="47.06965" lon="5.48702">
        <ele>216.43396</ele>
        <time>2011-05-27T13:01:54Z</time>
      </trkpt>
      <trkpt lat="47.06933" lon="5.48694">
        <ele>217.395386</ele>
        <time>2011-05-27T13:02:00Z</time>
      </trkpt>
      <trkpt lat="47.06912" lon="5.48697">
        <ele>217.875977</ele>
        <time>2011-05-27T13:02:04Z</time>
      </trkpt>
      <trkpt lat="47.06885" lon="5.48713">
        <ele>218.83728</ele>
        <time>2011-05-27T13:02:09Z</time>
      </trkpt>
      <trkpt lat="47.06833" lon="5.48767">
        <ele>219.798584</ele>
        <time>2011-05-27T13:02:20Z</time>
      </trkpt>
      <trkpt lat="47.06789" lon="5.48812">
        <ele>219.798584</ele>
        <time>2011-05-27T13:02:29Z</time>
      </trkpt>
      <trkpt lat="47.06758" lon="5.48841">
        <ele>219.317993</ele>
        <time>2011-05-27T13:02:35Z</time>
      </trkpt>
      <trkpt lat="47.06737" lon="5.48848">
        <ele>218.83728</ele>
        <time>2011-05-27T13:02:39Z</time>
      </trkpt>
      <trkpt lat="47.06714" lon="5.48833">
        <ele>217.395386</ele>
        <time>2011-05-27T13:02:43Z</time>
      </trkpt>
      <trkpt lat="47.06709" lon="5.48826">
        <ele>217.875977</ele>
        <time>2011-05-27T13:02:44Z</time>
      </trkpt>
      <trkpt lat="47.06683" lon="5.48791">
        <ele>215.953247</ele>
        <time>2011-05-27T13:02:49Z</time>
      </trkpt>
      <trkpt lat="47.06656" lon="5.48746">
        <ele>214.51123</ele>
        <time>2011-05-27T13:02:54Z</time>
      </trkpt>
      <trkpt lat="47.06641" lon="5.48702">
        <ele>213.550049</ele>
        <time>2011-05-27T13:02:58Z</time>
      </trkpt>
      <trkpt lat="47.06642" lon="5.48657">
        <ele>213.550049</ele>
        <time>2011-05-27T13:03:02Z</time>
      </trkpt>
      <trkpt lat="47.06648" lon="5.48626">
        <ele>213.550049</ele>
        <time>2011-05-27T13:03:05Z</time>
      </trkpt>
      <trkpt lat="47.06661" lon="5.48571">
        <ele>214.991943</ele>
        <time>2011-05-27T13:03:11Z</time>
      </trkpt>
      <trkpt lat="47.06666" lon="5.48518">
        <ele>221.240601</ele>
        <time>2011-05-27T13:03:17Z</time>
      </trkpt>
      <trkpt lat="47.06667" lon="5.48493">
        <ele>223.163208</ele>
        <time>2011-05-27T13:03:20Z</time>
      </trkpt>
      <trkpt lat="47.06659" lon="5.4846">
        <ele>223.163208</ele>
        <time>2011-05-27T13:03:24Z</time>
      </trkpt>
      <trkpt lat="47.06643" lon="5.4845">
        <ele>222.682495</ele>
        <time>2011-05-27T13:03:27Z</time>
      </trkpt>
      <trkpt lat="47.06632" lon="5.48446">
        <ele>222.201782</ele>
        <time>2011-05-27T13:03:29Z</time>
      </trkpt>
      <trkpt lat="47.06603" lon="5.48439">
        <ele>220.759888</ele>
        <time>2011-05-27T13:03:34Z</time>
      </trkpt>
      <trkpt lat="47.0658" lon="5.48415">
        <ele>219.317993</ele>
        <time>2011-05-27T13:03:38Z</time>
      </trkpt>
      <trkpt lat="47.06569" lon="5.48389">
        <ele>219.798584</ele>
        <time>2011-05-27T13:03:41Z</time>
      </trkpt>
      <trkpt lat="47.06557" lon="5.48344">
        <ele>219.798584</ele>
        <time>2011-05-27T13:03:46Z</time>
      </trkpt>
      <trkpt lat="47.06544" lon="5.48311">
        <ele>219.317993</ele>
        <time>2011-05-27T13:03:50Z</time>
      </trkpt>
      <trkpt lat="47.06506" lon="5.48274">
        <ele>218.356567</ele>
        <time>2011-05-27T13:03:57Z</time>
      </trkpt>
      <trkpt lat="47.06471" lon="5.48265">
        <ele>218.356567</ele>
        <time>2011-05-27T13:04:03Z</time>
      </trkpt>
      <trkpt lat="47.06428" lon="5.48254">
        <ele>216.914673</ele>
        <time>2011-05-27T13:04:10Z</time>
      </trkpt>
      <trkpt lat="47.06368" lon="5.48225">
        <ele>213.550049</ele>
        <time>2011-05-27T13:04:19Z</time>
      </trkpt>
      <trkpt lat="47.0632" lon="5.4821">
        <ele>211.627441</ele>
        <time>2011-05-27T13:04:25Z</time>
      </trkpt>
      <trkpt lat="47.0628" lon="5.48206">
        <ele>210.185425</ele>
        <time>2011-05-27T13:04:30Z</time>
      </trkpt>
      <trkpt lat="47.06235" lon="5.48209">
        <ele>209.224121</ele>
        <time>2011-05-27T13:04:36Z</time>
      </trkpt>
      <trkpt lat="47.06194" lon="5.48228">
        <ele>207.301392</ele>
        <time>2011-05-27T13:04:42Z</time>
      </trkpt>
      <trkpt lat="47.06153" lon="5.48252">
        <ele>207.782104</ele>
        <time>2011-05-27T13:04:49Z</time>
      </trkpt>
      <trkpt lat="47.06116" lon="5.48276">
        <ele>206.820679</ele>
        <time>2011-05-27T13:04:55Z</time>
      </trkpt>
      <trkpt lat="47.06069" lon="5.48292">
        <ele>206.820679</ele>
        <time>2011-05-27T13:05:02Z</time>
      </trkpt>
      <trkpt lat="47.06026" lon="5.48297">
        <ele>206.340088</ele>
        <time>2011-05-27T13:05:08Z</time>
      </trkpt>
      <trkpt lat="47.05965" lon="5.483">
        <ele>206.340088</ele>
        <time>2011-05-27T13:05:17Z</time>
      </trkpt>
      <trkpt lat="47.05945" lon="5.48304">
        <ele>206.340088</ele>
        <time>2011-05-27T13:05:20Z</time>
      </trkpt>
      <trkpt lat="47.05895" lon="5.48331">
        <ele>206.340088</ele>
        <time>2011-05-27T13:05:28Z</time>
      </trkpt>
      <trkpt lat="47.0583" lon="5.48369">
        <ele>206.340088</ele>
        <time>2011-05-27T13:05:39Z</time>
      </trkpt>
      <trkpt lat="47.05776" lon="5.48398">
        <ele>205.859497</ele>
        <time>2011-05-27T13:05:48Z</time>
      </trkpt>
      <trkpt lat="47.05752" lon="5.48398">
        <ele>205.378784</ele>
        <time>2011-05-27T13:05:52Z</time>
      </trkpt>
      <trkpt lat="47.05737" lon="5.4838">
        <ele>205.378784</ele>
        <time>2011-05-27T13:05:55Z</time>
      </trkpt>
      <trkpt lat="47.05709" lon="5.48325">
        <ele>205.378784</ele>
        <time>2011-05-27T13:06:02Z</time>
      </trkpt>
      <trkpt lat="47.057" lon="5.48312">
        <ele>205.859497</ele>
        <time>2011-05-27T13:06:04Z</time>
      </trkpt>
      <trkpt lat="47.05663" lon="5.48286">
        <ele>205.859497</ele>
        <time>2011-05-27T13:06:10Z</time>
      </trkpt>
      <trkpt lat="47.05622" lon="5.48274">
        <ele>206.340088</ele>
        <time>2011-05-27T13:06:16Z</time>
      </trkpt>
      <trkpt lat="47.05579" lon="5.48278">
        <ele>206.820679</ele>
        <time>2011-05-27T13:06:22Z</time>
      </trkpt>
      <trkpt lat="47.05521" lon="5.48296">
        <ele>205.859497</ele>
        <time>2011-05-27T13:06:31Z</time>
      </trkpt>
      <trkpt lat="47.0547" lon="5.48319">
        <ele>204.898071</ele>
        <time>2011-05-27T13:06:39Z</time>
      </trkpt>
      <trkpt lat="47.05463" lon="5.48322">
        <ele>203.93689</ele>
        <time>2011-05-27T13:06:40Z</time>
      </trkpt>
      <trkpt lat="47.05413" lon="5.48332">
        <ele>203.456177</ele>
        <time>2011-05-27T13:06:47Z</time>
      </trkpt>
      <trkpt lat="47.05368" lon="5.48328">
        <ele>202.975464</ele>
        <time>2011-05-27T13:06:53Z</time>
      </trkpt>
      <trkpt lat="47.0532" lon="5.48309">
        <ele>202.494873</ele>
        <time>2011-05-27T13:07:00Z</time>
      </trkpt>
      <trkpt lat="47.0528" lon="5.48289">
        <ele>202.975464</ele>
        <time>2011-05-27T13:07:06Z</time>
      </trkpt>
      <trkpt lat="47.05241" lon="5.48255">
        <ele>202.014282</ele>
        <time>2011-05-27T13:07:13Z</time>
      </trkpt>
      <trkpt lat="47.05215" lon="5.48227">
        <ele>202.014282</ele>
        <time>2011-05-27T13:07:19Z</time>
      </trkpt>
      <trkpt lat="47.05179" lon="5.4818">
        <ele>203.456177</ele>
        <time>2011-05-27T13:07:27Z</time>
      </trkpt>
      <trkpt lat="47.05138" lon="5.48114">
        <ele>204.41748</ele>
        <time>2011-05-27T13:07:36Z</time>
      </trkpt>
      <trkpt lat="47.05111" lon="5.48061">
        <ele>204.898071</ele>
        <time>2011-05-27T13:07:43Z</time>
      </trkpt>
      <trkpt lat="47.0509" lon="5.48005">
        <ele>205.859497</ele>
        <time>2011-05-27T13:07:51Z</time>
      </trkpt>
      <trkpt lat="47.05083" lon="5.47985">
        <ele>206.340088</ele>
        <time>2011-05-27T13:07:54Z</time>
      </trkpt>
      <trkpt lat="47.05066" lon="5.47961">
        <ele>206.820679</ele>
        <time>2011-05-27T13:07:58Z</time>
      </trkpt>
      <trkpt lat="47.05011" lon="5.47914">
        <ele>206.820679</ele>
        <time>2011-05-27T13:08:07Z</time>
      </trkpt>
      <trkpt lat="47.04966" lon="5.47874">
        <ele>207.301392</ele>
        <time>2011-05-27T13:08:15Z</time>
      </trkpt>
      <trkpt lat="47.04913" lon="5.47833">
        <ele>207.782104</ele>
        <time>2011-05-27T13:08:24Z</time>
      </trkpt>
      <trkpt lat="47.04868" lon="5.47814">
        <ele>208.262817</ele>
        <time>2011-05-27T13:08:31Z</time>
      </trkpt>
      <trkpt lat="47.04792" lon="5.47792">
        <ele>207.782104</ele>
        <time>2011-05-27T13:08:43Z</time>
      </trkpt>
      <trkpt lat="47.04735" lon="5.47774">
        <ele>207.301392</ele>
        <time>2011-05-27T13:08:52Z</time>
      </trkpt>
      <trkpt lat="47.04687" lon="5.47744">
        <ele>206.820679</ele>
        <time>2011-05-27T13:09:00Z</time>
      </trkpt>
      <trkpt lat="47.04636" lon="5.477">
        <ele>206.820679</ele>
        <time>2011-05-27T13:09:09Z</time>
      </trkpt>
      <trkpt lat="47.04575" lon="5.47632">
        <ele>207.301392</ele>
        <time>2011-05-27T13:09:21Z</time>
      </trkpt>
      <trkpt lat="47.04529" lon="5.47577">
        <ele>207.782104</ele>
        <time>2011-05-27T13:09:30Z</time>
      </trkpt>
      <trkpt lat="47.04479" lon="5.47513">
        <ele>207.782104</ele>
        <time>2011-05-27T13:09:40Z</time>
      </trkpt>
      <trkpt lat="47.04435" lon="5.47465">
        <ele>208.262817</ele>
        <time>2011-05-27T13:09:48Z</time>
      </trkpt>
      <trkpt lat="47.04395" lon="5.47433">
        <ele>208.262817</ele>
        <time>2011-05-27T13:09:55Z</time>
      </trkpt>
      <trkpt lat="47.04349" lon="5.47398">
        <ele>207.301392</ele>
        <time>2011-05-27T13:10:03Z</time>
      </trkpt>
      <trkpt lat="47.04307" lon="5.47368">
        <ele>207.782104</ele>
        <time>2011-05-27T13:10:11Z</time>
      </trkpt>
      <trkpt lat="47.04289" lon="5.47353">
        <ele>207.782104</ele>
        <time>2011-05-27T13:10:15Z</time>
      </trkpt>
      <trkpt lat="47.04279" lon="5.47329">
        <ele>208.262817</ele>
        <time>2011-05-27T13:10:19Z</time>
      </trkpt>
      <trkpt lat="47.0428" lon="5.47322">
        <ele>208.262817</ele>
        <time>2011-05-27T13:10:20Z</time>
      </trkpt>
      <trkpt lat="47.04297" lon="5.47266">
        <ele>207.782104</ele>
        <time>2011-05-27T13:10:29Z</time>
      </trkpt>
      <trkpt lat="47.04303" lon="5.47219">
        <ele>206.820679</ele>
        <time>2011-05-27T13:10:35Z</time>
      </trkpt>
      <trkpt lat="47.04303" lon="5.47196">
        <ele>206.340088</ele>
        <time>2011-05-27T13:10:38Z</time>
      </trkpt>
      <trkpt lat="47.04311" lon="5.47167">
        <ele>205.378784</ele>
        <time>2011-05-27T13:10:42Z</time>
      </trkpt>
      <trkpt lat="47.04325" lon="5.47155">
        <ele>205.378784</ele>
        <time>2011-05-27T13:10:45Z</time>
      </trkpt>
      <trkpt lat="47.04337" lon="5.47151">
        <ele>204.898071</ele>
        <time>2011-05-27T13:10:47Z</time>
      </trkpt>
      <trkpt lat="47.04376" lon="5.47146">
        <ele>204.898071</ele>
        <time>2011-05-27T13:10:53Z</time>
      </trkpt>
      <trkpt lat="47.04382" lon="5.47145">
        <ele>204.898071</ele>
        <time>2011-05-27T13:10:54Z</time>
      </trkpt>
      <trkpt lat="47.04432" lon="5.47132">
        <ele>204.898071</ele>
        <time>2011-05-27T13:11:02Z</time>
      </trkpt>
      <trkpt lat="47.04467" lon="5.47122">
        <ele>204.41748</ele>
        <time>2011-05-27T13:11:09Z</time>
      </trkpt>
      <trkpt lat="47.04498" lon="5.47113">
        <ele>203.93689</ele>
        <time>2011-05-27T13:11:16Z</time>
      </trkpt>
      <trkpt lat="47.04528" lon="5.47103">
        <ele>203.456177</ele>
        <time>2011-05-27T13:11:22Z</time>
      </trkpt>
      <trkpt lat="47.04582" lon="5.47094">
        <ele>205.859497</ele>
        <time>2011-05-27T13:11:31Z</time>
      </trkpt>
      <trkpt lat="47.04634" lon="5.47085">
        <ele>208.743408</ele>
        <time>2011-05-27T13:11:39Z</time>
      </trkpt>
      <trkpt lat="47.04675" lon="5.4707">
        <ele>210.185425</ele>
        <time>2011-05-27T13:11:46Z</time>
      </trkpt>
      <trkpt lat="47.04713" lon="5.47055">
        <ele>211.627441</ele>
        <time>2011-05-27T13:11:52Z</time>
      </trkpt>
      <trkpt lat="47.04743" lon="5.47043">
        <ele>214.51123</ele>
        <time>2011-05-27T13:11:57Z</time>
      </trkpt>
      <trkpt lat="47.04778" lon="5.47033">
        <ele>214.51123</ele>
        <time>2011-05-27T13:12:03Z</time>
      </trkpt>
      <trkpt lat="47.04836" lon="5.47013">
        <ele>214.03064</ele>
        <time>2011-05-27T13:12:13Z</time>
      </trkpt>
      <trkpt lat="47.04899" lon="5.46992">
        <ele>214.03064</ele>
        <time>2011-05-27T13:12:24Z</time>
      </trkpt>
      <trkpt lat="47.04962" lon="5.46966">
        <ele>213.550049</ele>
        <time>2011-05-27T13:12:35Z</time>
      </trkpt>
      <trkpt lat="47.04995" lon="5.46932">
        <ele>213.550049</ele>
        <time>2011-05-27T13:12:42Z</time>
      </trkpt>
      <trkpt lat="47.05043" lon="5.46872">
        <ele>214.51123</ele>
        <time>2011-05-27T13:12:53Z</time>
      </trkpt>
      <trkpt lat="47.05085" lon="5.46821">
        <ele>214.991943</ele>
        <time>2011-05-27T13:13:03Z</time>
      </trkpt>
      <trkpt lat="47.05098" lon="5.46806">
        <ele>214.991943</ele>
        <time>2011-05-27T13:13:06Z</time>
      </trkpt>
      <trkpt lat="47.0515" lon="5.46742">
        <ele>214.991943</ele>
        <time>2011-05-27T13:13:18Z</time>
      </trkpt>
      <trkpt lat="47.05199" lon="5.46682">
        <ele>215.953247</ele>
        <time>2011-05-27T13:13:29Z</time>
      </trkpt>
      <trkpt lat="47.05253" lon="5.46622">
        <ele>216.43396</ele>
        <time>2011-05-27T13:13:40Z</time>
      </trkpt>
      <trkpt lat="47.05302" lon="5.46574">
        <ele>216.914673</ele>
        <time>2011-05-27T13:13:50Z</time>
      </trkpt>
      <trkpt lat="47.05352" lon="5.46531">
        <ele>218.83728</ele>
        <time>2011-05-27T13:14:00Z</time>
      </trkpt>
      <trkpt lat="47.05388" lon="5.46502">
        <ele>218.83728</ele>
        <time>2011-05-27T13:14:08Z</time>
      </trkpt>
      <trkpt lat="47.05406" lon="5.46488">
        <ele>217.395386</ele>
        <time>2011-05-27T13:14:13Z</time>
      </trkpt>
      <trkpt lat="47.05408" lon="5.46486">
        <ele>217.395386</ele>
        <time>2011-05-27T13:14:14Z</time>
      </trkpt>
      <trkpt lat="47.05413" lon="5.4648">
        <ele>216.914673</ele>
        <time>2011-05-27T13:14:20Z</time>
      </trkpt>
      <trkpt lat="47.05417" lon="5.46476">
        <ele>216.914673</ele>
        <time>2011-05-27T13:14:28Z</time>
      </trkpt>
      <trkpt lat="47.05426" lon="5.46463">
        <ele>216.914673</ele>
        <time>2011-05-27T13:14:34Z</time>
      </trkpt>
      <trkpt lat="47.05445" lon="5.46444">
        <ele>217.395386</ele>
        <time>2011-05-27T13:14:40Z</time>
      </trkpt>
      <trkpt lat="47.05476" lon="5.46412">
        <ele>219.317993</ele>
        <time>2011-05-27T13:14:48Z</time>
      </trkpt>
      <trkpt lat="47.0551" lon="5.46377">
        <ele>220.279175</ele>
        <time>2011-05-27T13:14:56Z</time>
      </trkpt>
      <trkpt lat="47.05529" lon="5.46359">
        <ele>220.759888</ele>
        <time>2011-05-27T13:15:00Z</time>
      </trkpt>
      <trkpt lat="47.05544" lon="5.46345">
        <ele>221.240601</ele>
        <time>2011-05-27T13:15:03Z</time>
      </trkpt>
      <trkpt lat="47.05568" lon="5.46331">
        <ele>221.721191</ele>
        <time>2011-05-27T13:15:07Z</time>
      </trkpt>
      <trkpt lat="47.05595" lon="5.46323">
        <ele>221.240601</ele>
        <time>2011-05-27T13:15:11Z</time>
      </trkpt>
      <trkpt lat="47.05645" lon="5.46329">
        <ele>222.201782</ele>
        <time>2011-05-27T13:15:18Z</time>
      </trkpt>
      <trkpt lat="47.05704" lon="5.46338">
        <ele>219.317993</ele>
        <time>2011-05-27T13:15:27Z</time>
      </trkpt>
      <trkpt lat="47.05766" lon="5.46348">
        <ele>216.43396</ele>
        <time>2011-05-27T13:15:37Z</time>
      </trkpt>
      <trkpt lat="47.05807" lon="5.46355">
        <ele>216.43396</ele>
        <time>2011-05-27T13:15:44Z</time>
      </trkpt>
      <trkpt lat="47.05832" lon="5.46358">
        <ele>215.953247</ele>
        <time>2011-05-27T13:15:48Z</time>
      </trkpt>
      <trkpt lat="47.05857" lon="5.46352">
        <ele>215.953247</ele>
        <time>2011-05-27T13:15:52Z</time>
      </trkpt>
      <trkpt lat="47.05903" lon="5.46317">
        <ele>215.472656</ele>
        <time>2011-05-27T13:16:00Z</time>
      </trkpt>
      <trkpt lat="47.05956" lon="5.46273">
        <ele>217.875977</ele>
        <time>2011-05-27T13:16:09Z</time>
      </trkpt>
      <trkpt lat="47.0599" lon="5.46247">
        <ele>219.317993</ele>
        <time>2011-05-27T13:16:15Z</time>
      </trkpt>
      <trkpt lat="47.06026" lon="5.4622">
        <ele>218.356567</ele>
        <time>2011-05-27T13:16:22Z</time>
      </trkpt>
      <trkpt lat="47.06059" lon="5.4619">
        <ele>218.83728</ele>
        <time>2011-05-27T13:16:29Z</time>
      </trkpt>
      <trkpt lat="47.06081" lon="5.46151">
        <ele>220.759888</ele>
        <time>2011-05-27T13:16:36Z</time>
      </trkpt>
      <trkpt lat="47.06088" lon="5.46132">
        <ele>218.83728</ele>
        <time>2011-05-27T13:16:40Z</time>
      </trkpt>
      <trkpt lat="47.06096" lon="5.46104">
        <ele>217.395386</ele>
        <time>2011-05-27T13:16:49Z</time>
      </trkpt>
      <trkpt lat="47.0609" lon="5.46094">
        <ele>214.991943</ele>
        <time>2011-05-27T13:16:53Z</time>
      </trkpt>
      <trkpt lat="47.06071" lon="5.46074">
        <ele>212.588623</ele>
        <time>2011-05-27T13:16:57Z</time>
      </trkpt>
      <trkpt lat="47.06066" lon="5.46061">
        <ele>212.108032</ele>
        <time>2011-05-27T13:16:58Z</time>
      </trkpt>
      <trkpt lat="47.06048" lon="5.46026">
        <ele>209.224121</ele>
        <time>2011-05-27T13:17:02Z</time>
      </trkpt>
      <trkpt lat="47.06022" lon="5.45953">
        <ele>208.262817</ele>
        <time>2011-05-27T13:17:10Z</time>
      </trkpt>
      <trkpt lat="47.05998" lon="5.45873">
        <ele>207.782104</ele>
        <time>2011-05-27T13:17:18Z</time>
      </trkpt>
      <trkpt lat="47.05977" lon="5.45805">
        <ele>207.782104</ele>
        <time>2011-05-27T13:17:25Z</time>
      </trkpt>
      <trkpt lat="47.05958" lon="5.45748">
        <ele>206.340088</ele>
        <time>2011-05-27T13:17:32Z</time>
      </trkpt>
      <trkpt lat="47.05936" lon="5.45678">
        <ele>204.41748</ele>
        <time>2011-05-27T13:17:41Z</time>
      </trkpt>
      <trkpt lat="47.05915" lon="5.45612">
        <ele>205.378784</ele>
        <time>2011-05-27T13:17:49Z</time>
      </trkpt>
      <trkpt lat="47.05892" lon="5.45544">
        <ele>206.340088</ele>
        <time>2011-05-27T13:17:57Z</time>
      </trkpt>
      <trkpt lat="47.05868" lon="5.45472">
        <ele>207.782104</ele>
        <time>2011-05-27T13:18:06Z</time>
      </trkpt>
      <trkpt lat="47.05866" lon="5.45462">
        <ele>208.262817</ele>
        <time>2011-05-27T13:18:07Z</time>
      </trkpt>
      <trkpt lat="47.05849" lon="5.45425">
        <ele>211.627441</ele>
        <time>2011-05-27T13:18:12Z</time>
      </trkpt>
      <trkpt lat="47.05832" lon="5.4536">
        <ele>210.185425</ele>
        <time>2011-05-27T13:18:19Z</time>
      </trkpt>
      <trkpt lat="47.05815" lon="5.45306">
        <ele>211.146729</ele>
        <time>2011-05-27T13:18:25Z</time>
      </trkpt>
      <trkpt lat="47.05793" lon="5.45238">
        <ele>211.146729</ele>
        <time>2011-05-27T13:18:33Z</time>
      </trkpt>
      <trkpt lat="47.05772" lon="5.45171">
        <ele>209.224121</ele>
        <time>2011-05-27T13:18:41Z</time>
      </trkpt>
      <trkpt lat="47.05752" lon="5.45104">
        <ele>206.340088</ele>
        <time>2011-05-27T13:18:49Z</time>
      </trkpt>
      <trkpt lat="47.05732" lon="5.45037">
        <ele>204.41748</ele>
        <time>2011-05-27T13:18:57Z</time>
      </trkpt>
      <trkpt lat="47.05718" lon="5.44987">
        <ele>202.014282</ele>
        <time>2011-05-27T13:19:03Z</time>
      </trkpt>
      <trkpt lat="47.05691" lon="5.44902">
        <ele>200.572266</ele>
        <time>2011-05-27T13:19:13Z</time>
      </trkpt>
      <trkpt lat="47.05662" lon="5.44811">
        <ele>198.649536</ele>
        <time>2011-05-27T13:19:24Z</time>
      </trkpt>
      <trkpt lat="47.05641" lon="5.44745">
        <ele>197.688232</ele>
        <time>2011-05-27T13:19:32Z</time>
      </trkpt>
      <trkpt lat="47.05613" lon="5.44651">
        <ele>197.688232</ele>
        <time>2011-05-27T13:19:43Z</time>
      </trkpt>
      <trkpt lat="47.0559" lon="5.44575">
        <ele>197.20752</ele>
        <time>2011-05-27T13:19:52Z</time>
      </trkpt>
      <trkpt lat="47.05566" lon="5.445">
        <ele>196.726929</ele>
        <time>2011-05-27T13:20:01Z</time>
      </trkpt>
      <trkpt lat="47.05546" lon="5.44433">
        <ele>196.246338</ele>
        <time>2011-05-27T13:20:09Z</time>
      </trkpt>
      <trkpt lat="47.05546" lon="5.44386">
        <ele>199.61084</ele>
        <time>2011-05-27T13:20:14Z</time>
      </trkpt>
      <trkpt lat="47.0555" lon="5.44367">
        <ele>200.091675</ele>
        <time>2011-05-27T13:20:16Z</time>
      </trkpt>
      <trkpt lat="47.05569" lon="5.44329">
        <ele>201.052856</ele>
        <time>2011-05-27T13:20:21Z</time>
      </trkpt>
      <trkpt lat="47.05599" lon="5.44288">
        <ele>204.41748</ele>
        <time>2011-05-27T13:20:28Z</time>
      </trkpt>
      <trkpt lat="47.05608" lon="5.4428">
        <ele>204.898071</ele>
        <time>2011-05-27T13:20:30Z</time>
      </trkpt>
      <trkpt lat="47.0562" lon="5.44267">
        <ele>207.301392</ele>
        <time>2011-05-27T13:20:33Z</time>
      </trkpt>
      <trkpt lat="47.05629" lon="5.44245">
        <ele>208.743408</ele>
        <time>2011-05-27T13:20:37Z</time>
      </trkpt>
      <trkpt lat="47.05635" lon="5.44231">
        <ele>207.782104</ele>
        <time>2011-05-27T13:20:39Z</time>
      </trkpt>
      <trkpt lat="47.05643" lon="5.44217">
        <ele>207.782104</ele>
        <time>2011-05-27T13:20:41Z</time>
      </trkpt>
      <trkpt lat="47.05654" lon="5.44202">
        <ele>206.820679</ele>
        <time>2011-05-27T13:20:43Z</time>
      </trkpt>
      <trkpt lat="47.05676" lon="5.44198">
        <ele>207.301392</ele>
        <time>2011-05-27T13:20:47Z</time>
      </trkpt>
      <trkpt lat="47.0568" lon="5.44194">
        <ele>207.301392</ele>
        <time>2011-05-27T13:20:48Z</time>
      </trkpt>
      <trkpt lat="47.05727" lon="5.44136">
        <ele>208.262817</ele>
        <time>2011-05-27T13:20:58Z</time>
      </trkpt>
      <trkpt lat="47.05789" lon="5.44054">
        <ele>209.224121</ele>
        <time>2011-05-27T13:21:12Z</time>
      </trkpt>
      <trkpt lat="47.05849" lon="5.43977">
        <ele>209.704834</ele>
        <time>2011-05-27T13:21:25Z</time>
      </trkpt>
      <trkpt lat="47.05882" lon="5.43926">
        <ele>209.704834</ele>
        <time>2011-05-27T13:21:33Z</time>
      </trkpt>
      <trkpt lat="47.05909" lon="5.43888">
        <ele>210.185425</ele>
        <time>2011-05-27T13:21:39Z</time>
      </trkpt>
      <trkpt lat="47.0595" lon="5.43832">
        <ele>211.627441</ele>
        <time>2011-05-27T13:21:48Z</time>
      </trkpt>
      <trkpt lat="47.05966" lon="5.43786">
        <ele>212.108032</ele>
        <time>2011-05-27T13:21:54Z</time>
      </trkpt>
      <trkpt lat="47.05974" lon="5.43751">
        <ele>212.588623</ele>
        <time>2011-05-27T13:21:59Z</time>
      </trkpt>
      <trkpt lat="47.05987" lon="5.43718">
        <ele>211.146729</ele>
        <time>2011-05-27T13:22:02Z</time>
      </trkpt>
      <trkpt lat="47.05991" lon="5.4368">
        <ele>213.550049</ele>
        <time>2011-05-27T13:22:06Z</time>
      </trkpt>
      <trkpt lat="47.0598" lon="5.43653">
        <ele>212.108032</ele>
        <time>2011-05-27T13:22:11Z</time>
      </trkpt>
      <trkpt lat="47.05975" lon="5.43606">
        <ele>210.185425</ele>
        <time>2011-05-27T13:22:18Z</time>
      </trkpt>
      <trkpt lat="47.05973" lon="5.43523">
        <ele>208.743408</ele>
        <time>2011-05-27T13:22:28Z</time>
      </trkpt>
      <trkpt lat="47.05972" lon="5.43435">
        <ele>209.224121</ele>
        <time>2011-05-27T13:22:38Z</time>
      </trkpt>
      <trkpt lat="47.0597" lon="5.43337">
        <ele>208.743408</ele>
        <time>2011-05-27T13:22:49Z</time>
      </trkpt>
      <trkpt lat="47.05968" lon="5.43257">
        <ele>209.704834</ele>
        <time>2011-05-27T13:22:58Z</time>
      </trkpt>
      <trkpt lat="47.05968" lon="5.43186">
        <ele>209.704834</ele>
        <time>2011-05-27T13:23:06Z</time>
      </trkpt>
      <trkpt lat="47.05968" lon="5.43115">
        <ele>208.743408</ele>
        <time>2011-05-27T13:23:14Z</time>
      </trkpt>
      <trkpt lat="47.05968" lon="5.43046">
        <ele>209.704834</ele>
        <time>2011-05-27T13:23:22Z</time>
      </trkpt>
      <trkpt lat="47.05967" lon="5.42999">
        <ele>210.666016</ele>
        <time>2011-05-27T13:23:28Z</time>
      </trkpt>
      <trkpt lat="47.0596" lon="5.42973">
        <ele>211.146729</ele>
        <time>2011-05-27T13:23:32Z</time>
      </trkpt>
      <trkpt lat="47.05957" lon="5.4296">
        <ele>211.146729</ele>
        <time>2011-05-27T13:23:34Z</time>
      </trkpt>
      <trkpt lat="47.05958" lon="5.42942">
        <ele>211.627441</ele>
        <time>2011-05-27T13:23:37Z</time>
      </trkpt>
      <trkpt lat="47.05963" lon="5.42916">
        <ele>211.627441</ele>
        <time>2011-05-27T13:23:41Z</time>
      </trkpt>
      <trkpt lat="47.05965" lon="5.42865">
        <ele>210.666016</ele>
        <time>2011-05-27T13:23:48Z</time>
      </trkpt>
      <trkpt lat="47.05966" lon="5.42787">
        <ele>210.666016</ele>
        <time>2011-05-27T13:23:58Z</time>
      </trkpt>
      <trkpt lat="47.05967" lon="5.42718">
        <ele>209.704834</ele>
        <time>2011-05-27T13:24:07Z</time>
      </trkpt>
      <trkpt lat="47.05968" lon="5.42696">
        <ele>211.146729</ele>
        <time>2011-05-27T13:24:10Z</time>
      </trkpt>
      <trkpt lat="47.05974" lon="5.42683">
        <ele>211.146729</ele>
        <time>2011-05-27T13:24:15Z</time>
      </trkpt>
      <trkpt lat="47.05977" lon="5.42683">
        <ele>210.666016</ele>
        <time>2011-05-27T13:24:16Z</time>
      </trkpt>
      <trkpt lat="47.06004" lon="5.42682">
        <ele>211.146729</ele>
        <time>2011-05-27T13:24:22Z</time>
      </trkpt>
      <trkpt lat="47.06036" lon="5.4268">
        <ele>210.666016</ele>
        <time>2011-05-27T13:24:27Z</time>
      </trkpt>
      <trkpt lat="47.06087" lon="5.42679">
        <ele>213.550049</ele>
        <time>2011-05-27T13:24:35Z</time>
      </trkpt>
      <trkpt lat="47.06129" lon="5.42681">
        <ele>212.108032</ele>
        <time>2011-05-27T13:24:42Z</time>
      </trkpt>
      <trkpt lat="47.06178" lon="5.4268">
        <ele>212.588623</ele>
        <time>2011-05-27T13:24:50Z</time>
      </trkpt>
      <trkpt lat="47.0623" lon="5.4268">
        <ele>212.108032</ele>
        <time>2011-05-27T13:24:59Z</time>
      </trkpt>
      <trkpt lat="47.06255" lon="5.42681">
        <ele>212.108032</ele>
        <time>2011-05-27T13:25:04Z</time>
      </trkpt>
      <trkpt lat="47.0628" lon="5.42677">
        <ele>212.108032</ele>
        <time>2011-05-27T13:25:10Z</time>
      </trkpt>
      <trkpt lat="47.06286" lon="5.42657">
        <ele>211.627441</ele>
        <time>2011-05-27T13:25:13Z</time>
      </trkpt>
      <trkpt lat="47.06283" lon="5.42642">
        <ele>211.627441</ele>
        <time>2011-05-27T13:25:15Z</time>
      </trkpt>
      <trkpt lat="47.06262" lon="5.42572">
        <ele>210.666016</ele>
        <time>2011-05-27T13:25:24Z</time>
      </trkpt>
      <trkpt lat="47.06241" lon="5.425">
        <ele>209.224121</ele>
        <time>2011-05-27T13:25:33Z</time>
      </trkpt>
      <trkpt lat="47.06234" lon="5.42477">
        <ele>209.224121</ele>
        <time>2011-05-27T13:25:36Z</time>
      </trkpt>
      <trkpt lat="47.06218" lon="5.42419">
        <ele>209.704834</ele>
        <time>2011-05-27T13:25:43Z</time>
      </trkpt>
      <trkpt lat="47.06201" lon="5.42353">
        <ele>208.743408</ele>
        <time>2011-05-27T13:25:51Z</time>
      </trkpt>
      <trkpt lat="47.06184" lon="5.42291">
        <ele>209.704834</ele>
        <time>2011-05-27T13:25:59Z</time>
      </trkpt>
      <trkpt lat="47.06176" lon="5.42235">
        <ele>211.146729</ele>
        <time>2011-05-27T13:26:06Z</time>
      </trkpt>
      <trkpt lat="47.06177" lon="5.42169">
        <ele>211.146729</ele>
        <time>2011-05-27T13:26:14Z</time>
      </trkpt>
      <trkpt lat="47.06178" lon="5.42117">
        <ele>211.627441</ele>
        <time>2011-05-27T13:26:20Z</time>
      </trkpt>
      <trkpt lat="47.0618" lon="5.4205">
        <ele>211.627441</ele>
        <time>2011-05-27T13:26:28Z</time>
      </trkpt>
      <trkpt lat="47.06181" lon="5.42026">
        <ele>212.588623</ele>
        <time>2011-05-27T13:26:31Z</time>
      </trkpt>
      <trkpt lat="47.06191" lon="5.41958">
        <ele>213.550049</ele>
        <time>2011-05-27T13:26:40Z</time>
      </trkpt>
      <trkpt lat="47.06203" lon="5.419">
        <ele>216.43396</ele>
        <time>2011-05-27T13:26:48Z</time>
      </trkpt>
      <trkpt lat="47.06206" lon="5.41886">
        <ele>216.43396</ele>
        <time>2011-05-27T13:26:50Z</time>
      </trkpt>
      <trkpt lat="47.06213" lon="5.41838">
        <ele>216.914673</ele>
        <time>2011-05-27T13:26:56Z</time>
      </trkpt>
      <trkpt lat="47.06225" lon="5.41779">
        <ele>218.356567</ele>
        <time>2011-05-27T13:27:03Z</time>
      </trkpt>
      <trkpt lat="47.06236" lon="5.41729">
        <ele>218.356567</ele>
        <time>2011-05-27T13:27:09Z</time>
      </trkpt>
      <trkpt lat="47.06252" lon="5.4168">
        <ele>216.914673</ele>
        <time>2011-05-27T13:27:15Z</time>
      </trkpt>
      <trkpt lat="47.06271" lon="5.41627">
        <ele>213.550049</ele>
        <time>2011-05-27T13:27:22Z</time>
      </trkpt>
      <trkpt lat="47.06283" lon="5.41594">
        <ele>213.550049</ele>
        <time>2011-05-27T13:27:28Z</time>
      </trkpt>
      <trkpt lat="47.06293" lon="5.41583">
        <ele>214.51123</ele>
        <time>2011-05-27T13:27:33Z</time>
      </trkpt>
      <trkpt lat="47.06301" lon="5.41586">
        <ele>216.43396</ele>
        <time>2011-05-27T13:27:39Z</time>
      </trkpt>
      <trkpt lat="47.06314" lon="5.41593">
        <ele>218.356567</ele>
        <time>2011-05-27T13:27:44Z</time>
      </trkpt>
      <trkpt lat="47.06334" lon="5.416">
        <ele>221.721191</ele>
        <time>2011-05-27T13:27:49Z</time>
      </trkpt>
      <trkpt lat="47.0637" lon="5.41604">
        <ele>225.566528</ele>
        <time>2011-05-27T13:27:57Z</time>
      </trkpt>
      <trkpt lat="47.06399" lon="5.41598">
        <ele>225.566528</ele>
        <time>2011-05-27T13:28:03Z</time>
      </trkpt>
      <trkpt lat="47.06441" lon="5.41581">
        <ele>226.047119</ele>
        <time>2011-05-27T13:28:11Z</time>
      </trkpt>
      <trkpt lat="47.06488" lon="5.4156">
        <ele>227.969727</ele>
        <time>2011-05-27T13:28:20Z</time>
      </trkpt>
      <trkpt lat="47.06555" lon="5.41532">
        <ele>227.489136</ele>
        <time>2011-05-27T13:28:32Z</time>
      </trkpt>
      <trkpt lat="47.06604" lon="5.41511">
        <ele>226.047119</ele>
        <time>2011-05-27T13:28:40Z</time>
      </trkpt>
      <trkpt lat="47.0666" lon="5.41487">
        <ele>226.527832</ele>
        <time>2011-05-27T13:28:49Z</time>
      </trkpt>
      <trkpt lat="47.06672" lon="5.41483">
        <ele>226.527832</ele>
        <time>2011-05-27T13:28:51Z</time>
      </trkpt>
      <trkpt lat="47.06695" lon="5.41481">
        <ele>224.605225</ele>
        <time>2011-05-27T13:28:55Z</time>
      </trkpt>
      <trkpt lat="47.06714" lon="5.41491">
        <ele>223.643799</ele>
        <time>2011-05-27T13:28:59Z</time>
      </trkpt>
      <trkpt lat="47.0673" lon="5.41492">
        <ele>223.643799</ele>
        <time>2011-05-27T13:29:03Z</time>
      </trkpt>
      <trkpt lat="47.06735" lon="5.41484">
        <ele>223.643799</ele>
        <time>2011-05-27T13:29:05Z</time>
      </trkpt>
      <trkpt lat="47.06742" lon="5.41464">
        <ele>224.124512</ele>
        <time>2011-05-27T13:29:09Z</time>
      </trkpt>
      <trkpt lat="47.06761" lon="5.41445">
        <ele>223.643799</ele>
        <time>2011-05-27T13:29:14Z</time>
      </trkpt>
      <trkpt lat="47.06801" lon="5.41426">
        <ele>224.124512</ele>
        <time>2011-05-27T13:29:22Z</time>
      </trkpt>
      <trkpt lat="47.06838" lon="5.41407">
        <ele>223.163208</ele>
        <time>2011-05-27T13:29:29Z</time>
      </trkpt>
      <trkpt lat="47.06889" lon="5.4138">
        <ele>222.201782</ele>
        <time>2011-05-27T13:29:38Z</time>
      </trkpt>
      <trkpt lat="47.06931" lon="5.41358">
        <ele>221.721191</ele>
        <time>2011-05-27T13:29:45Z</time>
      </trkpt>
      <trkpt lat="47.06948" lon="5.41351">
        <ele>221.240601</ele>
        <time>2011-05-27T13:29:48Z</time>
      </trkpt>
      <trkpt lat="47.06978" lon="5.41348">
        <ele>222.682495</ele>
        <time>2011-05-27T13:29:53Z</time>
      </trkpt>
      <trkpt lat="47.06991" lon="5.41337">
        <ele>223.643799</ele>
        <time>2011-05-27T13:29:56Z</time>
      </trkpt>
      <trkpt lat="47.06996" lon="5.41331">
        <ele>223.643799</ele>
        <time>2011-05-27T13:29:57Z</time>
      </trkpt>
      <trkpt lat="47.07029" lon="5.41307">
        <ele>223.163208</ele>
        <time>2011-05-27T13:30:03Z</time>
      </trkpt>
      <trkpt lat="47.07067" lon="5.41287">
        <ele>221.721191</ele>
        <time>2011-05-27T13:30:10Z</time>
      </trkpt>
      <trkpt lat="47.07124" lon="5.41256">
        <ele>219.317993</ele>
        <time>2011-05-27T13:30:19Z</time>
      </trkpt>
      <trkpt lat="47.07172" lon="5.41237">
        <ele>218.83728</ele>
        <time>2011-05-27T13:30:26Z</time>
      </trkpt>
      <trkpt lat="47.07186" lon="5.41237">
        <ele>218.83728</ele>
        <time>2011-05-27T13:30:28Z</time>
      </trkpt>
      <trkpt lat="47.07212" lon="5.41246">
        <ele>219.317993</ele>
        <time>2011-05-27T13:30:32Z</time>
      </trkpt>
      <trkpt lat="47.07278" lon="5.41282">
        <ele>220.279175</ele>
        <time>2011-05-27T13:30:42Z</time>
      </trkpt>
      <trkpt lat="47.07328" lon="5.41313">
        <ele>219.317993</ele>
        <time>2011-05-27T13:30:50Z</time>
      </trkpt>
      <trkpt lat="47.0736" lon="5.41331">
        <ele>220.759888</ele>
        <time>2011-05-27T13:30:56Z</time>
      </trkpt>
      <trkpt lat="47.07387" lon="5.41326">
        <ele>221.240601</ele>
        <time>2011-05-27T13:31:01Z</time>
      </trkpt>
      <trkpt lat="47.07428" lon="5.41302">
        <ele>221.721191</ele>
        <time>2011-05-27T13:31:08Z</time>
      </trkpt>
      <trkpt lat="47.07476" lon="5.41279">
        <ele>221.240601</ele>
        <time>2011-05-27T13:31:16Z</time>
      </trkpt>
      <trkpt lat="47.07481" lon="5.41275">
        <ele>221.240601</ele>
        <time>2011-05-27T13:31:17Z</time>
      </trkpt>
      <trkpt lat="47.07511" lon="5.41249">
        <ele>218.356567</ele>
        <time>2011-05-27T13:31:23Z</time>
      </trkpt>
      <trkpt lat="47.07527" lon="5.41235">
        <ele>217.875977</ele>
        <time>2011-05-27T13:31:27Z</time>
      </trkpt>
      <trkpt lat="47.07544" lon="5.41227">
        <ele>218.83728</ele>
        <time>2011-05-27T13:31:33Z</time>
      </trkpt>
      <trkpt lat="47.07567" lon="5.41216">
        <ele>218.83728</ele>
        <time>2011-05-27T13:31:38Z</time>
      </trkpt>
      <trkpt lat="47.07572" lon="5.41215">
        <ele>218.83728</ele>
        <time>2011-05-27T13:31:39Z</time>
      </trkpt>
      <trkpt lat="47.07601" lon="5.41223">
        <ele>217.875977</ele>
        <time>2011-05-27T13:31:44Z</time>
      </trkpt>
      <trkpt lat="47.07607" lon="5.41228">
        <ele>217.395386</ele>
        <time>2011-05-27T13:31:45Z</time>
      </trkpt>
      <trkpt lat="47.07652" lon="5.4127">
        <ele>214.03064</ele>
        <time>2011-05-27T13:31:53Z</time>
      </trkpt>
      <trkpt lat="47.07696" lon="5.41312">
        <ele>215.472656</ele>
        <time>2011-05-27T13:32:01Z</time>
      </trkpt>
      <trkpt lat="47.07717" lon="5.41334">
        <ele>215.953247</ele>
        <time>2011-05-27T13:32:06Z</time>
      </trkpt>
      <trkpt lat="47.07725" lon="5.4135">
        <ele>216.914673</ele>
        <time>2011-05-27T13:32:10Z</time>
      </trkpt>
      <trkpt lat="47.0773" lon="5.41363">
        <ele>216.914673</ele>
        <time>2011-05-27T13:32:15Z</time>
      </trkpt>
      <trkpt lat="47.07747" lon="5.41382">
        <ele>215.953247</ele>
        <time>2011-05-27T13:32:21Z</time>
      </trkpt>
      <trkpt lat="47.07781" lon="5.41401">
        <ele>216.43396</ele>
        <time>2011-05-27T13:32:29Z</time>
      </trkpt>
      <trkpt lat="47.07809" lon="5.41419">
        <ele>215.953247</ele>
        <time>2011-05-27T13:32:36Z</time>
      </trkpt>
      <trkpt lat="47.07834" lon="5.41436">
        <ele>218.356567</ele>
        <time>2011-05-27T13:32:42Z</time>
      </trkpt>
      <trkpt lat="47.07872" lon="5.41462">
        <ele>220.759888</ele>
        <time>2011-05-27T13:32:51Z</time>
      </trkpt>
      <trkpt lat="47.07908" lon="5.41488">
        <ele>222.682495</ele>
        <time>2011-05-27T13:32:59Z</time>
      </trkpt>
      <trkpt lat="47.07944" lon="5.41516">
        <ele>225.085938</ele>
        <time>2011-05-27T13:33:07Z</time>
      </trkpt>
      <trkpt lat="47.07979" lon="5.41545">
        <ele>227.008545</ele>
        <time>2011-05-27T13:33:15Z</time>
      </trkpt>
      <trkpt lat="47.08013" lon="5.41573">
        <ele>229.892334</ele>
        <time>2011-05-27T13:33:23Z</time>
      </trkpt>
      <trkpt lat="47.08051" lon="5.41601">
        <ele>228.450439</ele>
        <time>2011-05-27T13:33:31Z</time>
      </trkpt>
      <trkpt lat="47.08094" lon="5.41631">
        <ele>228.450439</ele>
        <time>2011-05-27T13:33:40Z</time>
      </trkpt>
      <trkpt lat="47.08134" lon="5.4166">
        <ele>227.489136</ele>
        <time>2011-05-27T13:33:48Z</time>
      </trkpt>
      <trkpt lat="47.08182" lon="5.41695">
        <ele>226.047119</ele>
        <time>2011-05-27T13:33:57Z</time>
      </trkpt>
      <trkpt lat="47.08243" lon="5.4174">
        <ele>227.008545</ele>
        <time>2011-05-27T13:34:09Z</time>
      </trkpt>
      <trkpt lat="47.08296" lon="5.41777">
        <ele>225.566528</ele>
        <time>2011-05-27T13:34:19Z</time>
      </trkpt>
      <trkpt lat="47.08342" lon="5.41813">
        <ele>225.566528</ele>
        <time>2011-05-27T13:34:28Z</time>
      </trkpt>
      <trkpt lat="47.0838" lon="5.4185">
        <ele>226.527832</ele>
        <time>2011-05-27T13:34:36Z</time>
      </trkpt>
      <trkpt lat="47.08426" lon="5.41898">
        <ele>228.931152</ele>
        <time>2011-05-27T13:34:46Z</time>
      </trkpt>
      <trkpt lat="47.08463" lon="5.41938">
        <ele>230.85376</ele>
        <time>2011-05-27T13:34:54Z</time>
      </trkpt>
      <trkpt lat="47.08511" lon="5.4199">
        <ele>235.660278</ele>
        <time>2011-05-27T13:35:05Z</time>
      </trkpt>
      <trkpt lat="47.08547" lon="5.4204">
        <ele>238.063599</ele>
        <time>2011-05-27T13:35:14Z</time>
      </trkpt>
      <trkpt lat="47.08575" lon="5.42098">
        <ele>240.947632</ele>
        <time>2011-05-27T13:35:23Z</time>
      </trkpt>
      <trkpt lat="47.08595" lon="5.42158">
        <ele>241.908936</ele>
        <time>2011-05-27T13:35:32Z</time>
      </trkpt>
      <trkpt lat="47.08614" lon="5.42218">
        <ele>240.467041</ele>
        <time>2011-05-27T13:35:41Z</time>
      </trkpt>
      <trkpt lat="47.08619" lon="5.42232">
        <ele>240.467041</ele>
        <time>2011-05-27T13:35:43Z</time>
      </trkpt>
      <trkpt lat="47.08623" lon="5.42246">
        <ele>240.467041</ele>
        <time>2011-05-27T13:35:45Z</time>
      </trkpt>
      <trkpt lat="47.08625" lon="5.42254">
        <ele>240.947632</ele>
        <time>2011-05-27T13:35:46Z</time>
      </trkpt>
      <trkpt lat="47.08634" lon="5.42283">
        <ele>241.428223</ele>
        <time>2011-05-27T13:35:50Z</time>
      </trkpt>
      <trkpt lat="47.08635" lon="5.42291">
        <ele>241.428223</ele>
        <time>2011-05-27T13:35:51Z</time>
      </trkpt>
      <trkpt lat="47.08637" lon="5.42299">
        <ele>241.428223</ele>
        <time>2011-05-27T13:35:52Z</time>
      </trkpt>
      <trkpt lat="47.08638" lon="5.42307">
        <ele>241.908936</ele>
        <time>2011-05-27T13:35:53Z</time>
      </trkpt>
      <trkpt lat="47.0864" lon="5.42314">
        <ele>241.908936</ele>
        <time>2011-05-27T13:35:54Z</time>
      </trkpt>
      <trkpt lat="47.08644" lon="5.42339">
        <ele>241.908936</ele>
        <time>2011-05-27T13:35:57Z</time>
      </trkpt>
      <trkpt lat="47.0865" lon="5.42405">
        <ele>242.389648</ele>
        <time>2011-05-27T13:36:05Z</time>
      </trkpt>
      <trkpt lat="47.08654" lon="5.42453">
        <ele>242.870239</ele>
        <time>2011-05-27T13:36:11Z</time>
      </trkpt>
      <trkpt lat="47.08662" lon="5.42518">
        <ele>243.35083</ele>
        <time>2011-05-27T13:36:19Z</time>
      </trkpt>
      <trkpt lat="47.08673" lon="5.42575">
        <ele>244.792847</ele>
        <time>2011-05-27T13:36:26Z</time>
      </trkpt>
      <trkpt lat="47.08694" lon="5.4263">
        <ele>245.273438</ele>
        <time>2011-05-27T13:36:33Z</time>
      </trkpt>
      <trkpt lat="47.08725" lon="5.4268">
        <ele>245.273438</ele>
        <time>2011-05-27T13:36:40Z</time>
      </trkpt>
      <trkpt lat="47.08777" lon="5.4274">
        <ele>246.715454</ele>
        <time>2011-05-27T13:36:49Z</time>
      </trkpt>
      <trkpt lat="47.08832" lon="5.42801">
        <ele>247.196045</ele>
        <time>2011-05-27T13:36:58Z</time>
      </trkpt>
      <trkpt lat="47.08844" lon="5.42813">
        <ele>246.234863</ele>
        <time>2011-05-27T13:37:00Z</time>
      </trkpt>
      <trkpt lat="47.08894" lon="5.42846">
        <ele>244.312256</ele>
        <time>2011-05-27T13:37:08Z</time>
      </trkpt>
      <trkpt lat="47.0894" lon="5.42862">
        <ele>242.389648</ele>
        <time>2011-05-27T13:37:15Z</time>
      </trkpt>
      <trkpt lat="47.09007" lon="5.42885">
        <ele>240.947632</ele>
        <time>2011-05-27T13:37:25Z</time>
      </trkpt>
      <trkpt lat="47.09074" lon="5.42906">
        <ele>242.389648</ele>
        <time>2011-05-27T13:37:35Z</time>
      </trkpt>
      <trkpt lat="47.09133" lon="5.42923">
        <ele>243.831543</ele>
        <time>2011-05-27T13:37:44Z</time>
      </trkpt>
      <trkpt lat="47.09196" lon="5.42933">
        <ele>245.273438</ele>
        <time>2011-05-27T13:37:54Z</time>
      </trkpt>
      <trkpt lat="47.09243" lon="5.42951">
        <ele>246.234863</ele>
        <time>2011-05-27T13:38:01Z</time>
      </trkpt>
      <trkpt lat="47.09298" lon="5.42985">
        <ele>247.676758</ele>
        <time>2011-05-27T13:38:09Z</time>
      </trkpt>
      <trkpt lat="47.09366" lon="5.43024">
        <ele>249.118774</ele>
        <time>2011-05-27T13:38:18Z</time>
      </trkpt>
      <trkpt lat="47.09433" lon="5.43057">
        <ele>250.560791</ele>
        <time>2011-05-27T13:38:26Z</time>
      </trkpt>
      <trkpt lat="47.09495" lon="5.43094">
        <ele>249.599487</ele>
        <time>2011-05-27T13:38:33Z</time>
      </trkpt>
      <trkpt lat="47.09548" lon="5.43128">
        <ele>248.157593</ele>
        <time>2011-05-27T13:38:39Z</time>
      </trkpt>
      <trkpt lat="47.0961" lon="5.43154">
        <ele>245.75415</ele>
        <time>2011-05-27T13:38:46Z</time>
      </trkpt>
      <trkpt lat="47.0967" lon="5.43167">
        <ele>244.792847</ele>
        <time>2011-05-27T13:38:53Z</time>
      </trkpt>
      <trkpt lat="47.09749" lon="5.43184">
        <ele>245.75415</ele>
        <time>2011-05-27T13:39:03Z</time>
      </trkpt>
      <trkpt lat="47.09794" lon="5.43206">
        <ele>247.196045</ele>
        <time>2011-05-27T13:39:09Z</time>
      </trkpt>
      <trkpt lat="47.09827" lon="5.43229">
        <ele>248.157593</ele>
        <time>2011-05-27T13:39:14Z</time>
      </trkpt>
      <trkpt lat="47.09876" lon="5.43251">
        <ele>249.118774</ele>
        <time>2011-05-27T13:39:21Z</time>
      </trkpt>
      <trkpt lat="47.0993" lon="5.43273">
        <ele>249.599487</ele>
        <time>2011-05-27T13:39:29Z</time>
      </trkpt>
      <trkpt lat="47.09954" lon="5.43284">
        <ele>250.0802</ele>
        <time>2011-05-27T13:39:33Z</time>
      </trkpt>
      <trkpt lat="47.10001" lon="5.43306">
        <ele>247.676758</ele>
        <time>2011-05-27T13:39:41Z</time>
      </trkpt>
      <trkpt lat="47.10054" lon="5.43329">
        <ele>244.792847</ele>
        <time>2011-05-27T13:39:50Z</time>
      </trkpt>
      <trkpt lat="47.10101" lon="5.4335">
        <ele>243.35083</ele>
        <time>2011-05-27T13:39:57Z</time>
      </trkpt>
      <trkpt lat="47.10149" lon="5.43372">
        <ele>243.35083</ele>
        <time>2011-05-27T13:40:04Z</time>
      </trkpt>
      <trkpt lat="47.10189" lon="5.43383">
        <ele>241.908936</ele>
        <time>2011-05-27T13:40:10Z</time>
      </trkpt>
      <trkpt lat="47.10225" lon="5.43392">
        <ele>242.389648</ele>
        <time>2011-05-27T13:40:16Z</time>
      </trkpt>
      <trkpt lat="47.10262" lon="5.43399">
        <ele>245.273438</ele>
        <time>2011-05-27T13:40:23Z</time>
      </trkpt>
      <trkpt lat="47.10295" lon="5.43418">
        <ele>248.157593</ele>
        <time>2011-05-27T13:40:29Z</time>
      </trkpt>
      <trkpt lat="47.10338" lon="5.43443">
        <ele>250.0802</ele>
        <time>2011-05-27T13:40:36Z</time>
      </trkpt>
      <trkpt lat="47.10382" lon="5.43465">
        <ele>251.041382</ele>
        <time>2011-05-27T13:40:43Z</time>
      </trkpt>
      <trkpt lat="47.10426" lon="5.43501">
        <ele>246.715454</ele>
        <time>2011-05-27T13:40:51Z</time>
      </trkpt>
      <trkpt lat="47.10467" lon="5.43546">
        <ele>243.831543</ele>
        <time>2011-05-27T13:40:59Z</time>
      </trkpt>
      <trkpt lat="47.1049" lon="5.43573">
        <ele>244.792847</ele>
        <time>2011-05-27T13:41:04Z</time>
      </trkpt>
      <trkpt lat="47.10526" lon="5.43599">
        <ele>245.273438</ele>
        <time>2011-05-27T13:41:10Z</time>
      </trkpt>
      <trkpt lat="47.10565" lon="5.43624">
        <ele>243.831543</ele>
        <time>2011-05-27T13:41:17Z</time>
      </trkpt>
      <trkpt lat="47.10598" lon="5.43648">
        <ele>241.908936</ele>
        <time>2011-05-27T13:41:23Z</time>
      </trkpt>
      <trkpt lat="47.10608" lon="5.43656">
        <ele>241.908936</ele>
        <time>2011-05-27T13:41:26Z</time>
      </trkpt>
      <trkpt lat="47.10616" lon="5.4366">
        <ele>239.024902</ele>
        <time>2011-05-27T13:41:31Z</time>
      </trkpt>
      <trkpt lat="47.10618" lon="5.4366">
        <ele>235.179688</ele>
        <time>2011-05-27T13:41:38Z</time>
      </trkpt>
      <trkpt lat="47.10624" lon="5.43651">
        <ele>234.699097</ele>
        <time>2011-05-27T13:41:43Z</time>
      </trkpt>
      <trkpt lat="47.10634" lon="5.43615">
        <ele>232.776489</ele>
        <time>2011-05-27T13:41:50Z</time>
      </trkpt>
      <trkpt lat="47.10648" lon="5.43572">
        <ele>232.295776</ele>
        <time>2011-05-27T13:41:56Z</time>
      </trkpt>
      <trkpt lat="47.10659" lon="5.43566">
        <ele>231.814941</ele>
        <time>2011-05-27T13:42:00Z</time>
      </trkpt>
      <trkpt lat="47.10666" lon="5.43573">
        <ele>231.334351</ele>
        <time>2011-05-27T13:42:02Z</time>
      </trkpt>
      <trkpt lat="47.10705" lon="5.43602">
        <ele>229.892334</ele>
        <time>2011-05-27T13:42:10Z</time>
      </trkpt>
      <trkpt lat="47.10737" lon="5.4361">
        <ele>229.892334</ele>
        <time>2011-05-27T13:42:15Z</time>
      </trkpt>
      <trkpt lat="47.10779" lon="5.43636">
        <ele>229.892334</ele>
        <time>2011-05-27T13:42:22Z</time>
      </trkpt>
      <trkpt lat="47.10837" lon="5.43681">
        <ele>232.295776</ele>
        <time>2011-05-27T13:42:32Z</time>
      </trkpt>
      <trkpt lat="47.10877" lon="5.43709">
        <ele>233.737671</ele>
        <time>2011-05-27T13:42:39Z</time>
      </trkpt>
      <trkpt lat="47.10926" lon="5.43725">
        <ele>233.25708</ele>
        <time>2011-05-27T13:42:47Z</time>
      </trkpt>
      <trkpt lat="47.1097" lon="5.43743">
        <ele>233.25708</ele>
        <time>2011-05-27T13:42:55Z</time>
      </trkpt>
      <trkpt lat="47.11015" lon="5.43765">
        <ele>233.737671</ele>
        <time>2011-05-27T13:43:03Z</time>
      </trkpt>
      <trkpt lat="47.11042" lon="5.43785">
        <ele>234.218384</ele>
        <time>2011-05-27T13:43:08Z</time>
      </trkpt>
      <trkpt lat="47.11079" lon="5.43825">
        <ele>234.699097</ele>
        <time>2011-05-27T13:43:15Z</time>
      </trkpt>
      <trkpt lat="47.11124" lon="5.43883">
        <ele>234.699097</ele>
        <time>2011-05-27T13:43:24Z</time>
      </trkpt>
      <trkpt lat="47.11158" lon="5.43923">
        <ele>232.295776</ele>
        <time>2011-05-27T13:43:30Z</time>
      </trkpt>
      <trkpt lat="47.11194" lon="5.43958">
        <ele>231.814941</ele>
        <time>2011-05-27T13:43:36Z</time>
      </trkpt>
      <trkpt lat="47.11239" lon="5.43992">
        <ele>233.737671</ele>
        <time>2011-05-27T13:43:44Z</time>
      </trkpt>
      <trkpt lat="47.11281" lon="5.44022">
        <ele>234.699097</ele>
        <time>2011-05-27T13:43:52Z</time>
      </trkpt>
      <trkpt lat="47.11332" lon="5.4406">
        <ele>235.660278</ele>
        <time>2011-05-27T13:44:01Z</time>
      </trkpt>
      <trkpt lat="47.11392" lon="5.44108">
        <ele>232.776489</ele>
        <time>2011-05-27T13:44:11Z</time>
      </trkpt>
      <trkpt lat="47.11437" lon="5.44152">
        <ele>229.892334</ele>
        <time>2011-05-27T13:44:18Z</time>
      </trkpt>
      <trkpt lat="47.11506" lon="5.44224">
        <ele>225.566528</ele>
        <time>2011-05-27T13:44:28Z</time>
      </trkpt>
      <trkpt lat="47.11565" lon="5.44285">
        <ele>225.566528</ele>
        <time>2011-05-27T13:44:37Z</time>
      </trkpt>
      <trkpt lat="47.11623" lon="5.44331">
        <ele>225.085938</ele>
        <time>2011-05-27T13:44:45Z</time>
      </trkpt>
      <trkpt lat="47.11678" lon="5.4437">
        <ele>226.527832</ele>
        <time>2011-05-27T13:44:53Z</time>
      </trkpt>
      <trkpt lat="47.11744" lon="5.44417">
        <ele>228.450439</ele>
        <time>2011-05-27T13:45:03Z</time>
      </trkpt>
      <trkpt lat="47.118" lon="5.44467">
        <ele>228.931152</ele>
        <time>2011-05-27T13:45:12Z</time>
      </trkpt>
      <trkpt lat="47.11865" lon="5.44534">
        <ele>227.969727</ele>
        <time>2011-05-27T13:45:22Z</time>
      </trkpt>
      <trkpt lat="47.11922" lon="5.44595">
        <ele>228.450439</ele>
        <time>2011-05-27T13:45:31Z</time>
      </trkpt>
      <trkpt lat="47.11994" lon="5.44673">
        <ele>230.85376</ele>
        <time>2011-05-27T13:45:43Z</time>
      </trkpt>
      <trkpt lat="47.12048" lon="5.44737">
        <ele>232.776489</ele>
        <time>2011-05-27T13:45:53Z</time>
      </trkpt>
      <trkpt lat="47.12112" lon="5.44817">
        <ele>234.218384</ele>
        <time>2011-05-27T13:46:05Z</time>
      </trkpt>
      <trkpt lat="47.12179" lon="5.44891">
        <ele>234.218384</ele>
        <time>2011-05-27T13:46:17Z</time>
      </trkpt>
      <trkpt lat="47.12239" lon="5.44943">
        <ele>234.218384</ele>
        <time>2011-05-27T13:46:27Z</time>
      </trkpt>
      <trkpt lat="47.123" lon="5.44989">
        <ele>232.295776</ele>
        <time>2011-05-27T13:46:37Z</time>
      </trkpt>
      <trkpt lat="47.12359" lon="5.45035">
        <ele>228.450439</ele>
        <time>2011-05-27T13:46:46Z</time>
      </trkpt>
      <trkpt lat="47.1242" lon="5.45075">
        <ele>226.047119</ele>
        <time>2011-05-27T13:46:55Z</time>
      </trkpt>
      <trkpt lat="47.12449" lon="5.4508">
        <ele>224.605225</ele>
        <time>2011-05-27T13:46:59Z</time>
      </trkpt>
      <trkpt lat="47.12478" lon="5.4507">
        <ele>223.643799</ele>
        <time>2011-05-27T13:47:03Z</time>
      </trkpt>
      <trkpt lat="47.12536" lon="5.45029">
        <ele>221.240601</ele>
        <time>2011-05-27T13:47:11Z</time>
      </trkpt>
      <trkpt lat="47.12567" lon="5.45007">
        <ele>220.759888</ele>
        <time>2011-05-27T13:47:16Z</time>
      </trkpt>
      <trkpt lat="47.12581" lon="5.45007">
        <ele>220.759888</ele>
        <time>2011-05-27T13:47:20Z</time>
      </trkpt>
      <trkpt lat="47.12581" lon="5.45018">
        <ele>220.279175</ele>
        <time>2011-05-27T13:47:23Z</time>
      </trkpt>
      <trkpt lat="47.12572" lon="5.45055">
        <ele>220.279175</ele>
        <time>2011-05-27T13:47:30Z</time>
      </trkpt>
      <trkpt lat="47.1256" lon="5.45107">
        <ele>220.279175</ele>
        <time>2011-05-27T13:47:38Z</time>
      </trkpt>
      <trkpt lat="47.12557" lon="5.4512">
        <ele>219.317993</ele>
        <time>2011-05-27T13:47:40Z</time>
      </trkpt>
      <trkpt lat="47.12546" lon="5.45169">
        <ele>218.356567</ele>
        <time>2011-05-27T13:47:47Z</time>
      </trkpt>
      <trkpt lat="47.12531" lon="5.45219">
        <ele>220.279175</ele>
        <time>2011-05-27T13:47:54Z</time>
      </trkpt>
      <trkpt lat="47.12513" lon="5.45269">
        <ele>224.124512</ele>
        <time>2011-05-27T13:48:02Z</time>
      </trkpt>
      <trkpt lat="47.12514" lon="5.45302">
        <ele>225.085938</ele>
        <time>2011-05-27T13:48:07Z</time>
      </trkpt>
      <trkpt lat="47.12526" lon="5.45324">
        <ele>227.489136</ele>
        <time>2011-05-27T13:48:11Z</time>
      </trkpt>
      <trkpt lat="47.12556" lon="5.45368">
        <ele>231.334351</ele>
        <time>2011-05-27T13:48:20Z</time>
      </trkpt>
      <trkpt lat="47.12559" lon="5.45373">
        <ele>231.334351</ele>
        <time>2011-05-27T13:48:21Z</time>
      </trkpt>
      <trkpt lat="47.12569" lon="5.45414">
        <ele>233.25708</ele>
        <time>2011-05-27T13:48:27Z</time>
      </trkpt>
      <trkpt lat="47.12569" lon="5.45421">
        <ele>232.776489</ele>
        <time>2011-05-27T13:48:28Z</time>
      </trkpt>
      <trkpt lat="47.12568" lon="5.45436">
        <ele>232.776489</ele>
        <time>2011-05-27T13:48:30Z</time>
      </trkpt>
      <trkpt lat="47.12575" lon="5.45475">
        <ele>232.776489</ele>
        <time>2011-05-27T13:48:35Z</time>
      </trkpt>
      <trkpt lat="47.12585" lon="5.45496">
        <ele>232.295776</ele>
        <time>2011-05-27T13:48:38Z</time>
      </trkpt>
      <trkpt lat="47.126" lon="5.45514">
        <ele>232.776489</ele>
        <time>2011-05-27T13:48:42Z</time>
      </trkpt>
      <trkpt lat="47.12623" lon="5.45534">
        <ele>233.25708</ele>
        <time>2011-05-27T13:48:48Z</time>
      </trkpt>
      <trkpt lat="47.12648" lon="5.4556">
        <ele>231.334351</ele>
        <time>2011-05-27T13:48:55Z</time>
      </trkpt>
      <trkpt lat="47.12659" lon="5.45573">
        <ele>229.411743</ele>
        <time>2011-05-27T13:49:00Z</time>
      </trkpt>
      <trkpt lat="47.12664" lon="5.45585">
        <ele>227.969727</ele>
        <time>2011-05-27T13:49:04Z</time>
      </trkpt>
      <trkpt lat="47.12663" lon="5.45605">
        <ele>226.527832</ele>
        <time>2011-05-27T13:49:08Z</time>
      </trkpt>
      <trkpt lat="47.12657" lon="5.45648">
        <ele>226.047119</ele>
        <time>2011-05-27T13:49:15Z</time>
      </trkpt>
      <trkpt lat="47.12654" lon="5.4566">
        <ele>226.047119</ele>
        <time>2011-05-27T13:49:17Z</time>
      </trkpt>
      <trkpt lat="47.1265" lon="5.45669">
        <ele>225.566528</ele>
        <time>2011-05-27T13:49:19Z</time>
      </trkpt>
      <trkpt lat="47.12645" lon="5.45681">
        <ele>224.605225</ele>
        <time>2011-05-27T13:49:24Z</time>
      </trkpt>
      <trkpt lat="47.12649" lon="5.45686">
        <ele>226.047119</ele>
        <time>2011-05-27T13:49:28Z</time>
      </trkpt>
      <trkpt lat="47.1266" lon="5.45691">
        <ele>227.008545</ele>
        <time>2011-05-27T13:49:32Z</time>
      </trkpt>
      <trkpt lat="47.12689" lon="5.45711">
        <ele>233.25708</ele>
        <time>2011-05-27T13:49:39Z</time>
      </trkpt>
      <trkpt lat="47.12704" lon="5.4572">
        <ele>234.218384</ele>
        <time>2011-05-27T13:49:43Z</time>
      </trkpt>
      <trkpt lat="47.12716" lon="5.45728">
        <ele>234.699097</ele>
        <time>2011-05-27T13:49:46Z</time>
      </trkpt>
      <trkpt lat="47.12729" lon="5.45736">
        <ele>236.140991</ele>
        <time>2011-05-27T13:49:49Z</time>
      </trkpt>
      <trkpt lat="47.12759" lon="5.45743">
        <ele>235.660278</ele>
        <time>2011-05-27T13:49:55Z</time>
      </trkpt>
      <trkpt lat="47.12806" lon="5.45735">
        <ele>232.295776</ele>
        <time>2011-05-27T13:50:03Z</time>
      </trkpt>
      <trkpt lat="47.12855" lon="5.45723">
        <ele>227.969727</ele>
        <time>2011-05-27T13:50:10Z</time>
      </trkpt>
      <trkpt lat="47.12919" lon="5.45702">
        <ele>223.163208</ele>
        <time>2011-05-27T13:50:18Z</time>
      </trkpt>
      <trkpt lat="47.12974" lon="5.45684">
        <ele>221.721191</ele>
        <time>2011-05-27T13:50:25Z</time>
      </trkpt>
      <trkpt lat="47.13009" lon="5.45686">
        <ele>221.240601</ele>
        <time>2011-05-27T13:50:30Z</time>
      </trkpt>
      <trkpt lat="47.1305" lon="5.45695">
        <ele>220.759888</ele>
        <time>2011-05-27T13:50:36Z</time>
      </trkpt>
      <trkpt lat="47.1309" lon="5.45685">
        <ele>219.798584</ele>
        <time>2011-05-27T13:50:42Z</time>
      </trkpt>
      <trkpt lat="47.1315" lon="5.45656">
        <ele>218.356567</ele>
        <time>2011-05-27T13:50:51Z</time>
      </trkpt>
      <trkpt lat="47.13217" lon="5.45624">
        <ele>219.798584</ele>
        <time>2011-05-27T13:51:01Z</time>
      </trkpt>
      <trkpt lat="47.13275" lon="5.45594">
        <ele>222.201782</ele>
        <time>2011-05-27T13:51:10Z</time>
      </trkpt>
      <trkpt lat="47.13315" lon="5.45571">
        <ele>223.643799</ele>
        <time>2011-05-27T13:51:17Z</time>
      </trkpt>
      <trkpt lat="47.13359" lon="5.45547">
        <ele>224.124512</ele>
        <time>2011-05-27T13:51:25Z</time>
      </trkpt>
      <trkpt lat="47.13424" lon="5.45509">
        <ele>224.124512</ele>
        <time>2011-05-27T13:51:37Z</time>
      </trkpt>
      <trkpt lat="47.13477" lon="5.45485">
        <ele>223.643799</ele>
        <time>2011-05-27T13:51:46Z</time>
      </trkpt>
      <trkpt lat="47.1352" lon="5.4548">
        <ele>222.682495</ele>
        <time>2011-05-27T13:51:53Z</time>
      </trkpt>
      <trkpt lat="47.13562" lon="5.45491">
        <ele>222.201782</ele>
        <time>2011-05-27T13:52:00Z</time>
      </trkpt>
      <trkpt lat="47.13604" lon="5.45514">
        <ele>223.163208</ele>
        <time>2011-05-27T13:52:07Z</time>
      </trkpt>
      <trkpt lat="47.13658" lon="5.45548">
        <ele>222.201782</ele>
        <time>2011-05-27T13:52:16Z</time>
      </trkpt>
      <trkpt lat="47.13726" lon="5.45591">
        <ele>219.798584</ele>
        <time>2011-05-27T13:52:27Z</time>
      </trkpt>
      <trkpt lat="47.13786" lon="5.45628">
        <ele>218.356567</ele>
        <time>2011-05-27T13:52:36Z</time>
      </trkpt>
      <trkpt lat="47.13806" lon="5.45639">
        <ele>217.875977</ele>
        <time>2011-05-27T13:52:39Z</time>
      </trkpt>
      <trkpt lat="47.13848" lon="5.45641">
        <ele>218.83728</ele>
        <time>2011-05-27T13:52:45Z</time>
      </trkpt>
      <trkpt lat="47.13896" lon="5.4563">
        <ele>218.356567</ele>
        <time>2011-05-27T13:52:51Z</time>
      </trkpt>
      <trkpt lat="47.13955" lon="5.45621">
        <ele>215.472656</ele>
        <time>2011-05-27T13:52:58Z</time>
      </trkpt>
      <trkpt lat="47.14041" lon="5.45618">
        <ele>214.51123</ele>
        <time>2011-05-27T13:53:09Z</time>
      </trkpt>
      <trkpt lat="47.14087" lon="5.45629">
        <ele>215.472656</ele>
        <time>2011-05-27T13:53:15Z</time>
      </trkpt>
      <trkpt lat="47.14142" lon="5.45656">
        <ele>217.395386</ele>
        <time>2011-05-27T13:53:22Z</time>
      </trkpt>
      <trkpt lat="47.14182" lon="5.45674">
        <ele>217.875977</ele>
        <time>2011-05-27T13:53:27Z</time>
      </trkpt>
      <trkpt lat="47.14224" lon="5.45687">
        <ele>217.395386</ele>
        <time>2011-05-27T13:53:32Z</time>
      </trkpt>
      <trkpt lat="47.1427" lon="5.45688">
        <ele>214.51123</ele>
        <time>2011-05-27T13:53:37Z</time>
      </trkpt>
      <trkpt lat="47.14306" lon="5.45672">
        <ele>212.108032</ele>
        <time>2011-05-27T13:53:41Z</time>
      </trkpt>
      <trkpt lat="47.14365" lon="5.45618">
        <ele>206.820679</ele>
        <time>2011-05-27T13:53:48Z</time>
      </trkpt>
      <trkpt lat="47.14408" lon="5.45587">
        <ele>205.378784</ele>
        <time>2011-05-27T13:53:53Z</time>
      </trkpt>
      <trkpt lat="47.14439" lon="5.45581">
        <ele>205.378784</ele>
        <time>2011-05-27T13:53:57Z</time>
      </trkpt>
      <trkpt lat="47.14464" lon="5.45585">
        <ele>205.378784</ele>
        <time>2011-05-27T13:54:01Z</time>
      </trkpt>
      <trkpt lat="47.14472" lon="5.45587">
        <ele>205.378784</ele>
        <time>2011-05-27T13:54:03Z</time>
      </trkpt>
      <trkpt lat="47.14479" lon="5.45584">
        <ele>203.93689</ele>
        <time>2011-05-27T13:54:08Z</time>
      </trkpt>
      <trkpt lat="47.1448" lon="5.45585">
        <ele>202.014282</ele>
        <time>2011-05-27T13:54:20Z</time>
      </trkpt>
      <trkpt lat="47.14476" lon="5.45587">
        <ele>207.301392</ele>
        <time>2011-05-27T13:54:32Z</time>
      </trkpt>
      <trkpt lat="47.14475" lon="5.45586">
        <ele>212.588623</ele>
        <time>2011-05-27T13:54:48Z</time>
      </trkpt>
      <trkpt lat="47.14478" lon="5.45584">
        <ele>205.859497</ele>
        <time>2011-05-27T13:54:59Z</time>
      </trkpt>
      <trkpt lat="47.1448" lon="5.45583">
        <ele>202.975464</ele>
        <time>2011-05-27T13:55:08Z</time>
      </trkpt>
      <trkpt lat="47.14485" lon="5.45582">
        <ele>201.533569</ele>
        <time>2011-05-27T13:55:22Z</time>
      </trkpt>
      <trkpt lat="47.14487" lon="5.4558">
        <ele>203.93689</ele>
        <time>2011-05-27T13:55:32Z</time>
      </trkpt>
      <trkpt lat="47.14489" lon="5.45579">
        <ele>205.378784</ele>
        <time>2011-05-27T13:55:42Z</time>
      </trkpt>
      <trkpt lat="47.14491" lon="5.4558">
        <ele>205.859497</ele>
        <time>2011-05-27T13:55:55Z</time>
      </trkpt>
      <trkpt lat="47.14491" lon="5.4558">
        <ele>205.859497</ele>
        <time>2011-05-27T13:55:56Z</time>
      </trkpt>
      <trkpt lat="47.14492" lon="5.45581">
        <ele>204.898071</ele>
        <time>2011-05-27T13:56:06Z</time>
      </trkpt>
      <trkpt lat="47.14492" lon="5.45581">
        <ele>205.378784</ele>
        <time>2011-05-27T13:56:17Z</time>
      </trkpt>
      <trkpt lat="47.14491" lon="5.45579">
        <ele>203.93689</ele>
        <time>2011-05-27T13:56:35Z</time>
      </trkpt>
      <trkpt lat="47.14487" lon="5.45582">
        <ele>197.688232</ele>
        <time>2011-05-27T13:56:53Z</time>
      </trkpt>
      <trkpt lat="47.1449" lon="5.45584">
        <ele>198.649536</ele>
        <time>2011-05-27T13:57:01Z</time>
      </trkpt>
      <trkpt lat="47.1449" lon="5.45584">
        <ele>199.130127</ele>
        <time>2011-05-27T13:57:15Z</time>
      </trkpt>
      <trkpt lat="47.14492" lon="5.45588">
        <ele>199.130127</ele>
        <time>2011-05-27T13:57:34Z</time>
      </trkpt>
      <trkpt lat="47.14492" lon="5.45588">
        <ele>199.61084</ele>
        <time>2011-05-27T13:57:56Z</time>
      </trkpt>
      <trkpt lat="47.14484" lon="5.45584">
        <ele>200.572266</ele>
        <time>2011-05-27T13:58:39Z</time>
      </trkpt>
      <trkpt lat="47.1448" lon="5.45588">
        <ele>197.688232</ele>
        <time>2011-05-27T13:59:17Z</time>
      </trkpt>
      <trkpt lat="47.14478" lon="5.45584">
        <ele>195.284912</ele>
        <time>2011-05-27T13:59:54Z</time>
      </trkpt>
      <trkpt lat="47.14475" lon="5.45587">
        <ele>187.11377</ele>
        <time>2011-05-27T14:00:21Z</time>
      </trkpt>
      <trkpt lat="47.14478" lon="5.45586">
        <ele>190.958984</ele>
        <time>2011-05-27T14:00:37Z</time>
      </trkpt>
      <trkpt lat="47.14481" lon="5.45583">
        <ele>200.091675</ele>
        <time>2011-05-27T14:00:45Z</time>
      </trkpt>
      <trkpt lat="47.14482" lon="5.45581">
        <ele>205.859497</ele>
        <time>2011-05-27T14:00:52Z</time>
      </trkpt>
      <trkpt lat="47.14484" lon="5.45586">
        <ele>196.726929</ele>
        <time>2011-05-27T14:01:42Z</time>
      </trkpt>
      <trkpt lat="47.14484" lon="5.45579">
        <ele>204.41748</ele>
        <time>2011-05-27T14:02:22Z</time>
      </trkpt>
      <trkpt lat="47.14484" lon="5.45579">
        <ele>204.41748</ele>
        <time>2011-05-27T14:02:31Z</time>
      </trkpt>
      <trkpt lat="47.14485" lon="5.45579">
        <ele>205.859497</ele>
        <time>2011-05-27T14:02:48Z</time>
      </trkpt>
      <trkpt lat="47.14484" lon="5.45581">
        <ele>201.052856</ele>
        <time>2011-05-27T14:03:12Z</time>
      </trkpt>
      <trkpt lat="47.14486" lon="5.45581">
        <ele>202.014282</ele>
        <time>2011-05-27T14:03:38Z</time>
      </trkpt>
      <trkpt lat="47.14481" lon="5.45579">
        <ele>196.246338</ele>
        <time>2011-05-27T14:04:07Z</time>
      </trkpt>
      <trkpt lat="47.14483" lon="5.4558">
        <ele>198.168945</ele>
        <time>2011-05-27T14:04:20Z</time>
      </trkpt>
      <trkpt lat="47.14478" lon="5.45572">
        <ele>200.091675</ele>
        <time>2011-05-27T14:04:43Z</time>
      </trkpt>
      <trkpt lat="47.14472" lon="5.45566">
        <ele>198.649536</ele>
        <time>2011-05-27T14:04:54Z</time>
      </trkpt>
      <trkpt lat="47.14471" lon="5.45567">
        <ele>195.284912</ele>
        <time>2011-05-27T14:05:02Z</time>
      </trkpt>
      <trkpt lat="47.14474" lon="5.45572">
        <ele>195.284912</ele>
        <time>2011-05-27T14:05:11Z</time>
      </trkpt>
      <trkpt lat="47.14481" lon="5.45575">
        <ele>200.572266</ele>
        <time>2011-05-27T14:05:43Z</time>
      </trkpt>
      <trkpt lat="47.14481" lon="5.45575">
        <ele>200.091675</ele>
        <time>2011-05-27T14:05:57Z</time>
      </trkpt>
      <trkpt lat="47.14479" lon="5.45577">
        <ele>204.41748</ele>
        <time>2011-05-27T14:06:09Z</time>
      </trkpt>
      <trkpt lat="47.14479" lon="5.45578">
        <ele>203.93689</ele>
        <time>2011-05-27T14:06:27Z</time>
      </trkpt>
      <trkpt lat="47.14478" lon="5.45581">
        <ele>201.533569</ele>
        <time>2011-05-27T14:06:34Z</time>
      </trkpt>
      <trkpt lat="47.14471" lon="5.4558">
        <ele>200.572266</ele>
        <time>2011-05-27T14:06:40Z</time>
      </trkpt>
      <trkpt lat="47.14457" lon="5.45572">
        <ele>202.014282</ele>
        <time>2011-05-27T14:06:46Z</time>
      </trkpt>
      <trkpt lat="47.14437" lon="5.4557">
        <ele>202.494873</ele>
        <time>2011-05-27T14:06:51Z</time>
      </trkpt>
      <trkpt lat="47.14408" lon="5.45577">
        <ele>202.975464</ele>
        <time>2011-05-27T14:06:57Z</time>
      </trkpt>
      <trkpt lat="47.14403" lon="5.45579">
        <ele>202.975464</ele>
        <time>2011-05-27T14:06:58Z</time>
      </trkpt>
      <trkpt lat="47.14372" lon="5.45602">
        <ele>203.93689</ele>
        <time>2011-05-27T14:07:05Z</time>
      </trkpt>
      <trkpt lat="47.14346" lon="5.45627">
        <ele>203.93689</ele>
        <time>2011-05-27T14:07:12Z</time>
      </trkpt>
      <trkpt lat="47.14333" lon="5.4564">
        <ele>203.93689</ele>
        <time>2011-05-27T14:07:16Z</time>
      </trkpt>
      <trkpt lat="47.14308" lon="5.45664">
        <ele>204.898071</ele>
        <time>2011-05-27T14:07:24Z</time>
      </trkpt>
      <trkpt lat="47.14283" lon="5.45676">
        <ele>206.820679</ele>
        <time>2011-05-27T14:07:30Z</time>
      </trkpt>
      <trkpt lat="47.14264" lon="5.4568">
        <ele>208.262817</ele>
        <time>2011-05-27T14:07:34Z</time>
      </trkpt>
      <trkpt lat="47.14243" lon="5.45681">
        <ele>209.224121</ele>
        <time>2011-05-27T14:07:38Z</time>
      </trkpt>
      <trkpt lat="47.14227" lon="5.45679">
        <ele>210.185425</ele>
        <time>2011-05-27T14:07:41Z</time>
      </trkpt>
      <trkpt lat="47.14195" lon="5.4567">
        <ele>210.666016</ele>
        <time>2011-05-27T14:07:48Z</time>
      </trkpt>
      <trkpt lat="47.14161" lon="5.45656">
        <ele>210.666016</ele>
        <time>2011-05-27T14:07:56Z</time>
      </trkpt>
      <trkpt lat="47.14113" lon="5.45633">
        <ele>210.666016</ele>
        <time>2011-05-27T14:08:06Z</time>
      </trkpt>
      <trkpt lat="47.14063" lon="5.45613">
        <ele>209.704834</ele>
        <time>2011-05-27T14:08:16Z</time>
      </trkpt>
      <trkpt lat="47.14053" lon="5.45612">
        <ele>209.704834</ele>
        <time>2011-05-27T14:08:18Z</time>
      </trkpt>
      <trkpt lat="47.14038" lon="5.45599">
        <ele>208.743408</ele>
        <time>2011-05-27T14:08:22Z</time>
      </trkpt>
      <trkpt lat="47.14033" lon="5.45569">
        <ele>207.782104</ele>
        <time>2011-05-27T14:08:26Z</time>
      </trkpt>
      <trkpt lat="47.14033" lon="5.45552">
        <ele>206.820679</ele>
        <time>2011-05-27T14:08:28Z</time>
      </trkpt>
      <trkpt lat="47.14035" lon="5.45533">
        <ele>206.340088</ele>
        <time>2011-05-27T14:08:30Z</time>
      </trkpt>
      <trkpt lat="47.14041" lon="5.45506">
        <ele>206.340088</ele>
        <time>2011-05-27T14:08:33Z</time>
      </trkpt>
      <trkpt lat="47.14045" lon="5.45497">
        <ele>206.340088</ele>
        <time>2011-05-27T14:08:34Z</time>
      </trkpt>
      <trkpt lat="47.14078" lon="5.45427">
        <ele>204.898071</ele>
        <time>2011-05-27T14:08:42Z</time>
      </trkpt>
      <trkpt lat="47.14096" lon="5.4537">
        <ele>204.41748</ele>
        <time>2011-05-27T14:08:48Z</time>
      </trkpt>
      <trkpt lat="47.14105" lon="5.45313">
        <ele>202.975464</ele>
        <time>2011-05-27T14:08:53Z</time>
      </trkpt>
      <trkpt lat="47.14105" lon="5.45254">
        <ele>202.975464</ele>
        <time>2011-05-27T14:08:58Z</time>
      </trkpt>
      <trkpt lat="47.14099" lon="5.45195">
        <ele>204.41748</ele>
        <time>2011-05-27T14:09:04Z</time>
      </trkpt>
      <trkpt lat="47.14091" lon="5.45151">
        <ele>205.859497</ele>
        <time>2011-05-27T14:09:09Z</time>
      </trkpt>
      <trkpt lat="47.14082" lon="5.45117">
        <ele>207.301392</ele>
        <time>2011-05-27T14:09:13Z</time>
      </trkpt>
      <trkpt lat="47.14076" lon="5.451">
        <ele>207.782104</ele>
        <time>2011-05-27T14:09:15Z</time>
      </trkpt>
      <trkpt lat="47.14049" lon="5.45033">
        <ele>207.301392</ele>
        <time>2011-05-27T14:09:23Z</time>
      </trkpt>
      <trkpt lat="47.14027" lon="5.44986">
        <ele>205.378784</ele>
        <time>2011-05-27T14:09:28Z</time>
      </trkpt>
      <trkpt lat="47.1399" lon="5.44901">
        <ele>201.533569</ele>
        <time>2011-05-27T14:09:36Z</time>
      </trkpt>
      <trkpt lat="47.13952" lon="5.44806">
        <ele>200.572266</ele>
        <time>2011-05-27T14:09:45Z</time>
      </trkpt>
      <trkpt lat="47.13941" lon="5.4475">
        <ele>200.572266</ele>
        <time>2011-05-27T14:09:50Z</time>
      </trkpt>
      <trkpt lat="47.13932" lon="5.44707">
        <ele>200.572266</ele>
        <time>2011-05-27T14:09:54Z</time>
      </trkpt>
      <trkpt lat="47.13914" lon="5.44672">
        <ele>200.572266</ele>
        <time>2011-05-27T14:09:58Z</time>
      </trkpt>
      <trkpt lat="47.13857" lon="5.44603">
        <ele>200.091675</ele>
        <time>2011-05-27T14:10:07Z</time>
      </trkpt>
      <trkpt lat="47.13818" lon="5.44554">
        <ele>200.572266</ele>
        <time>2011-05-27T14:10:13Z</time>
      </trkpt>
      <trkpt lat="47.13781" lon="5.44512">
        <ele>201.052856</ele>
        <time>2011-05-27T14:10:19Z</time>
      </trkpt>
      <trkpt lat="47.13742" lon="5.44482">
        <ele>202.494873</ele>
        <time>2011-05-27T14:10:25Z</time>
      </trkpt>
      <trkpt lat="47.13737" lon="5.44477">
        <ele>202.975464</ele>
        <time>2011-05-27T14:10:26Z</time>
      </trkpt>
      <trkpt lat="47.13719" lon="5.44444">
        <ele>204.41748</ele>
        <time>2011-05-27T14:10:31Z</time>
      </trkpt>
      <trkpt lat="47.13721" lon="5.44409">
        <ele>203.93689</ele>
        <time>2011-05-27T14:10:35Z</time>
      </trkpt>
      <trkpt lat="47.13723" lon="5.44372">
        <ele>202.014282</ele>
        <time>2011-05-27T14:10:39Z</time>
      </trkpt>
      <trkpt lat="47.13715" lon="5.44343">
        <ele>200.572266</ele>
        <time>2011-05-27T14:10:43Z</time>
      </trkpt>
      <trkpt lat="47.13704" lon="5.44336">
        <ele>200.572266</ele>
        <time>2011-05-27T14:10:45Z</time>
      </trkpt>
      <trkpt lat="47.1366" lon="5.44315">
        <ele>202.014282</ele>
        <time>2011-05-27T14:10:52Z</time>
      </trkpt>
      <trkpt lat="47.13628" lon="5.44298">
        <ele>200.572266</ele>
        <time>2011-05-27T14:10:57Z</time>
      </trkpt>
      <trkpt lat="47.13586" lon="5.44264">
        <ele>201.052856</ele>
        <time>2011-05-27T14:11:04Z</time>
      </trkpt>
      <trkpt lat="47.13554" lon="5.44238">
        <ele>200.572266</ele>
        <time>2011-05-27T14:11:09Z</time>
      </trkpt>
      <trkpt lat="47.13541" lon="5.44211">
        <ele>202.014282</ele>
        <time>2011-05-27T14:11:13Z</time>
      </trkpt>
      <trkpt lat="47.1354" lon="5.44201">
        <ele>202.014282</ele>
        <time>2011-05-27T14:11:14Z</time>
      </trkpt>
      <trkpt lat="47.13532" lon="5.4412">
        <ele>198.649536</ele>
        <time>2011-05-27T14:11:22Z</time>
      </trkpt>
      <trkpt lat="47.13524" lon="5.44062">
        <ele>196.246338</ele>
        <time>2011-05-27T14:11:28Z</time>
      </trkpt>
      <trkpt lat="47.13517" lon="5.44022">
        <ele>196.246338</ele>
        <time>2011-05-27T14:11:32Z</time>
      </trkpt>
      <trkpt lat="47.13502" lon="5.43982">
        <ele>197.688232</ele>
        <time>2011-05-27T14:11:37Z</time>
      </trkpt>
      <trkpt lat="47.13498" lon="5.43977">
        <ele>197.688232</ele>
        <time>2011-05-27T14:11:38Z</time>
      </trkpt>
      <trkpt lat="47.13464" lon="5.43942">
        <ele>200.572266</ele>
        <time>2011-05-27T14:11:45Z</time>
      </trkpt>
      <trkpt lat="47.13446" lon="5.43917">
        <ele>202.975464</ele>
        <time>2011-05-27T14:11:50Z</time>
      </trkpt>
      <trkpt lat="47.13428" lon="5.43904">
        <ele>203.93689</ele>
        <time>2011-05-27T14:11:55Z</time>
      </trkpt>
      <trkpt lat="47.13412" lon="5.43899">
        <ele>205.859497</ele>
        <time>2011-05-27T14:11:59Z</time>
      </trkpt>
      <trkpt lat="47.13396" lon="5.43887">
        <ele>207.301392</ele>
        <time>2011-05-27T14:12:03Z</time>
      </trkpt>
      <trkpt lat="47.13377" lon="5.43856">
        <ele>209.704834</ele>
        <time>2011-05-27T14:12:09Z</time>
      </trkpt>
      <trkpt lat="47.13346" lon="5.43809">
        <ele>211.146729</ele>
        <time>2011-05-27T14:12:19Z</time>
      </trkpt>
      <trkpt lat="47.13326" lon="5.43781">
        <ele>212.108032</ele>
        <time>2011-05-27T14:12:26Z</time>
      </trkpt>
      <trkpt lat="47.13307" lon="5.4375">
        <ele>213.550049</ele>
        <time>2011-05-27T14:12:34Z</time>
      </trkpt>
      <trkpt lat="47.13297" lon="5.43734">
        <ele>214.51123</ele>
        <time>2011-05-27T14:12:40Z</time>
      </trkpt>
      <trkpt lat="47.13294" lon="5.43726">
        <ele>213.550049</ele>
        <time>2011-05-27T14:12:46Z</time>
      </trkpt>
      <trkpt lat="47.13295" lon="5.43728">
        <ele>214.991943</ele>
        <time>2011-05-27T14:12:58Z</time>
      </trkpt>
      <trkpt lat="47.13295" lon="5.43727">
        <ele>215.953247</ele>
        <time>2011-05-27T14:13:04Z</time>
      </trkpt>
      <trkpt lat="47.13296" lon="5.43726">
        <ele>216.914673</ele>
        <time>2011-05-27T14:13:09Z</time>
      </trkpt>
      <trkpt lat="47.13295" lon="5.43727">
        <ele>217.395386</ele>
        <time>2011-05-27T14:13:18Z</time>
      </trkpt>
      <trkpt lat="47.13295" lon="5.43728">
        <ele>217.395386</ele>
        <time>2011-05-27T14:13:24Z</time>
      </trkpt>
      <trkpt lat="47.13298" lon="5.43728">
        <ele>220.759888</ele>
        <time>2011-05-27T14:13:39Z</time>
      </trkpt>
      <trkpt lat="47.13299" lon="5.43724">
        <ele>225.085938</ele>
        <time>2011-05-27T14:13:52Z</time>
      </trkpt>
      <trkpt lat="47.13305" lon="5.43706">
        <ele>225.085938</ele>
        <time>2011-05-27T14:13:58Z</time>
      </trkpt>
      <trkpt lat="47.13321" lon="5.43672">
        <ele>225.085938</ele>
        <time>2011-05-27T14:14:04Z</time>
      </trkpt>
      <trkpt lat="47.13337" lon="5.43637">
        <ele>225.085938</ele>
        <time>2011-05-27T14:14:09Z</time>
      </trkpt>
      <trkpt lat="47.13369" lon="5.43573">
        <ele>224.124512</ele>
        <time>2011-05-27T14:14:17Z</time>
      </trkpt>
      <trkpt lat="47.13409" lon="5.43494">
        <ele>223.163208</ele>
        <time>2011-05-27T14:14:26Z</time>
      </trkpt>
      <trkpt lat="47.1345" lon="5.43412">
        <ele>221.721191</ele>
        <time>2011-05-27T14:14:35Z</time>
      </trkpt>
      <trkpt lat="47.13497" lon="5.4332">
        <ele>221.240601</ele>
        <time>2011-05-27T14:14:45Z</time>
      </trkpt>
      <trkpt lat="47.13548" lon="5.43218">
        <ele>220.279175</ele>
        <time>2011-05-27T14:14:56Z</time>
      </trkpt>
      <trkpt lat="47.13583" lon="5.4315">
        <ele>220.279175</ele>
        <time>2011-05-27T14:15:04Z</time>
      </trkpt>
      <trkpt lat="47.13626" lon="5.43064">
        <ele>219.317993</ele>
        <time>2011-05-27T14:15:14Z</time>
      </trkpt>
      <trkpt lat="47.13663" lon="5.42993">
        <ele>216.914673</ele>
        <time>2011-05-27T14:15:21Z</time>
      </trkpt>
      <trkpt lat="47.13706" lon="5.42919">
        <ele>214.03064</ele>
        <time>2011-05-27T14:15:28Z</time>
      </trkpt>
      <trkpt lat="47.13746" lon="5.42867">
        <ele>214.03064</ele>
        <time>2011-05-27T14:15:34Z</time>
      </trkpt>
      <trkpt lat="47.13792" lon="5.42818">
        <ele>214.991943</ele>
        <time>2011-05-27T14:15:41Z</time>
      </trkpt>
      <trkpt lat="47.13826" lon="5.42783">
        <ele>215.953247</ele>
        <time>2011-05-27T14:15:47Z</time>
      </trkpt>
      <trkpt lat="47.13879" lon="5.4273">
        <ele>215.472656</ele>
        <time>2011-05-27T14:15:57Z</time>
      </trkpt>
      <trkpt lat="47.13937" lon="5.42674">
        <ele>210.666016</ele>
        <time>2011-05-27T14:16:08Z</time>
      </trkpt>
      <trkpt lat="47.13967" lon="5.42647">
        <ele>206.340088</ele>
        <time>2011-05-27T14:16:14Z</time>
      </trkpt>
      <trkpt lat="47.13972" lon="5.42643">
        <ele>205.859497</ele>
        <time>2011-05-27T14:16:15Z</time>
      </trkpt>
      <trkpt lat="47.13984" lon="5.42637">
        <ele>203.93689</ele>
        <time>2011-05-27T14:16:18Z</time>
      </trkpt>
      <trkpt lat="47.13998" lon="5.42628">
        <ele>204.41748</ele>
        <time>2011-05-27T14:16:22Z</time>
      </trkpt>
      <trkpt lat="47.14007" lon="5.42609">
        <ele>204.898071</ele>
        <time>2011-05-27T14:16:27Z</time>
      </trkpt>
      <trkpt lat="47.14008" lon="5.42603">
        <ele>205.378784</ele>
        <time>2011-05-27T14:16:31Z</time>
      </trkpt>
      <trkpt lat="47.14008" lon="5.42603">
        <ele>205.859497</ele>
        <time>2011-05-27T14:16:40Z</time>
      </trkpt>
      <trkpt lat="47.14009" lon="5.42598">
        <ele>206.820679</ele>
        <time>2011-05-27T14:16:48Z</time>
      </trkpt>
      <trkpt lat="47.14024" lon="5.4258">
        <ele>207.782104</ele>
        <time>2011-05-27T14:16:55Z</time>
      </trkpt>
      <trkpt lat="47.14049" lon="5.42552">
        <ele>208.262817</ele>
        <time>2011-05-27T14:17:01Z</time>
      </trkpt>
      <trkpt lat="47.14091" lon="5.42505">
        <ele>208.262817</ele>
        <time>2011-05-27T14:17:09Z</time>
      </trkpt>
      <trkpt lat="47.1416" lon="5.42428">
        <ele>206.340088</ele>
        <time>2011-05-27T14:17:21Z</time>
      </trkpt>
      <trkpt lat="47.14214" lon="5.42368">
        <ele>202.014282</ele>
        <time>2011-05-27T14:17:31Z</time>
      </trkpt>
      <trkpt lat="47.14237" lon="5.42338">
        <ele>200.572266</ele>
        <time>2011-05-27T14:17:36Z</time>
      </trkpt>
      <trkpt lat="47.14241" lon="5.42316">
        <ele>200.572266</ele>
        <time>2011-05-27T14:17:40Z</time>
      </trkpt>
      <trkpt lat="47.14235" lon="5.42281">
        <ele>200.091675</ele>
        <time>2011-05-27T14:17:45Z</time>
      </trkpt>
      <trkpt lat="47.14225" lon="5.42229">
        <ele>199.61084</ele>
        <time>2011-05-27T14:17:50Z</time>
      </trkpt>
      <trkpt lat="47.14206" lon="5.42157">
        <ele>197.688232</ele>
        <time>2011-05-27T14:17:56Z</time>
      </trkpt>
      <trkpt lat="47.14195" lon="5.42094">
        <ele>197.20752</ele>
        <time>2011-05-27T14:18:01Z</time>
      </trkpt>
      <trkpt lat="47.14184" lon="5.42005">
        <ele>196.246338</ele>
        <time>2011-05-27T14:18:08Z</time>
      </trkpt>
      <trkpt lat="47.14171" lon="5.41925">
        <ele>195.765625</ele>
        <time>2011-05-27T14:18:15Z</time>
      </trkpt>
      <trkpt lat="47.14164" lon="5.41889">
        <ele>196.246338</ele>
        <time>2011-05-27T14:18:19Z</time>
      </trkpt>
      <trkpt lat="47.14156" lon="5.41826">
        <ele>196.246338</ele>
        <time>2011-05-27T14:18:27Z</time>
      </trkpt>
      <trkpt lat="47.14148" lon="5.4178">
        <ele>198.168945</ele>
        <time>2011-05-27T14:18:33Z</time>
      </trkpt>
      <trkpt lat="47.14138" lon="5.41733">
        <ele>197.688232</ele>
        <time>2011-05-27T14:18:40Z</time>
      </trkpt>
      <trkpt lat="47.14127" lon="5.41687">
        <ele>198.168945</ele>
        <time>2011-05-27T14:18:46Z</time>
      </trkpt>
      <trkpt lat="47.1412" lon="5.41631">
        <ele>198.168945</ele>
        <time>2011-05-27T14:18:52Z</time>
      </trkpt>
      <trkpt lat="47.14121" lon="5.41575">
        <ele>199.130127</ele>
        <time>2011-05-27T14:18:58Z</time>
      </trkpt>
      <trkpt lat="47.14121" lon="5.4155">
        <ele>198.168945</ele>
        <time>2011-05-27T14:19:01Z</time>
      </trkpt>
      <trkpt lat="47.14111" lon="5.41512">
        <ele>198.168945</ele>
        <time>2011-05-27T14:19:06Z</time>
      </trkpt>
      <trkpt lat="47.1411" lon="5.41504">
        <ele>199.130127</ele>
        <time>2011-05-27T14:19:07Z</time>
      </trkpt>
      <trkpt lat="47.14106" lon="5.41436">
        <ele>201.533569</ele>
        <time>2011-05-27T14:19:14Z</time>
      </trkpt>
      <trkpt lat="47.14103" lon="5.41397">
        <ele>202.975464</ele>
        <time>2011-05-27T14:19:18Z</time>
      </trkpt>
      <trkpt lat="47.14101" lon="5.4138">
        <ele>203.456177</ele>
        <time>2011-05-27T14:19:20Z</time>
      </trkpt>
      <trkpt lat="47.14097" lon="5.41316">
        <ele>204.898071</ele>
        <time>2011-05-27T14:19:27Z</time>
      </trkpt>
      <trkpt lat="47.14094" lon="5.41223">
        <ele>205.378784</ele>
        <time>2011-05-27T14:19:37Z</time>
      </trkpt>
      <trkpt lat="47.14088" lon="5.41148">
        <ele>204.41748</ele>
        <time>2011-05-27T14:19:45Z</time>
      </trkpt>
      <trkpt lat="47.14071" lon="5.41063">
        <ele>202.014282</ele>
        <time>2011-05-27T14:19:54Z</time>
      </trkpt>
      <trkpt lat="47.14052" lon="5.40996">
        <ele>198.649536</ele>
        <time>2011-05-27T14:20:00Z</time>
      </trkpt>
      <trkpt lat="47.14026" lon="5.40899">
        <ele>196.726929</ele>
        <time>2011-05-27T14:20:08Z</time>
      </trkpt>
      <trkpt lat="47.14007" lon="5.40829">
        <ele>196.726929</ele>
        <time>2011-05-27T14:20:14Z</time>
      </trkpt>
      <trkpt lat="47.13988" lon="5.40789">
        <ele>197.688232</ele>
        <time>2011-05-27T14:20:18Z</time>
      </trkpt>
      <trkpt lat="47.13956" lon="5.40742">
        <ele>200.091675</ele>
        <time>2011-05-27T14:20:24Z</time>
      </trkpt>
      <trkpt lat="47.13932" lon="5.40706">
        <ele>202.494873</ele>
        <time>2011-05-27T14:20:29Z</time>
      </trkpt>
      <trkpt lat="47.13911" lon="5.40659">
        <ele>202.975464</ele>
        <time>2011-05-27T14:20:35Z</time>
      </trkpt>
      <trkpt lat="47.13896" lon="5.40607">
        <ele>202.494873</ele>
        <time>2011-05-27T14:20:41Z</time>
      </trkpt>
      <trkpt lat="47.13876" lon="5.40541">
        <ele>199.130127</ele>
        <time>2011-05-27T14:20:47Z</time>
      </trkpt>
      <trkpt lat="47.13851" lon="5.40466">
        <ele>196.726929</ele>
        <time>2011-05-27T14:20:53Z</time>
      </trkpt>
      <trkpt lat="47.13813" lon="5.40363">
        <ele>193.362305</ele>
        <time>2011-05-27T14:21:01Z</time>
      </trkpt>
      <trkpt lat="47.13796" lon="5.40301">
        <ele>191.920288</ele>
        <time>2011-05-27T14:21:06Z</time>
      </trkpt>
      <trkpt lat="47.13782" lon="5.40213">
        <ele>190.478394</ele>
        <time>2011-05-27T14:21:13Z</time>
      </trkpt>
      <trkpt lat="47.1378" lon="5.40141">
        <ele>186.633179</ele>
        <time>2011-05-27T14:21:19Z</time>
      </trkpt>
      <trkpt lat="47.1379" lon="5.40096">
        <ele>185.671753</ele>
        <time>2011-05-27T14:21:23Z</time>
      </trkpt>
      <trkpt lat="47.13814" lon="5.40021">
        <ele>186.633179</ele>
        <time>2011-05-27T14:21:30Z</time>
      </trkpt>
      <trkpt lat="47.1382" lon="5.39981">
        <ele>186.152466</ele>
        <time>2011-05-27T14:21:34Z</time>
      </trkpt>
      <trkpt lat="47.13823" lon="5.39936">
        <ele>187.11377</ele>
        <time>2011-05-27T14:21:40Z</time>
      </trkpt>
      <trkpt lat="47.13824" lon="5.3993">
        <ele>187.59436</ele>
        <time>2011-05-27T14:21:41Z</time>
      </trkpt>
      <trkpt lat="47.13827" lon="5.3992">
        <ele>188.555786</ele>
        <time>2011-05-27T14:21:44Z</time>
      </trkpt>
      <trkpt lat="47.13837" lon="5.399">
        <ele>188.555786</ele>
        <time>2011-05-27T14:21:50Z</time>
      </trkpt>
      <trkpt lat="47.13857" lon="5.39879">
        <ele>188.075073</ele>
        <time>2011-05-27T14:21:55Z</time>
      </trkpt>
      <trkpt lat="47.13893" lon="5.39845">
        <ele>189.036377</ele>
        <time>2011-05-27T14:22:02Z</time>
      </trkpt>
      <trkpt lat="47.13927" lon="5.39812">
        <ele>190.958984</ele>
        <time>2011-05-27T14:22:09Z</time>
      </trkpt>
      <trkpt lat="47.13962" lon="5.39785">
        <ele>191.439575</ele>
        <time>2011-05-27T14:22:16Z</time>
      </trkpt>
      <trkpt lat="47.1399" lon="5.39776">
        <ele>191.439575</ele>
        <time>2011-05-27T14:22:21Z</time>
      </trkpt>
      <trkpt lat="47.14023" lon="5.39762">
        <ele>190.958984</ele>
        <time>2011-05-27T14:22:27Z</time>
      </trkpt>
      <trkpt lat="47.14052" lon="5.3973">
        <ele>191.439575</ele>
        <time>2011-05-27T14:22:33Z</time>
      </trkpt>
      <trkpt lat="47.14087" lon="5.39673">
        <ele>192.401123</ele>
        <time>2011-05-27T14:22:42Z</time>
      </trkpt>
      <trkpt lat="47.14118" lon="5.3962">
        <ele>190.478394</ele>
        <time>2011-05-27T14:22:50Z</time>
      </trkpt>
      <trkpt lat="47.14147" lon="5.39567">
        <ele>188.555786</ele>
        <time>2011-05-27T14:22:57Z</time>
      </trkpt>
      <trkpt lat="47.14183" lon="5.39507">
        <ele>188.075073</ele>
        <time>2011-05-27T14:23:05Z</time>
      </trkpt>
      <trkpt lat="47.1422" lon="5.39465">
        <ele>188.555786</ele>
        <time>2011-05-27T14:23:12Z</time>
      </trkpt>
      <trkpt lat="47.14262" lon="5.39431">
        <ele>188.075073</ele>
        <time>2011-05-27T14:23:19Z</time>
      </trkpt>
      <trkpt lat="47.14295" lon="5.39397">
        <ele>187.59436</ele>
        <time>2011-05-27T14:23:25Z</time>
      </trkpt>
      <trkpt lat="47.14326" lon="5.3935">
        <ele>187.59436</ele>
        <time>2011-05-27T14:23:32Z</time>
      </trkpt>
      <trkpt lat="47.14362" lon="5.39304">
        <ele>188.075073</ele>
        <time>2011-05-27T14:23:40Z</time>
      </trkpt>
      <trkpt lat="47.14389" lon="5.39271">
        <ele>187.59436</ele>
        <time>2011-05-27T14:23:46Z</time>
      </trkpt>
      <trkpt lat="47.14402" lon="5.39259">
        <ele>188.075073</ele>
        <time>2011-05-27T14:23:49Z</time>
      </trkpt>
      <trkpt lat="47.14435" lon="5.39233">
        <ele>187.59436</ele>
        <time>2011-05-27T14:23:57Z</time>
      </trkpt>
      <trkpt lat="47.14462" lon="5.39229">
        <ele>190.478394</ele>
        <time>2011-05-27T14:24:04Z</time>
      </trkpt>
      <trkpt lat="47.14489" lon="5.39229">
        <ele>192.401123</ele>
        <time>2011-05-27T14:24:11Z</time>
      </trkpt>
      <trkpt lat="47.14517" lon="5.39225">
        <ele>193.362305</ele>
        <time>2011-05-27T14:24:18Z</time>
      </trkpt>
      <trkpt lat="47.14556" lon="5.39213">
        <ele>192.401123</ele>
        <time>2011-05-27T14:24:26Z</time>
      </trkpt>
      <trkpt lat="47.14602" lon="5.39193">
        <ele>189.997681</ele>
        <time>2011-05-27T14:24:34Z</time>
      </trkpt>
      <trkpt lat="47.14644" lon="5.39174">
        <ele>187.11377</ele>
        <time>2011-05-27T14:24:41Z</time>
      </trkpt>
      <trkpt lat="47.14676" lon="5.39157">
        <ele>185.671753</ele>
        <time>2011-05-27T14:24:46Z</time>
      </trkpt>
      <trkpt lat="47.14705" lon="5.39126">
        <ele>185.191162</ele>
        <time>2011-05-27T14:24:52Z</time>
      </trkpt>
      <trkpt lat="47.14722" lon="5.39092">
        <ele>184.229858</ele>
        <time>2011-05-27T14:24:57Z</time>
      </trkpt>
      <trkpt lat="47.14727" lon="5.3905">
        <ele>183.268433</ele>
        <time>2011-05-27T14:25:02Z</time>
      </trkpt>
      <trkpt lat="47.14728" lon="5.39033">
        <ele>182.787842</ele>
        <time>2011-05-27T14:25:04Z</time>
      </trkpt>
      <trkpt lat="47.14728" lon="5.39016">
        <ele>181.345825</ele>
        <time>2011-05-27T14:25:06Z</time>
      </trkpt>
      <trkpt lat="47.1472" lon="5.38983">
        <ele>180.865234</ele>
        <time>2011-05-27T14:25:10Z</time>
      </trkpt>
      <trkpt lat="47.14699" lon="5.38929">
        <ele>181.826416</ele>
        <time>2011-05-27T14:25:17Z</time>
      </trkpt>
      <trkpt lat="47.14693" lon="5.38908">
        <ele>182.307129</ele>
        <time>2011-05-27T14:25:20Z</time>
      </trkpt>
      <trkpt lat="47.1469" lon="5.38891">
        <ele>181.826416</ele>
        <time>2011-05-27T14:25:23Z</time>
      </trkpt>
      <trkpt lat="47.1469" lon="5.3888">
        <ele>182.307129</ele>
        <time>2011-05-27T14:25:26Z</time>
      </trkpt>
      <trkpt lat="47.14688" lon="5.38876">
        <ele>180.865234</ele>
        <time>2011-05-27T14:25:31Z</time>
      </trkpt>
      <trkpt lat="47.14688" lon="5.38875">
        <ele>187.11377</ele>
        <time>2011-05-27T14:25:44Z</time>
      </trkpt>
      <trkpt lat="47.14688" lon="5.38874">
        <ele>186.633179</ele>
        <time>2011-05-27T14:26:03Z</time>
      </trkpt>
      <trkpt lat="47.1469" lon="5.38872">
        <ele>185.191162</ele>
        <time>2011-05-27T14:26:14Z</time>
      </trkpt>
      <trkpt lat="47.1469" lon="5.38868">
        <ele>186.633179</ele>
        <time>2011-05-27T14:26:21Z</time>
      </trkpt>
      <trkpt lat="47.14694" lon="5.38857">
        <ele>188.555786</ele>
        <time>2011-05-27T14:26:26Z</time>
      </trkpt>
      <trkpt lat="47.14696" lon="5.38855">
        <ele>188.555786</ele>
        <time>2011-05-27T14:26:27Z</time>
      </trkpt>
      <trkpt lat="47.14717" lon="5.38831">
        <ele>189.516968</ele>
        <time>2011-05-27T14:26:34Z</time>
      </trkpt>
      <trkpt lat="47.14741" lon="5.38806">
        <ele>189.036377</ele>
        <time>2011-05-27T14:26:40Z</time>
      </trkpt>
      <trkpt lat="47.14763" lon="5.38787">
        <ele>189.036377</ele>
        <time>2011-05-27T14:26:46Z</time>
      </trkpt>
      <trkpt lat="47.14792" lon="5.38754">
        <ele>189.036377</ele>
        <time>2011-05-27T14:26:54Z</time>
      </trkpt>
      <trkpt lat="47.14816" lon="5.3872">
        <ele>187.59436</ele>
        <time>2011-05-27T14:27:00Z</time>
      </trkpt>
      <trkpt lat="47.14847" lon="5.38684">
        <ele>186.152466</ele>
        <time>2011-05-27T14:27:06Z</time>
      </trkpt>
      <trkpt lat="47.14886" lon="5.38652">
        <ele>185.191162</ele>
        <time>2011-05-27T14:27:13Z</time>
      </trkpt>
      <trkpt lat="47.1494" lon="5.38611">
        <ele>184.710571</ele>
        <time>2011-05-27T14:27:23Z</time>
      </trkpt>
      <trkpt lat="47.14995" lon="5.38577">
        <ele>184.710571</ele>
        <time>2011-05-27T14:27:33Z</time>
      </trkpt>
      <trkpt lat="47.15043" lon="5.38552">
        <ele>184.710571</ele>
        <time>2011-05-27T14:27:41Z</time>
      </trkpt>
      <trkpt lat="47.15093" lon="5.38516">
        <ele>183.749023</ele>
        <time>2011-05-27T14:27:49Z</time>
      </trkpt>
      <trkpt lat="47.15148" lon="5.38484">
        <ele>183.268433</ele>
        <time>2011-05-27T14:27:57Z</time>
      </trkpt>
      <trkpt lat="47.15215" lon="5.38449">
        <ele>183.268433</ele>
        <time>2011-05-27T14:28:07Z</time>
      </trkpt>
      <trkpt lat="47.15258" lon="5.38414">
        <ele>183.268433</ele>
        <time>2011-05-27T14:28:14Z</time>
      </trkpt>
      <trkpt lat="47.15323" lon="5.38369">
        <ele>182.787842</ele>
        <time>2011-05-27T14:28:24Z</time>
      </trkpt>
      <trkpt lat="47.15369" lon="5.38337">
        <ele>182.307129</ele>
        <time>2011-05-27T14:28:31Z</time>
      </trkpt>
      <trkpt lat="47.15415" lon="5.38308">
        <ele>181.826416</ele>
        <time>2011-05-27T14:28:38Z</time>
      </trkpt>
      <trkpt lat="47.15477" lon="5.38267">
        <ele>182.307129</ele>
        <time>2011-05-27T14:28:47Z</time>
      </trkpt>
      <trkpt lat="47.15512" lon="5.38247">
        <ele>181.826416</ele>
        <time>2011-05-27T14:28:52Z</time>
      </trkpt>
      <trkpt lat="47.15564" lon="5.38243">
        <ele>181.826416</ele>
        <time>2011-05-27T14:28:59Z</time>
      </trkpt>
      <trkpt lat="47.15629" lon="5.38244">
        <ele>181.826416</ele>
        <time>2011-05-27T14:29:08Z</time>
      </trkpt>
      <trkpt lat="47.15695" lon="5.38235">
        <ele>181.345825</ele>
        <time>2011-05-27T14:29:17Z</time>
      </trkpt>
      <trkpt lat="47.15732" lon="5.38212">
        <ele>180.865234</ele>
        <time>2011-05-27T14:29:23Z</time>
      </trkpt>
      <trkpt lat="47.15737" lon="5.38206">
        <ele>180.384521</ele>
        <time>2011-05-27T14:29:24Z</time>
      </trkpt>
      <trkpt lat="47.15755" lon="5.38177">
        <ele>179.903809</ele>
        <time>2011-05-27T14:29:28Z</time>
      </trkpt>
      <trkpt lat="47.1578" lon="5.38111">
        <ele>179.903809</ele>
        <time>2011-05-27T14:29:35Z</time>
      </trkpt>
      <trkpt lat="47.15791" lon="5.38084">
        <ele>178.942627</ele>
        <time>2011-05-27T14:29:38Z</time>
      </trkpt>
      <trkpt lat="47.15813" lon="5.38057">
        <ele>178.461914</ele>
        <time>2011-05-27T14:29:42Z</time>
      </trkpt>
      <trkpt lat="47.1582" lon="5.38053">
        <ele>177.981201</ele>
        <time>2011-05-27T14:29:43Z</time>
      </trkpt>
      <trkpt lat="47.15875" lon="5.38037">
        <ele>178.942627</ele>
        <time>2011-05-27T14:29:51Z</time>
      </trkpt>
      <trkpt lat="47.15931" lon="5.38023">
        <ele>177.981201</ele>
        <time>2011-05-27T14:29:59Z</time>
      </trkpt>
      <trkpt lat="47.16" lon="5.38008">
        <ele>177.981201</ele>
        <time>2011-05-27T14:30:09Z</time>
      </trkpt>
      <trkpt lat="47.16063" lon="5.37998">
        <ele>177.50061</ele>
        <time>2011-05-27T14:30:18Z</time>
      </trkpt>
      <trkpt lat="47.16124" lon="5.37999">
        <ele>176.539307</ele>
        <time>2011-05-27T14:30:26Z</time>
      </trkpt>
      <trkpt lat="47.16167" lon="5.38016">
        <ele>177.02002</ele>
        <time>2011-05-27T14:30:32Z</time>
      </trkpt>
      <trkpt lat="47.16245" lon="5.38051">
        <ele>176.539307</ele>
        <time>2011-05-27T14:30:43Z</time>
      </trkpt>
      <trkpt lat="47.16312" lon="5.38073">
        <ele>176.539307</ele>
        <time>2011-05-27T14:30:52Z</time>
      </trkpt>
      <trkpt lat="47.16386" lon="5.38096">
        <ele>176.058594</ele>
        <time>2011-05-27T14:31:02Z</time>
      </trkpt>
      <trkpt lat="47.16451" lon="5.38117">
        <ele>175.09729</ele>
        <time>2011-05-27T14:31:11Z</time>
      </trkpt>
      <trkpt lat="47.16525" lon="5.38141">
        <ele>174.616577</ele>
        <time>2011-05-27T14:31:21Z</time>
      </trkpt>
      <trkpt lat="47.16581" lon="5.3817">
        <ele>175.09729</ele>
        <time>2011-05-27T14:31:29Z</time>
      </trkpt>
      <trkpt lat="47.16656" lon="5.38214">
        <ele>175.09729</ele>
        <time>2011-05-27T14:31:40Z</time>
      </trkpt>
      <trkpt lat="47.16713" lon="5.38244">
        <ele>175.09729</ele>
        <time>2011-05-27T14:31:48Z</time>
      </trkpt>
      <trkpt lat="47.16773" lon="5.38263">
        <ele>175.577881</ele>
        <time>2011-05-27T14:31:56Z</time>
      </trkpt>
      <trkpt lat="47.1682" lon="5.38267">
        <ele>175.577881</ele>
        <time>2011-05-27T14:32:02Z</time>
      </trkpt>
      <trkpt lat="47.16876" lon="5.38259">
        <ele>176.058594</ele>
        <time>2011-05-27T14:32:09Z</time>
      </trkpt>
      <trkpt lat="47.16947" lon="5.38252">
        <ele>177.02002</ele>
        <time>2011-05-27T14:32:18Z</time>
      </trkpt>
      <trkpt lat="47.17006" lon="5.38257">
        <ele>176.539307</ele>
        <time>2011-05-27T14:32:25Z</time>
      </trkpt>
      <trkpt lat="47.17104" lon="5.38267">
        <ele>177.50061</ele>
        <time>2011-05-27T14:32:37Z</time>
      </trkpt>
      <trkpt lat="47.1718" lon="5.38275">
        <ele>178.461914</ele>
        <time>2011-05-27T14:32:46Z</time>
      </trkpt>
      <trkpt lat="47.17231" lon="5.38291">
        <ele>179.423218</ele>
        <time>2011-05-27T14:32:52Z</time>
      </trkpt>
      <trkpt lat="47.17313" lon="5.38327">
        <ele>180.865234</ele>
        <time>2011-05-27T14:33:02Z</time>
      </trkpt>
      <trkpt lat="47.17365" lon="5.3835">
        <ele>181.826416</ele>
        <time>2011-05-27T14:33:09Z</time>
      </trkpt>
      <trkpt lat="47.17436" lon="5.38378">
        <ele>182.787842</ele>
        <time>2011-05-27T14:33:19Z</time>
      </trkpt>
      <trkpt lat="47.1751" lon="5.38399">
        <ele>182.787842</ele>
        <time>2011-05-27T14:33:29Z</time>
      </trkpt>
      <trkpt lat="47.17577" lon="5.38417">
        <ele>183.268433</ele>
        <time>2011-05-27T14:33:38Z</time>
      </trkpt>
      <trkpt lat="47.17668" lon="5.38441">
        <ele>183.268433</ele>
        <time>2011-05-27T14:33:50Z</time>
      </trkpt>
      <trkpt lat="47.17751" lon="5.38467">
        <ele>182.307129</ele>
        <time>2011-05-27T14:34:01Z</time>
      </trkpt>
      <trkpt lat="47.17825" lon="5.38491">
        <ele>182.787842</ele>
        <time>2011-05-27T14:34:11Z</time>
      </trkpt>
      <trkpt lat="47.17884" lon="5.38505">
        <ele>180.865234</ele>
        <time>2011-05-27T14:34:19Z</time>
      </trkpt>
      <trkpt lat="47.17947" lon="5.3852">
        <ele>181.345825</ele>
        <time>2011-05-27T14:34:28Z</time>
      </trkpt>
      <trkpt lat="47.18011" lon="5.38527">
        <ele>181.345825</ele>
        <time>2011-05-27T14:34:37Z</time>
      </trkpt>
      <trkpt lat="47.18078" lon="5.38532">
        <ele>180.865234</ele>
        <time>2011-05-27T14:34:46Z</time>
      </trkpt>
      <trkpt lat="47.18146" lon="5.38531">
        <ele>179.903809</ele>
        <time>2011-05-27T14:34:55Z</time>
      </trkpt>
      <trkpt lat="47.18215" lon="5.38529">
        <ele>179.423218</ele>
        <time>2011-05-27T14:35:04Z</time>
      </trkpt>
      <trkpt lat="47.18276" lon="5.3853">
        <ele>178.942627</ele>
        <time>2011-05-27T14:35:12Z</time>
      </trkpt>
      <trkpt lat="47.18325" lon="5.38538">
        <ele>178.461914</ele>
        <time>2011-05-27T14:35:18Z</time>
      </trkpt>
      <trkpt lat="47.18393" lon="5.38555">
        <ele>181.345825</ele>
        <time>2011-05-27T14:35:27Z</time>
      </trkpt>
      <trkpt lat="47.18431" lon="5.38565">
        <ele>184.710571</ele>
        <time>2011-05-27T14:35:33Z</time>
      </trkpt>
      <trkpt lat="47.18482" lon="5.38583">
        <ele>189.997681</ele>
        <time>2011-05-27T14:35:42Z</time>
      </trkpt>
      <trkpt lat="47.18524" lon="5.38598">
        <ele>190.958984</ele>
        <time>2011-05-27T14:35:48Z</time>
      </trkpt>
      <trkpt lat="47.18578" lon="5.38617">
        <ele>189.036377</ele>
        <time>2011-05-27T14:35:54Z</time>
      </trkpt>
      <trkpt lat="47.18619" lon="5.38621">
        <ele>185.671753</ele>
        <time>2011-05-27T14:35:58Z</time>
      </trkpt>
      <trkpt lat="47.18657" lon="5.3861">
        <ele>183.268433</ele>
        <time>2011-05-27T14:36:02Z</time>
      </trkpt>
      <trkpt lat="47.18695" lon="5.38596">
        <ele>181.345825</ele>
        <time>2011-05-27T14:36:07Z</time>
      </trkpt>
      <trkpt lat="47.18701" lon="5.38596">
        <ele>181.345825</ele>
        <time>2011-05-27T14:36:08Z</time>
      </trkpt>
      <trkpt lat="47.18722" lon="5.38599">
        <ele>181.826416</ele>
        <time>2011-05-27T14:36:12Z</time>
      </trkpt>
      <trkpt lat="47.18751" lon="5.38614">
        <ele>183.749023</ele>
        <time>2011-05-27T14:36:19Z</time>
      </trkpt>
      <trkpt lat="47.18782" lon="5.38628">
        <ele>182.787842</ele>
        <time>2011-05-27T14:36:27Z</time>
      </trkpt>
      <trkpt lat="47.18812" lon="5.38642">
        <ele>181.345825</ele>
        <time>2011-05-27T14:36:35Z</time>
      </trkpt>
      <trkpt lat="47.18839" lon="5.38656">
        <ele>179.903809</ele>
        <time>2011-05-27T14:36:42Z</time>
      </trkpt>
      <trkpt lat="47.18865" lon="5.38669">
        <ele>178.942627</ele>
        <time>2011-05-27T14:36:49Z</time>
      </trkpt>
      <trkpt lat="47.18894" lon="5.38684">
        <ele>179.903809</ele>
        <time>2011-05-27T14:36:57Z</time>
      </trkpt>
      <trkpt lat="47.18922" lon="5.38698">
        <ele>179.423218</ele>
        <time>2011-05-27T14:37:04Z</time>
      </trkpt>
      <trkpt lat="47.18949" lon="5.3871">
        <ele>178.461914</ele>
        <time>2011-05-27T14:37:10Z</time>
      </trkpt>
      <trkpt lat="47.18985" lon="5.38729">
        <ele>178.461914</ele>
        <time>2011-05-27T14:37:18Z</time>
      </trkpt>
      <trkpt lat="47.1901" lon="5.38742">
        <ele>178.461914</ele>
        <time>2011-05-27T14:37:24Z</time>
      </trkpt>
      <trkpt lat="47.19047" lon="5.38759">
        <ele>179.423218</ele>
        <time>2011-05-27T14:37:32Z</time>
      </trkpt>
      <trkpt lat="47.19078" lon="5.38774">
        <ele>178.942627</ele>
        <time>2011-05-27T14:37:38Z</time>
      </trkpt>
      <trkpt lat="47.19106" lon="5.38787">
        <ele>178.942627</ele>
        <time>2011-05-27T14:37:44Z</time>
      </trkpt>
      <trkpt lat="47.19116" lon="5.38794">
        <ele>180.384521</ele>
        <time>2011-05-27T14:37:48Z</time>
      </trkpt>
      <trkpt lat="47.19121" lon="5.38796">
        <ele>180.865234</ele>
        <time>2011-05-27T14:37:52Z</time>
      </trkpt>
      <trkpt lat="47.19127" lon="5.38802">
        <ele>181.345825</ele>
        <time>2011-05-27T14:37:55Z</time>
      </trkpt>
      <trkpt lat="47.19137" lon="5.38799">
        <ele>182.307129</ele>
        <time>2011-05-27T14:37:59Z</time>
      </trkpt>
      <trkpt lat="47.19139" lon="5.38783">
        <ele>182.787842</ele>
        <time>2011-05-27T14:38:02Z</time>
      </trkpt>
      <trkpt lat="47.19136" lon="5.38759">
        <ele>183.268433</ele>
        <time>2011-05-27T14:38:06Z</time>
      </trkpt>
      <trkpt lat="47.19134" lon="5.387">
        <ele>183.749023</ele>
        <time>2011-05-27T14:38:14Z</time>
      </trkpt>
      <trkpt lat="47.19132" lon="5.38646">
        <ele>183.749023</ele>
        <time>2011-05-27T14:38:20Z</time>
      </trkpt>
      <trkpt lat="47.19132" lon="5.38594">
        <ele>185.191162</ele>
        <time>2011-05-27T14:38:26Z</time>
      </trkpt>
      <trkpt lat="47.19136" lon="5.38532">
        <ele>185.191162</ele>
        <time>2011-05-27T14:38:33Z</time>
      </trkpt>
      <trkpt lat="47.1915" lon="5.38468">
        <ele>186.152466</ele>
        <time>2011-05-27T14:38:41Z</time>
      </trkpt>
      <trkpt lat="47.19157" lon="5.38447">
        <ele>185.671753</ele>
        <time>2011-05-27T14:38:44Z</time>
      </trkpt>
      <trkpt lat="47.19181" lon="5.38436">
        <ele>185.671753</ele>
        <time>2011-05-27T14:38:48Z</time>
      </trkpt>
      <trkpt lat="47.19228" lon="5.38429">
        <ele>183.268433</ele>
        <time>2011-05-27T14:38:55Z</time>
      </trkpt>
      <trkpt lat="47.19247" lon="5.38408">
        <ele>182.307129</ele>
        <time>2011-05-27T14:38:59Z</time>
      </trkpt>
      <trkpt lat="47.19262" lon="5.38378">
        <ele>181.345825</ele>
        <time>2011-05-27T14:39:03Z</time>
      </trkpt>
      <trkpt lat="47.19284" lon="5.38357">
        <ele>181.345825</ele>
        <time>2011-05-27T14:39:07Z</time>
      </trkpt>
      <trkpt lat="47.19304" lon="5.38356">
        <ele>181.345825</ele>
        <time>2011-05-27T14:39:10Z</time>
      </trkpt>
      <trkpt lat="47.19348" lon="5.38363">
        <ele>181.345825</ele>
        <time>2011-05-27T14:39:17Z</time>
      </trkpt>
      <trkpt lat="47.1939" lon="5.38373">
        <ele>179.903809</ele>
        <time>2011-05-27T14:39:24Z</time>
      </trkpt>
      <trkpt lat="47.19416" lon="5.38366">
        <ele>178.461914</ele>
        <time>2011-05-27T14:39:29Z</time>
      </trkpt>
      <trkpt lat="47.19428" lon="5.38358">
        <ele>179.423218</ele>
        <time>2011-05-27T14:39:31Z</time>
      </trkpt>
      <trkpt lat="47.19448" lon="5.38328">
        <ele>181.826416</ele>
        <time>2011-05-27T14:39:36Z</time>
      </trkpt>
      <trkpt lat="47.19451" lon="5.3832">
        <ele>182.307129</ele>
        <time>2011-05-27T14:39:37Z</time>
      </trkpt>
      <trkpt lat="47.19472" lon="5.38263">
        <ele>184.229858</ele>
        <time>2011-05-27T14:39:45Z</time>
      </trkpt>
      <trkpt lat="47.19495" lon="5.38198">
        <ele>184.710571</ele>
        <time>2011-05-27T14:39:53Z</time>
      </trkpt>
      <trkpt lat="47.1952" lon="5.38124">
        <ele>182.787842</ele>
        <time>2011-05-27T14:40:02Z</time>
      </trkpt>
      <trkpt lat="47.19528" lon="5.3808">
        <ele>182.307129</ele>
        <time>2011-05-27T14:40:07Z</time>
      </trkpt>
      <trkpt lat="47.19532" lon="5.38054">
        <ele>183.268433</ele>
        <time>2011-05-27T14:40:11Z</time>
      </trkpt>
      <trkpt lat="47.19534" lon="5.38045">
        <ele>183.749023</ele>
        <time>2011-05-27T14:40:13Z</time>
      </trkpt>
      <trkpt lat="47.19528" lon="5.38032">
        <ele>182.787842</ele>
        <time>2011-05-27T14:40:17Z</time>
      </trkpt>
      <trkpt lat="47.19525" lon="5.38032">
        <ele>183.268433</ele>
        <time>2011-05-27T14:40:18Z</time>
      </trkpt>
      <trkpt lat="47.19501" lon="5.38024">
        <ele>184.710571</ele>
        <time>2011-05-27T14:40:24Z</time>
      </trkpt>
      <trkpt lat="47.19491" lon="5.38016">
        <ele>186.152466</ele>
        <time>2011-05-27T14:40:27Z</time>
      </trkpt>
      <trkpt lat="47.19487" lon="5.37994">
        <ele>186.633179</ele>
        <time>2011-05-27T14:40:31Z</time>
      </trkpt>
      <trkpt lat="47.19484" lon="5.37968">
        <ele>186.633179</ele>
        <time>2011-05-27T14:40:36Z</time>
      </trkpt>
      <trkpt lat="47.19478" lon="5.37937">
        <ele>188.075073</ele>
        <time>2011-05-27T14:40:43Z</time>
      </trkpt>
      <trkpt lat="47.19469" lon="5.37902">
        <ele>185.671753</ele>
        <time>2011-05-27T14:40:51Z</time>
      </trkpt>
      <trkpt lat="47.19464" lon="5.37883">
        <ele>184.710571</ele>
        <time>2011-05-27T14:40:58Z</time>
      </trkpt>
      <trkpt lat="47.19465" lon="5.37881">
        <ele>188.555786</ele>
        <time>2011-05-27T14:41:07Z</time>
      </trkpt>
      <trkpt lat="47.19464" lon="5.37881">
        <ele>189.516968</ele>
        <time>2011-05-27T14:41:51Z</time>
      </trkpt>
      <trkpt lat="47.19464" lon="5.37881">
        <ele>190.958984</ele>
        <time>2011-05-27T14:42:00Z</time>
      </trkpt>
      <trkpt lat="47.19465" lon="5.37881">
        <ele>186.152466</ele>
        <time>2011-05-27T14:42:31Z</time>
      </trkpt>
      <trkpt lat="47.19465" lon="5.3788">
        <ele>185.191162</ele>
        <time>2011-05-27T14:42:42Z</time>
      </trkpt>
      <trkpt lat="47.19467" lon="5.37877">
        <ele>186.152466</ele>
        <time>2011-05-27T14:42:51Z</time>
      </trkpt>
      <trkpt lat="47.19467" lon="5.37871">
        <ele>189.036377</ele>
        <time>2011-05-27T14:43:40Z</time>
      </trkpt>
      <trkpt lat="47.19462" lon="5.37856">
        <ele>187.11377</ele>
        <time>2011-05-27T14:43:47Z</time>
      </trkpt>
      <trkpt lat="47.19455" lon="5.37838">
        <ele>186.152466</ele>
        <time>2011-05-27T14:43:56Z</time>
      </trkpt>
      <trkpt lat="47.19454" lon="5.37836">
        <ele>184.710571</ele>
        <time>2011-05-27T14:44:05Z</time>
      </trkpt>
      <trkpt lat="47.19453" lon="5.37833">
        <ele>181.826416</ele>
        <time>2011-05-27T14:44:19Z</time>
      </trkpt>
      <trkpt lat="47.19454" lon="5.3783">
        <ele>178.942627</ele>
        <time>2011-05-27T14:44:28Z</time>
      </trkpt>
      <trkpt lat="47.1945" lon="5.3782">
        <ele>178.942627</ele>
        <time>2011-05-27T14:44:33Z</time>
      </trkpt>
      <trkpt lat="47.19447" lon="5.37806">
        <ele>179.423218</ele>
        <time>2011-05-27T14:44:38Z</time>
      </trkpt>
      <trkpt lat="47.19439" lon="5.3778">
        <ele>179.903809</ele>
        <time>2011-05-27T14:44:45Z</time>
      </trkpt>
      <trkpt lat="47.19434" lon="5.37757">
        <ele>180.384521</ele>
        <time>2011-05-27T14:44:51Z</time>
      </trkpt>
      <trkpt lat="47.1943" lon="5.37735">
        <ele>182.787842</ele>
        <time>2011-05-27T14:44:57Z</time>
      </trkpt>
      <trkpt lat="47.19427" lon="5.37696">
        <ele>183.268433</ele>
        <time>2011-05-27T14:45:05Z</time>
      </trkpt>
      <trkpt lat="47.19432" lon="5.3765">
        <ele>181.826416</ele>
        <time>2011-05-27T14:45:13Z</time>
      </trkpt>
      <trkpt lat="47.19436" lon="5.37619">
        <ele>181.345825</ele>
        <time>2011-05-27T14:45:18Z</time>
      </trkpt>
      <trkpt lat="47.19435" lon="5.37586">
        <ele>180.865234</ele>
        <time>2011-05-27T14:45:23Z</time>
      </trkpt>
      <trkpt lat="47.19425" lon="5.37552">
        <ele>180.384521</ele>
        <time>2011-05-27T14:45:28Z</time>
      </trkpt>
      <trkpt lat="47.19406" lon="5.37525">
        <ele>180.865234</ele>
        <time>2011-05-27T14:45:33Z</time>
      </trkpt>
      <trkpt lat="47.19381" lon="5.37492">
        <ele>181.826416</ele>
        <time>2011-05-27T14:45:37Z</time>
      </trkpt>
      <trkpt lat="47.19373" lon="5.37487">
        <ele>181.345825</ele>
        <time>2011-05-27T14:45:39Z</time>
      </trkpt>
      <trkpt lat="47.19362" lon="5.37479">
        <ele>179.903809</ele>
        <time>2011-05-27T14:45:42Z</time>
      </trkpt>
      <trkpt lat="47.19312" lon="5.37401">
        <ele>182.787842</ele>
        <time>2011-05-27T14:45:53Z</time>
      </trkpt>
      <trkpt lat="47.19291" lon="5.37354">
        <ele>183.749023</ele>
        <time>2011-05-27T14:45:59Z</time>
      </trkpt>
      <trkpt lat="47.19261" lon="5.37265">
        <ele>182.787842</ele>
        <time>2011-05-27T14:46:11Z</time>
      </trkpt>
      <trkpt lat="47.19236" lon="5.37196">
        <ele>181.826416</ele>
        <time>2011-05-27T14:46:20Z</time>
      </trkpt>
      <trkpt lat="47.19211" lon="5.37124">
        <ele>181.345825</ele>
        <time>2011-05-27T14:46:29Z</time>
      </trkpt>
      <trkpt lat="47.19177" lon="5.37027">
        <ele>180.865234</ele>
        <time>2011-05-27T14:46:41Z</time>
      </trkpt>
      <trkpt lat="47.19144" lon="5.36931">
        <ele>180.384521</ele>
        <time>2011-05-27T14:46:52Z</time>
      </trkpt>
      <trkpt lat="47.1912" lon="5.36864">
        <ele>180.865234</ele>
        <time>2011-05-27T14:46:59Z</time>
      </trkpt>
      <trkpt lat="47.19076" lon="5.36738">
        <ele>180.865234</ele>
        <time>2011-05-27T14:47:12Z</time>
      </trkpt>
      <trkpt lat="47.19036" lon="5.36626">
        <ele>180.384521</ele>
        <time>2011-05-27T14:47:24Z</time>
      </trkpt>
      <trkpt lat="47.18999" lon="5.36519">
        <ele>179.903809</ele>
        <time>2011-05-27T14:47:36Z</time>
      </trkpt>
      <trkpt lat="47.1897" lon="5.36437">
        <ele>180.384521</ele>
        <time>2011-05-27T14:47:45Z</time>
      </trkpt>
      <trkpt lat="47.18959" lon="5.36401">
        <ele>181.826416</ele>
        <time>2011-05-27T14:47:49Z</time>
      </trkpt>
      <trkpt lat="47.18943" lon="5.36356">
        <ele>184.710571</ele>
        <time>2011-05-27T14:47:54Z</time>
      </trkpt>
      <trkpt lat="47.1892" lon="5.36293">
        <ele>188.555786</ele>
        <time>2011-05-27T14:48:01Z</time>
      </trkpt>
      <trkpt lat="47.18897" lon="5.36249">
        <ele>189.516968</ele>
        <time>2011-05-27T14:48:06Z</time>
      </trkpt>
      <trkpt lat="47.18862" lon="5.36193">
        <ele>187.59436</ele>
        <time>2011-05-27T14:48:13Z</time>
      </trkpt>
      <trkpt lat="47.18826" lon="5.36155">
        <ele>186.152466</ele>
        <time>2011-05-27T14:48:19Z</time>
      </trkpt>
      <trkpt lat="47.18774" lon="5.36117">
        <ele>185.191162</ele>
        <time>2011-05-27T14:48:27Z</time>
      </trkpt>
      <trkpt lat="47.187" lon="5.3607">
        <ele>186.152466</ele>
        <time>2011-05-27T14:48:38Z</time>
      </trkpt>
      <trkpt lat="47.18647" lon="5.36028">
        <ele>186.633179</ele>
        <time>2011-05-27T14:48:46Z</time>
      </trkpt>
      <trkpt lat="47.18574" lon="5.35955">
        <ele>187.59436</ele>
        <time>2011-05-27T14:48:58Z</time>
      </trkpt>
      <trkpt lat="47.18521" lon="5.35901">
        <ele>187.11377</ele>
        <time>2011-05-27T14:49:07Z</time>
      </trkpt>
      <trkpt lat="47.18427" lon="5.35809">
        <ele>186.633179</ele>
        <time>2011-05-27T14:49:22Z</time>
      </trkpt>
      <trkpt lat="47.18355" lon="5.35737">
        <ele>186.152466</ele>
        <time>2011-05-27T14:49:34Z</time>
      </trkpt>
      <trkpt lat="47.1829" lon="5.3567">
        <ele>186.633179</ele>
        <time>2011-05-27T14:49:45Z</time>
      </trkpt>
      <trkpt lat="47.18246" lon="5.35623">
        <ele>186.152466</ele>
        <time>2011-05-27T14:49:53Z</time>
      </trkpt>
      <trkpt lat="47.18201" lon="5.35573">
        <ele>186.633179</ele>
        <time>2011-05-27T14:50:01Z</time>
      </trkpt>
      <trkpt lat="47.1818" lon="5.35549">
        <ele>186.633179</ele>
        <time>2011-05-27T14:50:05Z</time>
      </trkpt>
      <trkpt lat="47.18155" lon="5.35534">
        <ele>187.11377</ele>
        <time>2011-05-27T14:50:09Z</time>
      </trkpt>
      <trkpt lat="47.18091" lon="5.35513">
        <ele>188.555786</ele>
        <time>2011-05-27T14:50:18Z</time>
      </trkpt>
      <trkpt lat="47.18028" lon="5.3549">
        <ele>190.958984</ele>
        <time>2011-05-27T14:50:26Z</time>
      </trkpt>
      <trkpt lat="47.1799" lon="5.35473">
        <ele>194.32373</ele>
        <time>2011-05-27T14:50:31Z</time>
      </trkpt>
      <trkpt lat="47.17925" lon="5.35437">
        <ele>194.804321</ele>
        <time>2011-05-27T14:50:40Z</time>
      </trkpt>
      <trkpt lat="47.17861" lon="5.35402">
        <ele>193.362305</ele>
        <time>2011-05-27T14:50:49Z</time>
      </trkpt>
      <trkpt lat="47.17792" lon="5.35364">
        <ele>192.401123</ele>
        <time>2011-05-27T14:50:59Z</time>
      </trkpt>
      <trkpt lat="47.17747" lon="5.35327">
        <ele>192.881714</ele>
        <time>2011-05-27T14:51:06Z</time>
      </trkpt>
      <trkpt lat="47.17678" lon="5.35266">
        <ele>192.881714</ele>
        <time>2011-05-27T14:51:17Z</time>
      </trkpt>
      <trkpt lat="47.17646" lon="5.35242">
        <ele>192.881714</ele>
        <time>2011-05-27T14:51:22Z</time>
      </trkpt>
      <trkpt lat="47.17596" lon="5.35223">
        <ele>192.881714</ele>
        <time>2011-05-27T14:51:29Z</time>
      </trkpt>
      <trkpt lat="47.17545" lon="5.35212">
        <ele>192.881714</ele>
        <time>2011-05-27T14:51:36Z</time>
      </trkpt>
      <trkpt lat="47.17478" lon="5.35194">
        <ele>192.881714</ele>
        <time>2011-05-27T14:51:45Z</time>
      </trkpt>
      <trkpt lat="47.17416" lon="5.35175">
        <ele>193.843018</ele>
        <time>2011-05-27T14:51:53Z</time>
      </trkpt>
      <trkpt lat="47.17354" lon="5.35153">
        <ele>192.881714</ele>
        <time>2011-05-27T14:52:01Z</time>
      </trkpt>
      <trkpt lat="47.17285" lon="5.35129">
        <ele>192.401123</ele>
        <time>2011-05-27T14:52:10Z</time>
      </trkpt>
      <trkpt lat="47.17212" lon="5.35113">
        <ele>192.401123</ele>
        <time>2011-05-27T14:52:19Z</time>
      </trkpt>
      <trkpt lat="47.1717" lon="5.3511">
        <ele>192.881714</ele>
        <time>2011-05-27T14:52:25Z</time>
      </trkpt>
      <trkpt lat="47.17118" lon="5.351">
        <ele>192.401123</ele>
        <time>2011-05-27T14:52:31Z</time>
      </trkpt>
      <trkpt lat="47.17061" lon="5.35102">
        <ele>190.958984</ele>
        <time>2011-05-27T14:52:38Z</time>
      </trkpt>
      <trkpt lat="47.17015" lon="5.35119">
        <ele>189.516968</ele>
        <time>2011-05-27T14:52:44Z</time>
      </trkpt>
      <trkpt lat="47.16942" lon="5.35156">
        <ele>189.036377</ele>
        <time>2011-05-27T14:52:54Z</time>
      </trkpt>
      <trkpt lat="47.16883" lon="5.35193">
        <ele>189.036377</ele>
        <time>2011-05-27T14:53:02Z</time>
      </trkpt>
      <trkpt lat="47.1684" lon="5.35238">
        <ele>187.59436</ele>
        <time>2011-05-27T14:53:08Z</time>
      </trkpt>
      <trkpt lat="47.16793" lon="5.35276">
        <ele>187.59436</ele>
        <time>2011-05-27T14:53:14Z</time>
      </trkpt>
      <trkpt lat="47.16736" lon="5.35303">
        <ele>189.516968</ele>
        <time>2011-05-27T14:53:21Z</time>
      </trkpt>
      <trkpt lat="47.16675" lon="5.3533">
        <ele>192.401123</ele>
        <time>2011-05-27T14:53:29Z</time>
      </trkpt>
      <trkpt lat="47.16604" lon="5.35357">
        <ele>193.843018</ele>
        <time>2011-05-27T14:53:38Z</time>
      </trkpt>
      <trkpt lat="47.16526" lon="5.35373">
        <ele>194.804321</ele>
        <time>2011-05-27T14:53:47Z</time>
      </trkpt>
      <trkpt lat="47.1646" lon="5.3539">
        <ele>195.765625</ele>
        <time>2011-05-27T14:53:55Z</time>
      </trkpt>
      <trkpt lat="47.16396" lon="5.3542">
        <ele>197.688232</ele>
        <time>2011-05-27T14:54:03Z</time>
      </trkpt>
      <trkpt lat="47.16322" lon="5.35456">
        <ele>196.726929</ele>
        <time>2011-05-27T14:54:12Z</time>
      </trkpt>
      <trkpt lat="47.16248" lon="5.35491">
        <ele>195.284912</ele>
        <time>2011-05-27T14:54:21Z</time>
      </trkpt>
      <trkpt lat="47.16213" lon="5.35496">
        <ele>195.284912</ele>
        <time>2011-05-27T14:54:25Z</time>
      </trkpt>
      <trkpt lat="47.16168" lon="5.35488">
        <ele>195.284912</ele>
        <time>2011-05-27T14:54:30Z</time>
      </trkpt>
      <trkpt lat="47.16115" lon="5.35482">
        <ele>196.246338</ele>
        <time>2011-05-27T14:54:36Z</time>
      </trkpt>
      <trkpt lat="47.16064" lon="5.35492">
        <ele>196.246338</ele>
        <time>2011-05-27T14:54:42Z</time>
      </trkpt>
      <trkpt lat="47.16022" lon="5.35491">
        <ele>196.246338</ele>
        <time>2011-05-27T14:54:47Z</time>
      </trkpt>
      <trkpt lat="47.15947" lon="5.35472">
        <ele>195.765625</ele>
        <time>2011-05-27T14:54:56Z</time>
      </trkpt>
      <trkpt lat="47.1588" lon="5.35455">
        <ele>194.32373</ele>
        <time>2011-05-27T14:55:04Z</time>
      </trkpt>
      <trkpt lat="47.15799" lon="5.35434">
        <ele>193.362305</ele>
        <time>2011-05-27T14:55:14Z</time>
      </trkpt>
      <trkpt lat="47.15745" lon="5.35402">
        <ele>193.362305</ele>
        <time>2011-05-27T14:55:21Z</time>
      </trkpt>
      <trkpt lat="47.15686" lon="5.35367">
        <ele>193.843018</ele>
        <time>2011-05-27T14:55:28Z</time>
      </trkpt>
      <trkpt lat="47.15627" lon="5.35346">
        <ele>193.843018</ele>
        <time>2011-05-27T14:55:35Z</time>
      </trkpt>
      <trkpt lat="47.15528" lon="5.35315">
        <ele>193.843018</ele>
        <time>2011-05-27T14:55:47Z</time>
      </trkpt>
      <trkpt lat="47.1544" lon="5.35287">
        <ele>194.32373</ele>
        <time>2011-05-27T14:55:58Z</time>
      </trkpt>
      <trkpt lat="47.15344" lon="5.35255">
        <ele>194.804321</ele>
        <time>2011-05-27T14:56:10Z</time>
      </trkpt>
      <trkpt lat="47.15274" lon="5.35233">
        <ele>194.32373</ele>
        <time>2011-05-27T14:56:18Z</time>
      </trkpt>
      <trkpt lat="47.15212" lon="5.35217">
        <ele>193.362305</ele>
        <time>2011-05-27T14:56:25Z</time>
      </trkpt>
      <trkpt lat="47.15168" lon="5.35221">
        <ele>193.362305</ele>
        <time>2011-05-27T14:56:30Z</time>
      </trkpt>
      <trkpt lat="47.15117" lon="5.35232">
        <ele>193.843018</ele>
        <time>2011-05-27T14:56:36Z</time>
      </trkpt>
      <trkpt lat="47.15074" lon="5.35233">
        <ele>193.362305</ele>
        <time>2011-05-27T14:56:41Z</time>
      </trkpt>
      <trkpt lat="47.15024" lon="5.35213">
        <ele>193.362305</ele>
        <time>2011-05-27T14:56:47Z</time>
      </trkpt>
      <trkpt lat="47.14964" lon="5.35175">
        <ele>192.881714</ele>
        <time>2011-05-27T14:56:55Z</time>
      </trkpt>
      <trkpt lat="47.14929" lon="5.35149">
        <ele>186.633179</ele>
        <time>2011-05-27T14:57:00Z</time>
      </trkpt>
      <trkpt lat="47.14884" lon="5.35117">
        <ele>184.229858</ele>
        <time>2011-05-27T14:57:06Z</time>
      </trkpt>
      <trkpt lat="47.14818" lon="5.35064">
        <ele>183.268433</ele>
        <time>2011-05-27T14:57:15Z</time>
      </trkpt>
      <trkpt lat="47.14754" lon="5.35009">
        <ele>179.903809</ele>
        <time>2011-05-27T14:57:24Z</time>
      </trkpt>
      <trkpt lat="47.14696" lon="5.34957">
        <ele>177.981201</ele>
        <time>2011-05-27T14:57:33Z</time>
      </trkpt>
      <trkpt lat="47.14645" lon="5.34906">
        <ele>176.058594</ele>
        <time>2011-05-27T14:57:41Z</time>
      </trkpt>
      <trkpt lat="47.14615" lon="5.34876">
        <ele>175.577881</ele>
        <time>2011-05-27T14:57:46Z</time>
      </trkpt>
      <trkpt lat="47.14578" lon="5.3484">
        <ele>174.135864</ele>
        <time>2011-05-27T14:57:52Z</time>
      </trkpt>
      <trkpt lat="47.14523" lon="5.34784">
        <ele>172.69397</ele>
        <time>2011-05-27T14:58:01Z</time>
      </trkpt>
      <trkpt lat="47.1447" lon="5.34736">
        <ele>171.732666</ele>
        <time>2011-05-27T14:58:10Z</time>
      </trkpt>
      <trkpt lat="47.14433" lon="5.34713">
        <ele>171.252075</ele>
        <time>2011-05-27T14:58:15Z</time>
      </trkpt>
      <trkpt lat="47.14374" lon="5.34684">
        <ele>171.732666</ele>
        <time>2011-05-27T14:58:22Z</time>
      </trkpt>
      <trkpt lat="47.143" lon="5.34641">
        <ele>174.135864</ele>
        <time>2011-05-27T14:58:31Z</time>
      </trkpt>
      <trkpt lat="47.14217" lon="5.34592">
        <ele>176.058594</ele>
        <time>2011-05-27T14:58:41Z</time>
      </trkpt>
      <trkpt lat="47.14145" lon="5.34561">
        <ele>174.616577</ele>
        <time>2011-05-27T14:58:49Z</time>
      </trkpt>
      <trkpt lat="47.14071" lon="5.34528">
        <ele>174.616577</ele>
        <time>2011-05-27T14:58:57Z</time>
      </trkpt>
      <trkpt lat="47.14" lon="5.34488">
        <ele>175.09729</ele>
        <time>2011-05-27T14:59:05Z</time>
      </trkpt>
      <trkpt lat="47.13951" lon="5.34446">
        <ele>176.058594</ele>
        <time>2011-05-27T14:59:11Z</time>
      </trkpt>
      <trkpt lat="47.13908" lon="5.34406">
        <ele>176.539307</ele>
        <time>2011-05-27T14:59:17Z</time>
      </trkpt>
      <trkpt lat="47.13868" lon="5.34366">
        <ele>175.577881</ele>
        <time>2011-05-27T14:59:24Z</time>
      </trkpt>
      <trkpt lat="47.13851" lon="5.34345">
        <ele>176.058594</ele>
        <time>2011-05-27T14:59:28Z</time>
      </trkpt>
      <trkpt lat="47.13828" lon="5.34311">
        <ele>177.50061</ele>
        <time>2011-05-27T14:59:35Z</time>
      </trkpt>
      <trkpt lat="47.13822" lon="5.34298">
        <ele>178.461914</ele>
        <time>2011-05-27T14:59:38Z</time>
      </trkpt>
      <trkpt lat="47.13817" lon="5.34301">
        <ele>179.423218</ele>
        <time>2011-05-27T14:59:41Z</time>
      </trkpt>
      <trkpt lat="47.13824" lon="5.34313">
        <ele>179.903809</ele>
        <time>2011-05-27T14:59:44Z</time>
      </trkpt>
      <trkpt lat="47.13831" lon="5.34322">
        <ele>180.384521</ele>
        <time>2011-05-27T14:59:46Z</time>
      </trkpt>
      <trkpt lat="47.13839" lon="5.34335">
        <ele>180.384521</ele>
        <time>2011-05-27T14:59:48Z</time>
      </trkpt>
      <trkpt lat="47.13878" lon="5.34381">
        <ele>180.384521</ele>
        <time>2011-05-27T14:59:55Z</time>
      </trkpt>
      <trkpt lat="47.13888" lon="5.34404">
        <ele>179.903809</ele>
        <time>2011-05-27T14:59:58Z</time>
      </trkpt>
      <trkpt lat="47.13883" lon="5.34421">
        <ele>179.423218</ele>
        <time>2011-05-27T15:00:00Z</time>
      </trkpt>
      <trkpt lat="47.13853" lon="5.34474">
        <ele>179.423218</ele>
        <time>2011-05-27T15:00:06Z</time>
      </trkpt>
      <trkpt lat="47.13813" lon="5.34541">
        <ele>180.865234</ele>
        <time>2011-05-27T15:00:13Z</time>
      </trkpt>
      <trkpt lat="47.13764" lon="5.34626">
        <ele>183.268433</ele>
        <time>2011-05-27T15:00:22Z</time>
      </trkpt>
      <trkpt lat="47.13731" lon="5.34682">
        <ele>184.229858</ele>
        <time>2011-05-27T15:00:28Z</time>
      </trkpt>
      <trkpt lat="47.13703" lon="5.34733">
        <ele>185.191162</ele>
        <time>2011-05-27T15:00:34Z</time>
      </trkpt>
      <trkpt lat="47.13671" lon="5.34783">
        <ele>185.671753</ele>
        <time>2011-05-27T15:00:41Z</time>
      </trkpt>
      <trkpt lat="47.13638" lon="5.34848">
        <ele>186.152466</ele>
        <time>2011-05-27T15:00:49Z</time>
      </trkpt>
      <trkpt lat="47.13591" lon="5.34922">
        <ele>185.671753</ele>
        <time>2011-05-27T15:00:58Z</time>
      </trkpt>
      <trkpt lat="47.13546" lon="5.34998">
        <ele>185.671753</ele>
        <time>2011-05-27T15:01:06Z</time>
      </trkpt>
      <trkpt lat="47.13491" lon="5.35094">
        <ele>185.671753</ele>
        <time>2011-05-27T15:01:16Z</time>
      </trkpt>
      <trkpt lat="47.13447" lon="5.3517">
        <ele>185.671753</ele>
        <time>2011-05-27T15:01:25Z</time>
      </trkpt>
      <trkpt lat="47.13398" lon="5.35253">
        <ele>185.671753</ele>
        <time>2011-05-27T15:01:35Z</time>
      </trkpt>
      <trkpt lat="47.13343" lon="5.35348">
        <ele>186.633179</ele>
        <time>2011-05-27T15:01:46Z</time>
      </trkpt>
      <trkpt lat="47.13297" lon="5.35428">
        <ele>186.152466</ele>
        <time>2011-05-27T15:01:55Z</time>
      </trkpt>
      <trkpt lat="47.13266" lon="5.35482">
        <ele>187.11377</ele>
        <time>2011-05-27T15:02:01Z</time>
      </trkpt>
      <trkpt lat="47.13213" lon="5.35573">
        <ele>188.075073</ele>
        <time>2011-05-27T15:02:11Z</time>
      </trkpt>
      <trkpt lat="47.13166" lon="5.35652">
        <ele>188.075073</ele>
        <time>2011-05-27T15:02:20Z</time>
      </trkpt>
      <trkpt lat="47.13125" lon="5.35722">
        <ele>187.59436</ele>
        <time>2011-05-27T15:02:28Z</time>
      </trkpt>
      <trkpt lat="47.13084" lon="5.35793">
        <ele>187.11377</ele>
        <time>2011-05-27T15:02:36Z</time>
      </trkpt>
      <trkpt lat="47.1304" lon="5.35866">
        <ele>188.555786</ele>
        <time>2011-05-27T15:02:44Z</time>
      </trkpt>
      <trkpt lat="47.13028" lon="5.35885">
        <ele>188.555786</ele>
        <time>2011-05-27T15:02:46Z</time>
      </trkpt>
      <trkpt lat="47.12981" lon="5.35961">
        <ele>188.555786</ele>
        <time>2011-05-27T15:02:54Z</time>
      </trkpt>
      <trkpt lat="47.1294" lon="5.36007">
        <ele>188.075073</ele>
        <time>2011-05-27T15:03:00Z</time>
      </trkpt>
      <trkpt lat="47.12888" lon="5.36048">
        <ele>189.997681</ele>
        <time>2011-05-27T15:03:07Z</time>
      </trkpt>
      <trkpt lat="47.12815" lon="5.36101">
        <ele>192.401123</ele>
        <time>2011-05-27T15:03:17Z</time>
      </trkpt>
      <trkpt lat="47.12742" lon="5.36153">
        <ele>192.881714</ele>
        <time>2011-05-27T15:03:27Z</time>
      </trkpt>
      <trkpt lat="47.12673" lon="5.36202">
        <ele>189.997681</ele>
        <time>2011-05-27T15:03:36Z</time>
      </trkpt>
      <trkpt lat="47.12607" lon="5.36249">
        <ele>187.11377</ele>
        <time>2011-05-27T15:03:44Z</time>
      </trkpt>
      <trkpt lat="47.12527" lon="5.36309">
        <ele>183.749023</ele>
        <time>2011-05-27T15:03:53Z</time>
      </trkpt>
      <trkpt lat="47.12478" lon="5.36358">
        <ele>182.787842</ele>
        <time>2011-05-27T15:03:59Z</time>
      </trkpt>
      <trkpt lat="47.12429" lon="5.36419">
        <ele>183.749023</ele>
        <time>2011-05-27T15:04:06Z</time>
      </trkpt>
      <trkpt lat="47.12383" lon="5.36477">
        <ele>186.633179</ele>
        <time>2011-05-27T15:04:13Z</time>
      </trkpt>
      <trkpt lat="47.12332" lon="5.36538">
        <ele>186.633179</ele>
        <time>2011-05-27T15:04:21Z</time>
      </trkpt>
      <trkpt lat="47.1226" lon="5.36631">
        <ele>187.59436</ele>
        <time>2011-05-27T15:04:33Z</time>
      </trkpt>
      <trkpt lat="47.12217" lon="5.36702">
        <ele>188.555786</ele>
        <time>2011-05-27T15:04:41Z</time>
      </trkpt>
      <trkpt lat="47.12172" lon="5.36763">
        <ele>189.997681</ele>
        <time>2011-05-27T15:04:49Z</time>
      </trkpt>
      <trkpt lat="47.12141" lon="5.36811">
        <ele>189.997681</ele>
        <time>2011-05-27T15:04:56Z</time>
      </trkpt>
      <trkpt lat="47.1211" lon="5.3687">
        <ele>192.881714</ele>
        <time>2011-05-27T15:05:04Z</time>
      </trkpt>
      <trkpt lat="47.12084" lon="5.36915">
        <ele>194.804321</ele>
        <time>2011-05-27T15:05:10Z</time>
      </trkpt>
      <trkpt lat="47.12053" lon="5.36954">
        <ele>196.246338</ele>
        <time>2011-05-27T15:05:16Z</time>
      </trkpt>
      <trkpt lat="47.12019" lon="5.36997">
        <ele>194.804321</ele>
        <time>2011-05-27T15:05:22Z</time>
      </trkpt>
      <trkpt lat="47.11974" lon="5.37057">
        <ele>195.284912</ele>
        <time>2011-05-27T15:05:30Z</time>
      </trkpt>
      <trkpt lat="47.11945" lon="5.37109">
        <ele>195.765625</ele>
        <time>2011-05-27T15:05:36Z</time>
      </trkpt>
      <trkpt lat="47.11901" lon="5.37203">
        <ele>196.726929</ele>
        <time>2011-05-27T15:05:46Z</time>
      </trkpt>
      <trkpt lat="47.11885" lon="5.37266">
        <ele>197.688232</ele>
        <time>2011-05-27T15:05:52Z</time>
      </trkpt>
      <trkpt lat="47.11873" lon="5.37331">
        <ele>196.726929</ele>
        <time>2011-05-27T15:05:58Z</time>
      </trkpt>
      <trkpt lat="47.11869" lon="5.37394">
        <ele>197.688232</ele>
        <time>2011-05-27T15:06:04Z</time>
      </trkpt>
      <trkpt lat="47.11863" lon="5.37455">
        <ele>197.688232</ele>
        <time>2011-05-27T15:06:10Z</time>
      </trkpt>
      <trkpt lat="47.11869" lon="5.37518">
        <ele>197.688232</ele>
        <time>2011-05-27T15:06:16Z</time>
      </trkpt>
      <trkpt lat="47.11883" lon="5.37604">
        <ele>199.130127</ele>
        <time>2011-05-27T15:06:24Z</time>
      </trkpt>
      <trkpt lat="47.11888" lon="5.37687">
        <ele>197.20752</ele>
        <time>2011-05-27T15:06:31Z</time>
      </trkpt>
      <trkpt lat="47.11885" lon="5.3775">
        <ele>196.726929</ele>
        <time>2011-05-27T15:06:36Z</time>
      </trkpt>
      <trkpt lat="47.1187" lon="5.37825">
        <ele>196.726929</ele>
        <time>2011-05-27T15:06:42Z</time>
      </trkpt>
      <trkpt lat="47.11845" lon="5.37891">
        <ele>197.20752</ele>
        <time>2011-05-27T15:06:48Z</time>
      </trkpt>
      <trkpt lat="47.1181" lon="5.37957">
        <ele>198.649536</ele>
        <time>2011-05-27T15:06:55Z</time>
      </trkpt>
      <trkpt lat="47.11756" lon="5.38054">
        <ele>200.572266</ele>
        <time>2011-05-27T15:07:05Z</time>
      </trkpt>
      <trkpt lat="47.11712" lon="5.38132">
        <ele>202.494873</ele>
        <time>2011-05-27T15:07:13Z</time>
      </trkpt>
      <trkpt lat="47.11662" lon="5.38221">
        <ele>205.859497</ele>
        <time>2011-05-27T15:07:22Z</time>
      </trkpt>
      <trkpt lat="47.11613" lon="5.38308">
        <ele>207.301392</ele>
        <time>2011-05-27T15:07:31Z</time>
      </trkpt>
      <trkpt lat="47.11592" lon="5.3836">
        <ele>208.262817</ele>
        <time>2011-05-27T15:07:36Z</time>
      </trkpt>
      <trkpt lat="47.11575" lon="5.38421">
        <ele>208.743408</ele>
        <time>2011-05-27T15:07:41Z</time>
      </trkpt>
      <trkpt lat="47.11568" lon="5.38485">
        <ele>207.782104</ele>
        <time>2011-05-27T15:07:46Z</time>
      </trkpt>
      <trkpt lat="47.11565" lon="5.38563">
        <ele>203.456177</ele>
        <time>2011-05-27T15:07:52Z</time>
      </trkpt>
      <trkpt lat="47.11564" lon="5.38598">
        <ele>201.052856</ele>
        <time>2011-05-27T15:07:55Z</time>
      </trkpt>
      <trkpt lat="47.11565" lon="5.3868">
        <ele>195.284912</ele>
        <time>2011-05-27T15:08:02Z</time>
      </trkpt>
      <trkpt lat="47.11569" lon="5.38751">
        <ele>191.920288</ele>
        <time>2011-05-27T15:08:08Z</time>
      </trkpt>
      <trkpt lat="47.11573" lon="5.38806">
        <ele>189.036377</ele>
        <time>2011-05-27T15:08:13Z</time>
      </trkpt>
      <trkpt lat="47.11585" lon="5.38894">
        <ele>187.11377</ele>
        <time>2011-05-27T15:08:21Z</time>
      </trkpt>
      <trkpt lat="47.116" lon="5.38972">
        <ele>185.671753</ele>
        <time>2011-05-27T15:08:28Z</time>
      </trkpt>
      <trkpt lat="47.11618" lon="5.39056">
        <ele>187.59436</ele>
        <time>2011-05-27T15:08:35Z</time>
      </trkpt>
      <trkpt lat="47.11642" lon="5.39139">
        <ele>189.997681</ele>
        <time>2011-05-27T15:08:42Z</time>
      </trkpt>
      <trkpt lat="47.11671" lon="5.3923">
        <ele>192.401123</ele>
        <time>2011-05-27T15:08:50Z</time>
      </trkpt>
      <trkpt lat="47.11708" lon="5.39352">
        <ele>196.246338</ele>
        <time>2011-05-27T15:09:01Z</time>
      </trkpt>
      <trkpt lat="47.11737" lon="5.39449">
        <ele>196.246338</ele>
        <time>2011-05-27T15:09:09Z</time>
      </trkpt>
      <trkpt lat="47.11767" lon="5.39546">
        <ele>194.32373</ele>
        <time>2011-05-27T15:09:16Z</time>
      </trkpt>
      <trkpt lat="47.11797" lon="5.39643">
        <ele>191.920288</ele>
        <time>2011-05-27T15:09:23Z</time>
      </trkpt>
      <trkpt lat="47.11818" lon="5.39709">
        <ele>192.401123</ele>
        <time>2011-05-27T15:09:28Z</time>
      </trkpt>
      <trkpt lat="47.11838" lon="5.39796">
        <ele>196.726929</ele>
        <time>2011-05-27T15:09:35Z</time>
      </trkpt>
      <trkpt lat="47.11843" lon="5.39862">
        <ele>198.168945</ele>
        <time>2011-05-27T15:09:40Z</time>
      </trkpt>
      <trkpt lat="47.11839" lon="5.39923">
        <ele>200.572266</ele>
        <time>2011-05-27T15:09:45Z</time>
      </trkpt>
      <trkpt lat="47.11824" lon="5.40023">
        <ele>200.572266</ele>
        <time>2011-05-27T15:09:54Z</time>
      </trkpt>
      <trkpt lat="47.11819" lon="5.40109">
        <ele>201.052856</ele>
        <time>2011-05-27T15:10:02Z</time>
      </trkpt>
      <trkpt lat="47.11814" lon="5.402">
        <ele>201.533569</ele>
        <time>2011-05-27T15:10:11Z</time>
      </trkpt>
      <trkpt lat="47.11811" lon="5.40295">
        <ele>203.456177</ele>
        <time>2011-05-27T15:10:21Z</time>
      </trkpt>
      <trkpt lat="47.11811" lon="5.40304">
        <ele>203.456177</ele>
        <time>2011-05-27T15:10:22Z</time>
      </trkpt>
      <trkpt lat="47.11823" lon="5.40348">
        <ele>203.456177</ele>
        <time>2011-05-27T15:10:27Z</time>
      </trkpt>
      <trkpt lat="47.11835" lon="5.4037">
        <ele>202.975464</ele>
        <time>2011-05-27T15:10:30Z</time>
      </trkpt>
      <trkpt lat="47.11869" lon="5.4043">
        <ele>202.014282</ele>
        <time>2011-05-27T15:10:38Z</time>
      </trkpt>
      <trkpt lat="47.11886" lon="5.40488">
        <ele>201.533569</ele>
        <time>2011-05-27T15:10:44Z</time>
      </trkpt>
      <trkpt lat="47.11902" lon="5.40581">
        <ele>198.168945</ele>
        <time>2011-05-27T15:10:53Z</time>
      </trkpt>
      <trkpt lat="47.11904" lon="5.406">
        <ele>196.726929</ele>
        <time>2011-05-27T15:10:55Z</time>
      </trkpt>
      <trkpt lat="47.11907" lon="5.40636">
        <ele>197.20752</ele>
        <time>2011-05-27T15:10:59Z</time>
      </trkpt>
      <trkpt lat="47.11912" lon="5.40685">
        <ele>196.726929</ele>
        <time>2011-05-27T15:11:05Z</time>
      </trkpt>
      <trkpt lat="47.11916" lon="5.40723">
        <ele>196.246338</ele>
        <time>2011-05-27T15:11:10Z</time>
      </trkpt>
      <trkpt lat="47.11902" lon="5.40783">
        <ele>199.130127</ele>
        <time>2011-05-27T15:11:17Z</time>
      </trkpt>
      <trkpt lat="47.11879" lon="5.40845">
        <ele>203.93689</ele>
        <time>2011-05-27T15:11:24Z</time>
      </trkpt>
      <trkpt lat="47.11865" lon="5.4089">
        <ele>207.782104</ele>
        <time>2011-05-27T15:11:29Z</time>
      </trkpt>
      <trkpt lat="47.11847" lon="5.40951">
        <ele>208.743408</ele>
        <time>2011-05-27T15:11:35Z</time>
      </trkpt>
      <trkpt lat="47.1184" lon="5.40984">
        <ele>208.262817</ele>
        <time>2011-05-27T15:11:38Z</time>
      </trkpt>
      <trkpt lat="47.11826" lon="5.41052">
        <ele>205.378784</ele>
        <time>2011-05-27T15:11:45Z</time>
      </trkpt>
      <trkpt lat="47.11813" lon="5.41114">
        <ele>204.898071</ele>
        <time>2011-05-27T15:11:52Z</time>
      </trkpt>
      <trkpt lat="47.11798" lon="5.41164">
        <ele>208.262817</ele>
        <time>2011-05-27T15:11:58Z</time>
      </trkpt>
      <trkpt lat="47.11781" lon="5.41214">
        <ele>209.224121</ele>
        <time>2011-05-27T15:12:04Z</time>
      </trkpt>
      <trkpt lat="47.11761" lon="5.41274">
        <ele>210.185425</ele>
        <time>2011-05-27T15:12:11Z</time>
      </trkpt>
      <trkpt lat="47.11734" lon="5.41354">
        <ele>210.185425</ele>
        <time>2011-05-27T15:12:20Z</time>
      </trkpt>
      <trkpt lat="47.11708" lon="5.41427">
        <ele>208.743408</ele>
        <time>2011-05-27T15:12:28Z</time>
      </trkpt>
      <trkpt lat="47.11676" lon="5.41521">
        <ele>207.782104</ele>
        <time>2011-05-27T15:12:38Z</time>
      </trkpt>
      <trkpt lat="47.11655" lon="5.4158">
        <ele>208.262817</ele>
        <time>2011-05-27T15:12:45Z</time>
      </trkpt>
      <trkpt lat="47.11632" lon="5.41647">
        <ele>208.743408</ele>
        <time>2011-05-27T15:12:53Z</time>
      </trkpt>
      <trkpt lat="47.11612" lon="5.41707">
        <ele>209.704834</ele>
        <time>2011-05-27T15:13:00Z</time>
      </trkpt>
      <trkpt lat="47.11574" lon="5.41812">
        <ele>210.666016</ele>
        <time>2011-05-27T15:13:12Z</time>
      </trkpt>
      <trkpt lat="47.11541" lon="5.41908">
        <ele>209.704834</ele>
        <time>2011-05-27T15:13:22Z</time>
      </trkpt>
      <trkpt lat="47.11503" lon="5.42015">
        <ele>209.224121</ele>
        <time>2011-05-27T15:13:33Z</time>
      </trkpt>
      <trkpt lat="47.11471" lon="5.42104">
        <ele>210.666016</ele>
        <time>2011-05-27T15:13:43Z</time>
      </trkpt>
      <trkpt lat="47.11432" lon="5.42199">
        <ele>212.108032</ele>
        <time>2011-05-27T15:13:54Z</time>
      </trkpt>
      <trkpt lat="47.11406" lon="5.4226">
        <ele>213.069336</ele>
        <time>2011-05-27T15:14:01Z</time>
      </trkpt>
      <trkpt lat="47.11379" lon="5.42323">
        <ele>212.588623</ele>
        <time>2011-05-27T15:14:08Z</time>
      </trkpt>
      <trkpt lat="47.11336" lon="5.42419">
        <ele>212.588623</ele>
        <time>2011-05-27T15:14:19Z</time>
      </trkpt>
      <trkpt lat="47.113" lon="5.42497">
        <ele>213.069336</ele>
        <time>2011-05-27T15:14:28Z</time>
      </trkpt>
      <trkpt lat="47.11261" lon="5.42556">
        <ele>213.069336</ele>
        <time>2011-05-27T15:14:36Z</time>
      </trkpt>
      <trkpt lat="47.11214" lon="5.42611">
        <ele>212.588623</ele>
        <time>2011-05-27T15:14:44Z</time>
      </trkpt>
      <trkpt lat="47.11144" lon="5.42693">
        <ele>213.069336</ele>
        <time>2011-05-27T15:14:56Z</time>
      </trkpt>
      <trkpt lat="47.11095" lon="5.4275">
        <ele>214.51123</ele>
        <time>2011-05-27T15:15:05Z</time>
      </trkpt>
      <trkpt lat="47.11032" lon="5.42818">
        <ele>215.953247</ele>
        <time>2011-05-27T15:15:17Z</time>
      </trkpt>
      <trkpt lat="47.10971" lon="5.4287">
        <ele>215.472656</ele>
        <time>2011-05-27T15:15:27Z</time>
      </trkpt>
      <trkpt lat="47.10895" lon="5.42928">
        <ele>215.472656</ele>
        <time>2011-05-27T15:15:39Z</time>
      </trkpt>
      <trkpt lat="47.10871" lon="5.42965">
        <ele>215.472656</ele>
        <time>2011-05-27T15:15:44Z</time>
      </trkpt>
      <trkpt lat="47.10861" lon="5.42992">
        <ele>215.472656</ele>
        <time>2011-05-27T15:15:47Z</time>
      </trkpt>
      <trkpt lat="47.10849" lon="5.43056">
        <ele>214.991943</ele>
        <time>2011-05-27T15:15:54Z</time>
      </trkpt>
      <trkpt lat="47.10842" lon="5.43133">
        <ele>214.51123</ele>
        <time>2011-05-27T15:16:03Z</time>
      </trkpt>
      <trkpt lat="47.10839" lon="5.43163">
        <ele>214.03064</ele>
        <time>2011-05-27T15:16:07Z</time>
      </trkpt>
      <trkpt lat="47.10832" lon="5.43191">
        <ele>214.51123</ele>
        <time>2011-05-27T15:16:11Z</time>
      </trkpt>
      <trkpt lat="47.10817" lon="5.43223">
        <ele>214.991943</ele>
        <time>2011-05-27T15:16:17Z</time>
      </trkpt>
      <trkpt lat="47.10809" lon="5.4324">
        <ele>215.472656</ele>
        <time>2011-05-27T15:16:20Z</time>
      </trkpt>
      <trkpt lat="47.10792" lon="5.43294">
        <ele>217.875977</ele>
        <time>2011-05-27T15:16:28Z</time>
      </trkpt>
      <trkpt lat="47.10774" lon="5.43336">
        <ele>218.356567</ele>
        <time>2011-05-27T15:16:35Z</time>
      </trkpt>
      <trkpt lat="47.10758" lon="5.43365">
        <ele>218.83728</ele>
        <time>2011-05-27T15:16:41Z</time>
      </trkpt>
      <trkpt lat="47.10744" lon="5.43389">
        <ele>219.317993</ele>
        <time>2011-05-27T15:16:47Z</time>
      </trkpt>
      <trkpt lat="47.10723" lon="5.4342">
        <ele>218.83728</ele>
        <time>2011-05-27T15:16:55Z</time>
      </trkpt>
      <trkpt lat="47.10698" lon="5.43457">
        <ele>218.356567</ele>
        <time>2011-05-27T15:17:03Z</time>
      </trkpt>
      <trkpt lat="47.10686" lon="5.43475">
        <ele>217.875977</ele>
        <time>2011-05-27T15:17:07Z</time>
      </trkpt>
      <trkpt lat="47.10663" lon="5.43513">
        <ele>217.875977</ele>
        <time>2011-05-27T15:17:16Z</time>
      </trkpt>
      <trkpt lat="47.10654" lon="5.43525">
        <ele>217.875977</ele>
        <time>2011-05-27T15:17:21Z</time>
      </trkpt>
      <trkpt lat="47.10652" lon="5.43529">
        <ele>218.83728</ele>
        <time>2011-05-27T15:17:26Z</time>
      </trkpt>
      <trkpt lat="47.10651" lon="5.43528">
        <ele>220.759888</ele>
        <time>2011-05-27T15:17:50Z</time>
      </trkpt>
      <trkpt lat="47.1065" lon="5.43528">
        <ele>220.759888</ele>
        <time>2011-05-27T15:18:04Z</time>
      </trkpt>
      <trkpt lat="47.10648" lon="5.43529">
        <ele>224.124512</ele>
        <time>2011-05-27T15:18:46Z</time>
      </trkpt>
      <trkpt lat="47.10646" lon="5.43528">
        <ele>212.108032</ele>
        <time>2011-05-27T15:19:08Z</time>
      </trkpt>
      <trkpt lat="47.10646" lon="5.4353">
        <ele>211.146729</ele>
        <time>2011-05-27T15:19:25Z</time>
      </trkpt>
      <trkpt lat="47.10648" lon="5.43529">
        <ele>217.395386</ele>
        <time>2011-05-27T15:19:54Z</time>
      </trkpt>
      <trkpt lat="47.10648" lon="5.43525">
        <ele>209.224121</ele>
        <time>2011-05-27T15:20:37Z</time>
      </trkpt>
      <trkpt lat="47.10651" lon="5.43525">
        <ele>210.185425</ele>
        <time>2011-05-27T15:22:04Z</time>
      </trkpt>
      <trkpt lat="47.10651" lon="5.43529">
        <ele>213.550049</ele>
        <time>2011-05-27T15:22:12Z</time>
      </trkpt>
      <trkpt lat="47.10647" lon="5.43542">
        <ele>212.108032</ele>
        <time>2011-05-27T15:22:17Z</time>
      </trkpt>
      <trkpt lat="47.10642" lon="5.43567">
        <ele>215.953247</ele>
        <time>2011-05-27T15:22:23Z</time>
      </trkpt>
      <trkpt lat="47.10634" lon="5.436">
        <ele>217.875977</ele>
        <time>2011-05-27T15:22:29Z</time>
      </trkpt>
      <trkpt lat="47.10624" lon="5.43641">
        <ele>219.798584</ele>
        <time>2011-05-27T15:22:37Z</time>
      </trkpt>
      <trkpt lat="47.10612" lon="5.43678">
        <ele>217.875977</ele>
        <time>2011-05-27T15:22:44Z</time>
      </trkpt>
      <trkpt lat="47.10595" lon="5.43696">
        <ele>217.875977</ele>
        <time>2011-05-27T15:22:49Z</time>
      </trkpt>
      <trkpt lat="47.10569" lon="5.43711">
        <ele>217.395386</ele>
        <time>2011-05-27T15:22:55Z</time>
      </trkpt>
      <trkpt lat="47.10546" lon="5.43732">
        <ele>218.356567</ele>
        <time>2011-05-27T15:23:01Z</time>
      </trkpt>
      <trkpt lat="47.10535" lon="5.43743">
        <ele>217.875977</ele>
        <time>2011-05-27T15:23:04Z</time>
      </trkpt>
      <trkpt lat="47.10522" lon="5.43769">
        <ele>217.875977</ele>
        <time>2011-05-27T15:23:09Z</time>
      </trkpt>
      <trkpt lat="47.10511" lon="5.43812">
        <ele>221.240601</ele>
        <time>2011-05-27T15:23:15Z</time>
      </trkpt>
      <trkpt lat="47.10509" lon="5.43827">
        <ele>223.643799</ele>
        <time>2011-05-27T15:23:17Z</time>
      </trkpt>
      <trkpt lat="47.10507" lon="5.43882">
        <ele>230.85376</ele>
        <time>2011-05-27T15:23:24Z</time>
      </trkpt>
      <trkpt lat="47.10505" lon="5.43926">
        <ele>231.814941</ele>
        <time>2011-05-27T15:23:29Z</time>
      </trkpt>
      <trkpt lat="47.10504" lon="5.43964">
        <ele>233.25708</ele>
        <time>2011-05-27T15:23:33Z</time>
      </trkpt>
      <trkpt lat="47.10503" lon="5.43984">
        <ele>233.25708</ele>
        <time>2011-05-27T15:23:35Z</time>
      </trkpt>
      <trkpt lat="47.10513" lon="5.44025">
        <ele>234.218384</ele>
        <time>2011-05-27T15:23:40Z</time>
      </trkpt>
      <trkpt lat="47.10524" lon="5.44045">
        <ele>234.699097</ele>
        <time>2011-05-27T15:23:43Z</time>
      </trkpt>
      <trkpt lat="47.10549" lon="5.44095">
        <ele>234.699097</ele>
        <time>2011-05-27T15:23:50Z</time>
      </trkpt>
      <trkpt lat="47.10552" lon="5.44103">
        <ele>234.699097</ele>
        <time>2011-05-27T15:23:51Z</time>
      </trkpt>
      <trkpt lat="47.10564" lon="5.4417">
        <ele>235.660278</ele>
        <time>2011-05-27T15:23:58Z</time>
      </trkpt>
      <trkpt lat="47.10575" lon="5.44252">
        <ele>240.467041</ele>
        <time>2011-05-27T15:24:06Z</time>
      </trkpt>
      <trkpt lat="47.10578" lon="5.44314">
        <ele>243.35083</ele>
        <time>2011-05-27T15:24:12Z</time>
      </trkpt>
      <trkpt lat="47.10582" lon="5.44394">
        <ele>246.234863</ele>
        <time>2011-05-27T15:24:20Z</time>
      </trkpt>
      <trkpt lat="47.10579" lon="5.44464">
        <ele>247.676758</ele>
        <time>2011-05-27T15:24:27Z</time>
      </trkpt>
      <trkpt lat="47.10571" lon="5.44523">
        <ele>246.234863</ele>
        <time>2011-05-27T15:24:33Z</time>
      </trkpt>
      <trkpt lat="47.10561" lon="5.44596">
        <ele>246.715454</ele>
        <time>2011-05-27T15:24:41Z</time>
      </trkpt>
      <trkpt lat="47.10552" lon="5.44662">
        <ele>245.273438</ele>
        <time>2011-05-27T15:24:49Z</time>
      </trkpt>
      <trkpt lat="47.1055" lon="5.44687">
        <ele>245.273438</ele>
        <time>2011-05-27T15:24:52Z</time>
      </trkpt>
      <trkpt lat="47.10547" lon="5.44774">
        <ele>248.157593</ele>
        <time>2011-05-27T15:25:03Z</time>
      </trkpt>
      <trkpt lat="47.10542" lon="5.44846">
        <ele>250.0802</ele>
        <time>2011-05-27T15:25:12Z</time>
      </trkpt>
      <trkpt lat="47.10534" lon="5.44905">
        <ele>251.041382</ele>
        <time>2011-05-27T15:25:20Z</time>
      </trkpt>
      <trkpt lat="47.10524" lon="5.44968">
        <ele>255.36731</ele>
        <time>2011-05-27T15:25:29Z</time>
      </trkpt>
      <trkpt lat="47.10514" lon="5.45004">
        <ele>258.251343</ele>
        <time>2011-05-27T15:25:35Z</time>
      </trkpt>
      <trkpt lat="47.10498" lon="5.45054">
        <ele>261.615967</ele>
        <time>2011-05-27T15:25:43Z</time>
      </trkpt>
      <trkpt lat="47.10493" lon="5.45091">
        <ele>263.538574</ele>
        <time>2011-05-27T15:25:48Z</time>
      </trkpt>
      <trkpt lat="47.10492" lon="5.45123">
        <ele>264.499878</ele>
        <time>2011-05-27T15:25:52Z</time>
      </trkpt>
      <trkpt lat="47.10498" lon="5.45191">
        <ele>256.809326</ele>
        <time>2011-05-27T15:26:01Z</time>
      </trkpt>
      <trkpt lat="47.10502" lon="5.45232">
        <ele>257.290039</ele>
        <time>2011-05-27T15:26:09Z</time>
      </trkpt>
      <trkpt lat="47.10506" lon="5.45272">
        <ele>257.770752</ele>
        <time>2011-05-27T15:26:18Z</time>
      </trkpt>
      <trkpt lat="47.10507" lon="5.45306">
        <ele>257.770752</ele>
        <time>2011-05-27T15:26:24Z</time>
      </trkpt>
      <trkpt lat="47.10506" lon="5.4535">
        <ele>261.615967</ele>
        <time>2011-05-27T15:26:30Z</time>
      </trkpt>
      <trkpt lat="47.10503" lon="5.45368">
        <ele>262.577148</ele>
        <time>2011-05-27T15:26:32Z</time>
      </trkpt>
      <trkpt lat="47.10488" lon="5.4543">
        <ele>261.135254</ele>
        <time>2011-05-27T15:26:38Z</time>
      </trkpt>
      <trkpt lat="47.10459" lon="5.45532">
        <ele>257.290039</ele>
        <time>2011-05-27T15:26:47Z</time>
      </trkpt>
      <trkpt lat="47.10441" lon="5.45605">
        <ele>247.676758</ele>
        <time>2011-05-27T15:26:54Z</time>
      </trkpt>
      <trkpt lat="47.10429" lon="5.45681">
        <ele>247.676758</ele>
        <time>2011-05-27T15:27:02Z</time>
      </trkpt>
      <trkpt lat="47.10411" lon="5.45738">
        <ele>247.676758</ele>
        <time>2011-05-27T15:27:09Z</time>
      </trkpt>
      <trkpt lat="47.10381" lon="5.4581">
        <ele>247.196045</ele>
        <time>2011-05-27T15:27:18Z</time>
      </trkpt>
      <trkpt lat="47.10359" lon="5.45886">
        <ele>245.75415</ele>
        <time>2011-05-27T15:27:26Z</time>
      </trkpt>
      <trkpt lat="47.10341" lon="5.45965">
        <ele>245.273438</ele>
        <time>2011-05-27T15:27:33Z</time>
      </trkpt>
      <trkpt lat="47.10331" lon="5.46009">
        <ele>242.870239</ele>
        <time>2011-05-27T15:27:37Z</time>
      </trkpt>
      <trkpt lat="47.10315" lon="5.46027">
        <ele>242.870239</ele>
        <time>2011-05-27T15:27:41Z</time>
      </trkpt>
      <trkpt lat="47.10311" lon="5.46028">
        <ele>242.389648</ele>
        <time>2011-05-27T15:27:42Z</time>
      </trkpt>
      <trkpt lat="47.10281" lon="5.4603">
        <ele>244.312256</ele>
        <time>2011-05-27T15:27:48Z</time>
      </trkpt>
      <trkpt lat="47.10271" lon="5.46025">
        <ele>244.792847</ele>
        <time>2011-05-27T15:27:50Z</time>
      </trkpt>
      <trkpt lat="47.10234" lon="5.46004">
        <ele>245.75415</ele>
        <time>2011-05-27T15:27:58Z</time>
      </trkpt>
      <trkpt lat="47.10185" lon="5.45978">
        <ele>246.715454</ele>
        <time>2011-05-27T15:28:09Z</time>
      </trkpt>
      <trkpt lat="47.10166" lon="5.45971">
        <ele>247.676758</ele>
        <time>2011-05-27T15:28:13Z</time>
      </trkpt>
      <trkpt lat="47.10131" lon="5.45969">
        <ele>248.638184</ele>
        <time>2011-05-27T15:28:20Z</time>
      </trkpt>
      <trkpt lat="47.10106" lon="5.45951">
        <ele>247.676758</ele>
        <time>2011-05-27T15:28:25Z</time>
      </trkpt>
      <trkpt lat="47.10102" lon="5.45945">
        <ele>247.676758</ele>
        <time>2011-05-27T15:28:26Z</time>
      </trkpt>
      <trkpt lat="47.10075" lon="5.45918">
        <ele>246.715454</ele>
        <time>2011-05-27T15:28:32Z</time>
      </trkpt>
      <trkpt lat="47.1007" lon="5.45916">
        <ele>246.715454</ele>
        <time>2011-05-27T15:28:33Z</time>
      </trkpt>
      <trkpt lat="47.10031" lon="5.45919">
        <ele>247.196045</ele>
        <time>2011-05-27T15:28:40Z</time>
      </trkpt>
      <trkpt lat="47.09993" lon="5.45927">
        <ele>244.312256</ele>
        <time>2011-05-27T15:28:47Z</time>
      </trkpt>
      <trkpt lat="47.09982" lon="5.45929">
        <ele>244.792847</ele>
        <time>2011-05-27T15:28:49Z</time>
      </trkpt>
      <trkpt lat="47.0997" lon="5.45929">
        <ele>242.870239</ele>
        <time>2011-05-27T15:28:51Z</time>
      </trkpt>
      <trkpt lat="47.09959" lon="5.45929">
        <ele>242.870239</ele>
        <time>2011-05-27T15:28:53Z</time>
      </trkpt>
      <trkpt lat="47.09917" lon="5.4593">
        <ele>245.75415</ele>
        <time>2011-05-27T15:29:00Z</time>
      </trkpt>
      <trkpt lat="47.09892" lon="5.45931">
        <ele>247.676758</ele>
        <time>2011-05-27T15:29:03Z</time>
      </trkpt>
      <trkpt lat="47.09825" lon="5.45915">
        <ele>246.715454</ele>
        <time>2011-05-27T15:29:11Z</time>
      </trkpt>
      <trkpt lat="47.09765" lon="5.459">
        <ele>245.273438</ele>
        <time>2011-05-27T15:29:18Z</time>
      </trkpt>
      <trkpt lat="47.09701" lon="5.45881">
        <ele>243.35083</ele>
        <time>2011-05-27T15:29:26Z</time>
      </trkpt>
      <trkpt lat="47.09646" lon="5.45875">
        <ele>240.947632</ele>
        <time>2011-05-27T15:29:33Z</time>
      </trkpt>
      <trkpt lat="47.09597" lon="5.45864">
        <ele>239.024902</ele>
        <time>2011-05-27T15:29:39Z</time>
      </trkpt>
      <trkpt lat="47.09553" lon="5.4586">
        <ele>236.621704</ele>
        <time>2011-05-27T15:29:44Z</time>
      </trkpt>
      <trkpt lat="47.09519" lon="5.45842">
        <ele>232.776489</ele>
        <time>2011-05-27T15:29:48Z</time>
      </trkpt>
      <trkpt lat="47.09455" lon="5.45777">
        <ele>228.450439</ele>
        <time>2011-05-27T15:29:57Z</time>
      </trkpt>
      <trkpt lat="47.09437" lon="5.45755">
        <ele>227.969727</ele>
        <time>2011-05-27T15:30:00Z</time>
      </trkpt>
      <trkpt lat="47.09408" lon="5.45746">
        <ele>226.527832</ele>
        <time>2011-05-27T15:30:04Z</time>
      </trkpt>
      <trkpt lat="47.09401" lon="5.45751">
        <ele>226.047119</ele>
        <time>2011-05-27T15:30:05Z</time>
      </trkpt>
      <trkpt lat="47.09369" lon="5.45782">
        <ele>225.566528</ele>
        <time>2011-05-27T15:30:10Z</time>
      </trkpt>
      <trkpt lat="47.09341" lon="5.45792">
        <ele>224.605225</ele>
        <time>2011-05-27T15:30:14Z</time>
      </trkpt>
      <trkpt lat="47.09334" lon="5.4579">
        <ele>223.163208</ele>
        <time>2011-05-27T15:30:15Z</time>
      </trkpt>
      <trkpt lat="47.09265" lon="5.45764">
        <ele>221.721191</ele>
        <time>2011-05-27T15:30:24Z</time>
      </trkpt>
      <trkpt lat="47.09164" lon="5.45741">
        <ele>219.317993</ele>
        <time>2011-05-27T15:30:37Z</time>
      </trkpt>
      <trkpt lat="47.09133" lon="5.45748">
        <ele>216.43396</ele>
        <time>2011-05-27T15:30:41Z</time>
      </trkpt>
      <trkpt lat="47.09082" lon="5.45767">
        <ele>213.550049</ele>
        <time>2011-05-27T15:30:47Z</time>
      </trkpt>
      <trkpt lat="47.09073" lon="5.45771">
        <ele>213.069336</ele>
        <time>2011-05-27T15:30:48Z</time>
      </trkpt>
      <trkpt lat="47.09036" lon="5.45771">
        <ele>212.108032</ele>
        <time>2011-05-27T15:30:52Z</time>
      </trkpt>
      <trkpt lat="47.09027" lon="5.45768">
        <ele>212.108032</ele>
        <time>2011-05-27T15:30:53Z</time>
      </trkpt>
      <trkpt lat="47.08958" lon="5.45733">
        <ele>209.224121</ele>
        <time>2011-05-27T15:31:01Z</time>
      </trkpt>
      <trkpt lat="47.0889" lon="5.45689">
        <ele>205.378784</ele>
        <time>2011-05-27T15:31:10Z</time>
      </trkpt>
      <trkpt lat="47.08824" lon="5.45645">
        <ele>204.41748</ele>
        <time>2011-05-27T15:31:19Z</time>
      </trkpt>
      <trkpt lat="47.08789" lon="5.45617">
        <ele>208.262817</ele>
        <time>2011-05-27T15:31:25Z</time>
      </trkpt>
      <trkpt lat="47.08755" lon="5.45585">
        <ele>209.704834</ele>
        <time>2011-05-27T15:31:32Z</time>
      </trkpt>
      <trkpt lat="47.08708" lon="5.45539">
        <ele>206.820679</ele>
        <time>2011-05-27T15:31:42Z</time>
      </trkpt>
      <trkpt lat="47.0868" lon="5.45504">
        <ele>209.224121</ele>
        <time>2011-05-27T15:31:49Z</time>
      </trkpt>
      <trkpt lat="47.08665" lon="5.45481">
        <ele>211.627441</ele>
        <time>2011-05-27T15:31:54Z</time>
      </trkpt>
      <trkpt lat="47.08663" lon="5.45478">
        <ele>211.627441</ele>
        <time>2011-05-27T15:31:55Z</time>
      </trkpt>
      <trkpt lat="47.08647" lon="5.45469">
        <ele>213.069336</ele>
        <time>2011-05-27T15:32:01Z</time>
      </trkpt>
      <trkpt lat="47.08632" lon="5.45475">
        <ele>213.550049</ele>
        <time>2011-05-27T15:32:05Z</time>
      </trkpt>
      <trkpt lat="47.08592" lon="5.45499">
        <ele>213.550049</ele>
        <time>2011-05-27T15:32:13Z</time>
      </trkpt>
      <trkpt lat="47.08536" lon="5.45521">
        <ele>215.953247</ele>
        <time>2011-05-27T15:32:22Z</time>
      </trkpt>
      <trkpt lat="47.0849" lon="5.45543">
        <ele>214.03064</ele>
        <time>2011-05-27T15:32:29Z</time>
      </trkpt>
      <trkpt lat="47.08445" lon="5.45557">
        <ele>209.224121</ele>
        <time>2011-05-27T15:32:36Z</time>
      </trkpt>
      <trkpt lat="47.08413" lon="5.45564">
        <ele>206.340088</ele>
        <time>2011-05-27T15:32:42Z</time>
      </trkpt>
      <trkpt lat="47.08378" lon="5.4558">
        <ele>206.820679</ele>
        <time>2011-05-27T15:32:49Z</time>
      </trkpt>
      <trkpt lat="47.08363" lon="5.45588">
        <ele>207.301392</ele>
        <time>2011-05-27T15:32:52Z</time>
      </trkpt>
      <trkpt lat="47.08348" lon="5.45592">
        <ele>206.820679</ele>
        <time>2011-05-27T15:32:55Z</time>
      </trkpt>
      <trkpt lat="47.08336" lon="5.45606">
        <ele>206.820679</ele>
        <time>2011-05-27T15:32:59Z</time>
      </trkpt>
      <trkpt lat="47.08328" lon="5.45629">
        <ele>206.820679</ele>
        <time>2011-05-27T15:33:03Z</time>
      </trkpt>
      <trkpt lat="47.08324" lon="5.45633">
        <ele>206.820679</ele>
        <time>2011-05-27T15:33:04Z</time>
      </trkpt>
      <trkpt lat="47.08284" lon="5.45664">
        <ele>208.262817</ele>
        <time>2011-05-27T15:33:12Z</time>
      </trkpt>
      <trkpt lat="47.08237" lon="5.45705">
        <ele>210.185425</ele>
        <time>2011-05-27T15:33:21Z</time>
      </trkpt>
      <trkpt lat="47.08199" lon="5.45743">
        <ele>212.108032</ele>
        <time>2011-05-27T15:33:29Z</time>
      </trkpt>
      <trkpt lat="47.08171" lon="5.45774">
        <ele>213.550049</ele>
        <time>2011-05-27T15:33:36Z</time>
      </trkpt>
      <trkpt lat="47.0814" lon="5.45806">
        <ele>214.991943</ele>
        <time>2011-05-27T15:33:44Z</time>
      </trkpt>
      <trkpt lat="47.0812" lon="5.45831">
        <ele>214.991943</ele>
        <time>2011-05-27T15:33:51Z</time>
      </trkpt>
      <trkpt lat="47.08109" lon="5.45839">
        <ele>215.472656</ele>
        <time>2011-05-27T15:33:55Z</time>
      </trkpt>
      <trkpt lat="47.08098" lon="5.45846">
        <ele>215.472656</ele>
        <time>2011-05-27T15:33:59Z</time>
      </trkpt>
      <trkpt lat="47.08096" lon="5.45865">
        <ele>215.953247</ele>
        <time>2011-05-27T15:34:03Z</time>
      </trkpt>
      <trkpt lat="47.08097" lon="5.45871">
        <ele>215.472656</ele>
        <time>2011-05-27T15:34:04Z</time>
      </trkpt>
      <trkpt lat="47.08099" lon="5.45906">
        <ele>217.395386</ele>
        <time>2011-05-27T15:34:09Z</time>
      </trkpt>
      <trkpt lat="47.08098" lon="5.45914">
        <ele>217.395386</ele>
        <time>2011-05-27T15:34:10Z</time>
      </trkpt>
      <trkpt lat="47.08088" lon="5.45961">
        <ele>216.914673</ele>
        <time>2011-05-27T15:34:16Z</time>
      </trkpt>
      <trkpt lat="47.08079" lon="5.46011">
        <ele>217.875977</ele>
        <time>2011-05-27T15:34:22Z</time>
      </trkpt>
      <trkpt lat="47.08068" lon="5.46073">
        <ele>219.317993</ele>
        <time>2011-05-27T15:34:29Z</time>
      </trkpt>
      <trkpt lat="47.08056" lon="5.46141">
        <ele>220.279175</ele>
        <time>2011-05-27T15:34:37Z</time>
      </trkpt>
      <trkpt lat="47.08054" lon="5.4615">
        <ele>219.798584</ele>
        <time>2011-05-27T15:34:38Z</time>
      </trkpt>
      <trkpt lat="47.08037" lon="5.46216">
        <ele>220.759888</ele>
        <time>2011-05-27T15:34:46Z</time>
      </trkpt>
      <trkpt lat="47.08026" lon="5.46258">
        <ele>222.201782</ele>
        <time>2011-05-27T15:34:51Z</time>
      </trkpt>
      <trkpt lat="47.08019" lon="5.46283">
        <ele>222.682495</ele>
        <time>2011-05-27T15:34:54Z</time>
      </trkpt>
      <trkpt lat="47.08006" lon="5.46306">
        <ele>224.124512</ele>
        <time>2011-05-27T15:34:58Z</time>
      </trkpt>
      <trkpt lat="47.07998" lon="5.46331">
        <ele>227.008545</ele>
        <time>2011-05-27T15:35:03Z</time>
      </trkpt>
      <trkpt lat="47.08002" lon="5.46342">
        <ele>229.411743</ele>
        <time>2011-05-27T15:35:05Z</time>
      </trkpt>
      <trkpt lat="47.08009" lon="5.46354">
        <ele>231.334351</ele>
        <time>2011-05-27T15:35:07Z</time>
      </trkpt>
      <trkpt lat="47.08024" lon="5.464">
        <ele>234.218384</ele>
        <time>2011-05-27T15:35:13Z</time>
      </trkpt>
      <trkpt lat="47.08044" lon="5.46451">
        <ele>234.699097</ele>
        <time>2011-05-27T15:35:20Z</time>
      </trkpt>
      <trkpt lat="47.08069" lon="5.465">
        <ele>234.218384</ele>
        <time>2011-05-27T15:35:27Z</time>
      </trkpt>
      <trkpt lat="47.08099" lon="5.46548">
        <ele>232.776489</ele>
        <time>2011-05-27T15:35:33Z</time>
      </trkpt>
      <trkpt lat="47.08119" lon="5.46599">
        <ele>231.814941</ele>
        <time>2011-05-27T15:35:39Z</time>
      </trkpt>
      <trkpt lat="47.08138" lon="5.46635">
        <ele>234.218384</ele>
        <time>2011-05-27T15:35:45Z</time>
      </trkpt>
      <trkpt lat="47.08159" lon="5.46676">
        <ele>238.544312</ele>
        <time>2011-05-27T15:35:53Z</time>
      </trkpt>
      <trkpt lat="47.08162" lon="5.46681">
        <ele>239.024902</ele>
        <time>2011-05-27T15:35:54Z</time>
      </trkpt>
      <trkpt lat="47.08172" lon="5.46704">
        <ele>240.947632</ele>
        <time>2011-05-27T15:35:58Z</time>
      </trkpt>
      <trkpt lat="47.08183" lon="5.46743">
        <ele>244.312256</ele>
        <time>2011-05-27T15:36:04Z</time>
      </trkpt>
      <trkpt lat="47.08188" lon="5.46791">
        <ele>245.75415</ele>
        <time>2011-05-27T15:36:11Z</time>
      </trkpt>
      <trkpt lat="47.08187" lon="5.46812">
        <ele>246.715454</ele>
        <time>2011-05-27T15:36:14Z</time>
      </trkpt>
      <trkpt lat="47.08181" lon="5.46857">
        <ele>244.792847</ele>
        <time>2011-05-27T15:36:21Z</time>
      </trkpt>
      <trkpt lat="47.08176" lon="5.46897">
        <ele>242.870239</ele>
        <time>2011-05-27T15:36:29Z</time>
      </trkpt>
      <trkpt lat="47.08172" lon="5.46918">
        <ele>242.389648</ele>
        <time>2011-05-27T15:36:35Z</time>
      </trkpt>
      <trkpt lat="47.08172" lon="5.4692">
        <ele>242.870239</ele>
        <time>2011-05-27T15:36:36Z</time>
      </trkpt>
      <trkpt lat="47.08171" lon="5.46921">
        <ele>243.831543</ele>
        <time>2011-05-27T15:36:43Z</time>
      </trkpt>
      <trkpt lat="47.08168" lon="5.46926">
        <ele>242.870239</ele>
        <time>2011-05-27T15:36:48Z</time>
      </trkpt>
      <trkpt lat="47.08163" lon="5.46945">
        <ele>242.870239</ele>
        <time>2011-05-27T15:36:53Z</time>
      </trkpt>
      <trkpt lat="47.0816" lon="5.46976">
        <ele>242.870239</ele>
        <time>2011-05-27T15:36:59Z</time>
      </trkpt>
      <trkpt lat="47.0816" lon="5.46991">
        <ele>243.831543</ele>
        <time>2011-05-27T15:37:03Z</time>
      </trkpt>
      <trkpt lat="47.0816" lon="5.46993">
        <ele>245.273438</ele>
        <time>2011-05-27T15:37:07Z</time>
      </trkpt>
      <trkpt lat="47.0816" lon="5.46994">
        <ele>246.234863</ele>
        <time>2011-05-27T15:37:20Z</time>
      </trkpt>
      <trkpt lat="47.0816" lon="5.46995">
        <ele>246.234863</ele>
        <time>2011-05-27T15:37:27Z</time>
      </trkpt>
      <trkpt lat="47.08159" lon="5.46995">
        <ele>246.234863</ele>
        <time>2011-05-27T15:37:37Z</time>
      </trkpt>
      <trkpt lat="47.0816" lon="5.46995">
        <ele>245.273438</ele>
        <time>2011-05-27T15:37:45Z</time>
      </trkpt>
      <trkpt lat="47.08159" lon="5.46998">
        <ele>245.75415</ele>
        <time>2011-05-27T15:37:54Z</time>
      </trkpt>
      <trkpt lat="47.08161" lon="5.47014">
        <ele>246.715454</ele>
        <time>2011-05-27T15:38:00Z</time>
      </trkpt>
      <trkpt lat="47.08162" lon="5.47027">
        <ele>247.196045</ele>
        <time>2011-05-27T15:38:03Z</time>
      </trkpt>
      <trkpt lat="47.08166" lon="5.47074">
        <ele>247.196045</ele>
        <time>2011-05-27T15:38:10Z</time>
      </trkpt>
      <trkpt lat="47.08171" lon="5.47142">
        <ele>247.196045</ele>
        <time>2011-05-27T15:38:19Z</time>
      </trkpt>
      <trkpt lat="47.08178" lon="5.4723">
        <ele>247.676758</ele>
        <time>2011-05-27T15:38:31Z</time>
      </trkpt>
      <trkpt lat="47.08175" lon="5.47268">
        <ele>246.715454</ele>
        <time>2011-05-27T15:38:36Z</time>
      </trkpt>
      <trkpt lat="47.08174" lon="5.47276">
        <ele>246.715454</ele>
        <time>2011-05-27T15:38:37Z</time>
      </trkpt>
      <trkpt lat="47.08181" lon="5.47347">
        <ele>247.196045</ele>
        <time>2011-05-27T15:38:45Z</time>
      </trkpt>
      <trkpt lat="47.08186" lon="5.47385">
        <ele>245.273438</ele>
        <time>2011-05-27T15:38:50Z</time>
      </trkpt>
      <trkpt lat="47.08184" lon="5.47425">
        <ele>243.831543</ele>
        <time>2011-05-27T15:38:55Z</time>
      </trkpt>
      <trkpt lat="47.08174" lon="5.47476">
        <ele>239.986206</ele>
        <time>2011-05-27T15:39:00Z</time>
      </trkpt>
      <trkpt lat="47.08159" lon="5.47517">
        <ele>236.621704</ele>
        <time>2011-05-27T15:39:05Z</time>
      </trkpt>
      <trkpt lat="47.08146" lon="5.4754">
        <ele>235.179688</ele>
        <time>2011-05-27T15:39:09Z</time>
      </trkpt>
      <trkpt lat="47.0814" lon="5.47552">
        <ele>234.218384</ele>
        <time>2011-05-27T15:39:11Z</time>
      </trkpt>
      <trkpt lat="47.08128" lon="5.4756">
        <ele>232.295776</ele>
        <time>2011-05-27T15:39:15Z</time>
      </trkpt>
      <trkpt lat="47.08107" lon="5.4757">
        <ele>231.334351</ele>
        <time>2011-05-27T15:39:20Z</time>
      </trkpt>
      <trkpt lat="47.08096" lon="5.47589">
        <ele>231.334351</ele>
        <time>2011-05-27T15:39:23Z</time>
      </trkpt>
      <trkpt lat="47.08093" lon="5.47636">
        <ele>230.85376</ele>
        <time>2011-05-27T15:39:28Z</time>
      </trkpt>
      <trkpt lat="47.08095" lon="5.47645">
        <ele>230.85376</ele>
        <time>2011-05-27T15:39:29Z</time>
      </trkpt>
      <trkpt lat="47.081" lon="5.47662">
        <ele>230.85376</ele>
        <time>2011-05-27T15:39:31Z</time>
      </trkpt>
      <trkpt lat="47.08101" lon="5.47698">
        <ele>231.334351</ele>
        <time>2011-05-27T15:39:35Z</time>
      </trkpt>
      <trkpt lat="47.081" lon="5.47707">
        <ele>231.334351</ele>
        <time>2011-05-27T15:39:36Z</time>
      </trkpt>
      <trkpt lat="47.08079" lon="5.47789">
        <ele>228.931152</ele>
        <time>2011-05-27T15:39:44Z</time>
      </trkpt>
      <trkpt lat="47.08045" lon="5.47914">
        <ele>222.682495</ele>
        <time>2011-05-27T15:39:55Z</time>
      </trkpt>
      <trkpt lat="47.08012" lon="5.48037">
        <ele>217.395386</ele>
        <time>2011-05-27T15:40:05Z</time>
      </trkpt>
      <trkpt lat="47.07976" lon="5.48168">
        <ele>212.588623</ele>
        <time>2011-05-27T15:40:15Z</time>
      </trkpt>
      <trkpt lat="47.07935" lon="5.48321">
        <ele>208.743408</ele>
        <time>2011-05-27T15:40:26Z</time>
      </trkpt>
      <trkpt lat="47.07898" lon="5.4846">
        <ele>204.898071</ele>
        <time>2011-05-27T15:40:36Z</time>
      </trkpt>
      <trkpt lat="47.07863" lon="5.48594">
        <ele>202.014282</ele>
        <time>2011-05-27T15:40:45Z</time>
      </trkpt>
      <trkpt lat="47.07826" lon="5.48731">
        <ele>198.168945</ele>
        <time>2011-05-27T15:40:54Z</time>
      </trkpt>
      <trkpt lat="47.07805" lon="5.48806">
        <ele>194.804321</ele>
        <time>2011-05-27T15:41:00Z</time>
      </trkpt>
      <trkpt lat="47.0779" lon="5.48856">
        <ele>193.362305</ele>
        <time>2011-05-27T15:41:05Z</time>
      </trkpt>
      <trkpt lat="47.07788" lon="5.48863">
        <ele>192.881714</ele>
        <time>2011-05-27T15:41:06Z</time>
      </trkpt>
      <trkpt lat="47.07774" lon="5.48878">
        <ele>193.362305</ele>
        <time>2011-05-27T15:41:10Z</time>
      </trkpt>
      <trkpt lat="47.07756" lon="5.48888">
        <ele>193.843018</ele>
        <time>2011-05-27T15:41:14Z</time>
      </trkpt>
      <trkpt lat="47.07734" lon="5.48896">
        <ele>194.32373</ele>
        <time>2011-05-27T15:41:19Z</time>
      </trkpt>
      <trkpt lat="47.07724" lon="5.48892">
        <ele>194.804321</ele>
        <time>2011-05-27T15:41:21Z</time>
      </trkpt>
      <trkpt lat="47.07706" lon="5.48898">
        <ele>196.246338</ele>
        <time>2011-05-27T15:41:25Z</time>
      </trkpt>
      <trkpt lat="47.07695" lon="5.48919">
        <ele>197.688232</ele>
        <time>2011-05-27T15:41:29Z</time>
      </trkpt>
      <trkpt lat="47.07694" lon="5.48925">
        <ele>197.688232</ele>
        <time>2011-05-27T15:41:30Z</time>
      </trkpt>
      <trkpt lat="47.07689" lon="5.48955">
        <ele>197.688232</ele>
        <time>2011-05-27T15:41:35Z</time>
      </trkpt>
      <trkpt lat="47.0767" lon="5.48991">
        <ele>198.649536</ele>
        <time>2011-05-27T15:41:42Z</time>
      </trkpt>
      <trkpt lat="47.0766" lon="5.49003">
        <ele>199.130127</ele>
        <time>2011-05-27T15:41:45Z</time>
      </trkpt>
      <trkpt lat="47.07653" lon="5.4901">
        <ele>199.130127</ele>
        <time>2011-05-27T15:41:47Z</time>
      </trkpt>
      <trkpt lat="47.07625" lon="5.49047">
        <ele>199.130127</ele>
        <time>2011-05-27T15:41:55Z</time>
      </trkpt>
      <trkpt lat="47.07607" lon="5.49072">
        <ele>198.649536</ele>
        <time>2011-05-27T15:42:00Z</time>
      </trkpt>
      <trkpt lat="47.07603" lon="5.49093">
        <ele>199.61084</ele>
        <time>2011-05-27T15:42:04Z</time>
      </trkpt>
      <trkpt lat="47.07594" lon="5.49116">
        <ele>199.61084</ele>
        <time>2011-05-27T15:42:11Z</time>
      </trkpt>
      <trkpt lat="47.07591" lon="5.49125">
        <ele>201.052856</ele>
        <time>2011-05-27T15:42:16Z</time>
      </trkpt>
      <trkpt lat="47.07582" lon="5.4914">
        <ele>202.975464</ele>
        <time>2011-05-27T15:42:21Z</time>
      </trkpt>
      <trkpt lat="47.07568" lon="5.49168">
        <ele>203.93689</ele>
        <time>2011-05-27T15:42:26Z</time>
      </trkpt>
      <trkpt lat="47.07546" lon="5.4921">
        <ele>204.41748</ele>
        <time>2011-05-27T15:42:32Z</time>
      </trkpt>
      <trkpt lat="47.07517" lon="5.49267">
        <ele>203.456177</ele>
        <time>2011-05-27T15:42:39Z</time>
      </trkpt>
      <trkpt lat="47.07488" lon="5.49323">
        <ele>204.41748</ele>
        <time>2011-05-27T15:42:46Z</time>
      </trkpt>
      <trkpt lat="47.07465" lon="5.49367">
        <ele>207.782104</ele>
        <time>2011-05-27T15:42:52Z</time>
      </trkpt>
      <trkpt lat="47.07448" lon="5.49398">
        <ele>209.224121</ele>
        <time>2011-05-27T15:42:57Z</time>
      </trkpt>
      <trkpt lat="47.07432" lon="5.49409">
        <ele>209.224121</ele>
        <time>2011-05-27T15:43:01Z</time>
      </trkpt>
      <trkpt lat="47.07421" lon="5.4942">
        <ele>209.224121</ele>
        <time>2011-05-27T15:43:04Z</time>
      </trkpt>
      <trkpt lat="47.07419" lon="5.49433">
        <ele>209.224121</ele>
        <time>2011-05-27T15:43:06Z</time>
      </trkpt>
      <trkpt lat="47.07416" lon="5.49458">
        <ele>209.704834</ele>
        <time>2011-05-27T15:43:09Z</time>
      </trkpt>
      <trkpt lat="47.07399" lon="5.49499">
        <ele>210.666016</ele>
        <time>2011-05-27T15:43:15Z</time>
      </trkpt>
      <trkpt lat="47.0738" lon="5.49545">
        <ele>212.588623</ele>
        <time>2011-05-27T15:43:22Z</time>
      </trkpt>
      <trkpt lat="47.0736" lon="5.49602">
        <ele>213.069336</ele>
        <time>2011-05-27T15:43:30Z</time>
      </trkpt>
      <trkpt lat="47.0734" lon="5.49662">
        <ele>212.108032</ele>
        <time>2011-05-27T15:43:38Z</time>
      </trkpt>
      <trkpt lat="47.07331" lon="5.49698">
        <ele>211.146729</ele>
        <time>2011-05-27T15:43:43Z</time>
      </trkpt>
      <trkpt lat="47.07316" lon="5.49716">
        <ele>213.550049</ele>
        <time>2011-05-27T15:43:47Z</time>
      </trkpt>
      <trkpt lat="47.07304" lon="5.49731">
        <ele>214.51123</ele>
        <time>2011-05-27T15:43:50Z</time>
      </trkpt>
      <trkpt lat="47.07301" lon="5.49754">
        <ele>214.51123</ele>
        <time>2011-05-27T15:43:53Z</time>
      </trkpt>
      <trkpt lat="47.07309" lon="5.49773">
        <ele>214.51123</ele>
        <time>2011-05-27T15:43:56Z</time>
      </trkpt>
      <trkpt lat="47.07325" lon="5.49781">
        <ele>214.991943</ele>
        <time>2011-05-27T15:43:59Z</time>
      </trkpt>
      <trkpt lat="47.07349" lon="5.49794">
        <ele>215.953247</ele>
        <time>2011-05-27T15:44:03Z</time>
      </trkpt>
      <trkpt lat="47.07387" lon="5.49813">
        <ele>218.83728</ele>
        <time>2011-05-27T15:44:09Z</time>
      </trkpt>
      <trkpt lat="47.07399" lon="5.49819">
        <ele>219.798584</ele>
        <time>2011-05-27T15:44:11Z</time>
      </trkpt>
      <trkpt lat="47.07437" lon="5.49832">
        <ele>222.201782</ele>
        <time>2011-05-27T15:44:17Z</time>
      </trkpt>
      <trkpt lat="47.07487" lon="5.49852">
        <ele>220.759888</ele>
        <time>2011-05-27T15:44:24Z</time>
      </trkpt>
      <trkpt lat="47.07538" lon="5.49865">
        <ele>219.317993</ele>
        <time>2011-05-27T15:44:31Z</time>
      </trkpt>
      <trkpt lat="47.07545" lon="5.49889">
        <ele>219.798584</ele>
        <time>2011-05-27T15:44:35Z</time>
      </trkpt>
      <trkpt lat="47.07543" lon="5.49912">
        <ele>219.798584</ele>
        <time>2011-05-27T15:44:38Z</time>
      </trkpt>
      <trkpt lat="47.0754" lon="5.49926">
        <ele>218.83728</ele>
        <time>2011-05-27T15:44:40Z</time>
      </trkpt>
      <trkpt lat="47.07538" lon="5.49942">
        <ele>218.83728</ele>
        <time>2011-05-27T15:44:42Z</time>
      </trkpt>
      <trkpt lat="47.07532" lon="5.49998">
        <ele>220.279175</ele>
        <time>2011-05-27T15:44:49Z</time>
      </trkpt>
      <trkpt lat="47.07526" lon="5.50054">
        <ele>222.201782</ele>
        <time>2011-05-27T15:44:56Z</time>
      </trkpt>
      <trkpt lat="47.07529" lon="5.50114">
        <ele>222.201782</ele>
        <time>2011-05-27T15:45:04Z</time>
      </trkpt>
      <trkpt lat="47.07532" lon="5.50153">
        <ele>223.643799</ele>
        <time>2011-05-27T15:45:10Z</time>
      </trkpt>
      <trkpt lat="47.07533" lon="5.50159">
        <ele>224.124512</ele>
        <time>2011-05-27T15:45:11Z</time>
      </trkpt>
      <trkpt lat="47.07533" lon="5.50185">
        <ele>224.605225</ele>
        <time>2011-05-27T15:45:17Z</time>
      </trkpt>
      <trkpt lat="47.07533" lon="5.50186">
        <ele>225.085938</ele>
        <time>2011-05-27T15:45:21Z</time>
      </trkpt>
      <trkpt lat="47.07533" lon="5.50186">
        <ele>225.566528</ele>
        <time>2011-05-27T15:45:28Z</time>
      </trkpt>
      <trkpt lat="47.07535" lon="5.50195">
        <ele>225.566528</ele>
        <time>2011-05-27T15:45:32Z</time>
      </trkpt>
      <trkpt lat="47.07546" lon="5.50217">
        <ele>226.047119</ele>
        <time>2011-05-27T15:45:38Z</time>
      </trkpt>
      <trkpt lat="47.07557" lon="5.5025">
        <ele>227.008545</ele>
        <time>2011-05-27T15:45:43Z</time>
      </trkpt>
      <trkpt lat="47.07572" lon="5.50298">
        <ele>228.450439</ele>
        <time>2011-05-27T15:45:49Z</time>
      </trkpt>
      <trkpt lat="47.07594" lon="5.5036">
        <ele>230.373047</ele>
        <time>2011-05-27T15:45:57Z</time>
      </trkpt>
      <trkpt lat="47.07596" lon="5.50368">
        <ele>230.85376</ele>
        <time>2011-05-27T15:45:58Z</time>
      </trkpt>
      <trkpt lat="47.07613" lon="5.50421">
        <ele>232.295776</ele>
        <time>2011-05-27T15:46:05Z</time>
      </trkpt>
      <trkpt lat="47.07629" lon="5.50469">
        <ele>233.25708</ele>
        <time>2011-05-27T15:46:12Z</time>
      </trkpt>
      <trkpt lat="47.07637" lon="5.50497">
        <ele>232.776489</ele>
        <time>2011-05-27T15:46:16Z</time>
      </trkpt>
      <trkpt lat="47.07656" lon="5.50552">
        <ele>230.85376</ele>
        <time>2011-05-27T15:46:24Z</time>
      </trkpt>
      <trkpt lat="47.07669" lon="5.50589">
        <ele>229.892334</ele>
        <time>2011-05-27T15:46:29Z</time>
      </trkpt>
      <trkpt lat="47.077" lon="5.50651">
        <ele>231.334351</ele>
        <time>2011-05-27T15:46:38Z</time>
      </trkpt>
      <trkpt lat="47.07715" lon="5.50682">
        <ele>231.814941</ele>
        <time>2011-05-27T15:46:43Z</time>
      </trkpt>
      <trkpt lat="47.0774" lon="5.50737">
        <ele>233.25708</ele>
        <time>2011-05-27T15:46:52Z</time>
      </trkpt>
      <trkpt lat="47.07762" lon="5.50784">
        <ele>233.737671</ele>
        <time>2011-05-27T15:46:59Z</time>
      </trkpt>
      <trkpt lat="47.07791" lon="5.50846">
        <ele>234.699097</ele>
        <time>2011-05-27T15:47:08Z</time>
      </trkpt>
      <trkpt lat="47.07809" lon="5.50879">
        <ele>234.218384</ele>
        <time>2011-05-27T15:47:14Z</time>
      </trkpt>
      <trkpt lat="47.07803" lon="5.50896">
        <ele>233.25708</ele>
        <time>2011-05-27T15:47:18Z</time>
      </trkpt>
      <trkpt lat="47.07768" lon="5.50935">
        <ele>231.334351</ele>
        <time>2011-05-27T15:47:26Z</time>
      </trkpt>
      <trkpt lat="47.07738" lon="5.50979">
        <ele>229.892334</ele>
        <time>2011-05-27T15:47:33Z</time>
      </trkpt>
      <trkpt lat="47.07728" lon="5.51023">
        <ele>230.373047</ele>
        <time>2011-05-27T15:47:38Z</time>
      </trkpt>
      <trkpt lat="47.0773" lon="5.51042">
        <ele>230.373047</ele>
        <time>2011-05-27T15:47:40Z</time>
      </trkpt>
      <trkpt lat="47.07742" lon="5.51115">
        <ele>230.85376</ele>
        <time>2011-05-27T15:47:48Z</time>
      </trkpt>
      <trkpt lat="47.07748" lon="5.51177">
        <ele>231.334351</ele>
        <time>2011-05-27T15:47:55Z</time>
      </trkpt>
      <trkpt lat="47.07746" lon="5.51218">
        <ele>230.85376</ele>
        <time>2011-05-27T15:48:00Z</time>
      </trkpt>
      <trkpt lat="47.07751" lon="5.51243">
        <ele>231.334351</ele>
        <time>2011-05-27T15:48:04Z</time>
      </trkpt>
      <trkpt lat="47.07754" lon="5.51247">
        <ele>231.334351</ele>
        <time>2011-05-27T15:48:05Z</time>
      </trkpt>
      <trkpt lat="47.07776" lon="5.51262">
        <ele>233.737671</ele>
        <time>2011-05-27T15:48:12Z</time>
      </trkpt>
      <trkpt lat="47.07807" lon="5.51283">
        <ele>235.179688</ele>
        <time>2011-05-27T15:48:20Z</time>
      </trkpt>
      <trkpt lat="47.07835" lon="5.51299">
        <ele>234.218384</ele>
        <time>2011-05-27T15:48:26Z</time>
      </trkpt>
      <trkpt lat="47.0786" lon="5.51314">
        <ele>234.218384</ele>
        <time>2011-05-27T15:48:31Z</time>
      </trkpt>
      <trkpt lat="47.07892" lon="5.51333">
        <ele>233.25708</ele>
        <time>2011-05-27T15:48:38Z</time>
      </trkpt>
      <trkpt lat="47.07898" lon="5.51328">
        <ele>232.776489</ele>
        <time>2011-05-27T15:48:42Z</time>
      </trkpt>
      <trkpt lat="47.07899" lon="5.51327">
        <ele>232.776489</ele>
        <time>2011-05-27T15:48:45Z</time>
      </trkpt>
    </trkseg>
  </trk>
</gpx>